<?xml version="1.0" encoding="UTF-8" standalone="no" ?>
<gpx xmlns="http://www.topografix.com/GPX/1/1" xmlns:xsi="http://www.w3.org/2001/XMLSchema-instance" xsi:schemaLocation="http://www.topografix.com/GPX/1/1 http://www.topografix.com/GPX/1/1/gpx.xsd" version="1.1" creator="VisuGPX - https://www.visugpx.com">
  <metadata>
    <name>Chamechaude</name>
    <desc><![CDATA[Montée à Chamechaude en ski de rando]]></desc>
  </metadata>
  <trk>
    <name><![CDATA[Trk047]]></name>
    <trkseg>
      <trkpt lat="45.28969" lon="5.76736">
        <ele>1317</ele>
        <time>2013-01-06T08:04:41Z</time>
      </trkpt>
      <trkpt lat="45.28968" lon="5.76737">
        <ele>1317</ele>
        <time>2013-01-06T08:04:46Z</time>
      </trkpt>
      <trkpt lat="45.28965" lon="5.76739">
        <ele>1317</ele>
        <time>2013-01-06T08:04:51Z</time>
      </trkpt>
      <trkpt lat="45.28961" lon="5.76742">
        <ele>1317</ele>
        <time>2013-01-06T08:04:56Z</time>
      </trkpt>
      <trkpt lat="45.28958" lon="5.76745">
        <ele>1317</ele>
        <time>2013-01-06T08:05:01Z</time>
      </trkpt>
      <trkpt lat="45.28955" lon="5.76748">
        <ele>1317</ele>
        <time>2013-01-06T08:05:06Z</time>
      </trkpt>
      <trkpt lat="45.28951" lon="5.76751">
        <ele>1317</ele>
        <time>2013-01-06T08:05:11Z</time>
      </trkpt>
      <trkpt lat="45.28949" lon="5.76753">
        <ele>1318</ele>
        <time>2013-01-06T08:05:16Z</time>
      </trkpt>
      <trkpt lat="45.28948" lon="5.76754">
        <ele>1319</ele>
        <time>2013-01-06T08:05:21Z</time>
      </trkpt>
      <trkpt lat="45.28944" lon="5.76755">
        <ele>1319</ele>
        <time>2013-01-06T08:05:26Z</time>
      </trkpt>
      <trkpt lat="45.28944" lon="5.76756">
        <ele>1319</ele>
        <time>2013-01-06T08:05:31Z</time>
      </trkpt>
      <trkpt lat="45.28944" lon="5.76755">
        <ele>1319</ele>
        <time>2013-01-06T08:05:36Z</time>
      </trkpt>
      <trkpt lat="45.28943" lon="5.76755">
        <ele>1319</ele>
        <time>2013-01-06T08:05:41Z</time>
      </trkpt>
      <trkpt lat="45.28944" lon="5.76756">
        <ele>1320</ele>
        <time>2013-01-06T08:05:46Z</time>
      </trkpt>
      <trkpt lat="45.28943" lon="5.76756">
        <ele>1320</ele>
        <time>2013-01-06T08:05:51Z</time>
      </trkpt>
      <trkpt lat="45.28944" lon="5.76756">
        <ele>1320</ele>
        <time>2013-01-06T08:05:56Z</time>
      </trkpt>
      <trkpt lat="45.28944" lon="5.76756">
        <ele>1320</ele>
        <time>2013-01-06T08:06:01Z</time>
      </trkpt>
      <trkpt lat="45.28944" lon="5.76755">
        <ele>1320</ele>
        <time>2013-01-06T08:06:06Z</time>
      </trkpt>
      <trkpt lat="45.28943" lon="5.76756">
        <ele>1321</ele>
        <time>2013-01-06T08:06:11Z</time>
      </trkpt>
      <trkpt lat="45.2894" lon="5.76758">
        <ele>1321</ele>
        <time>2013-01-06T08:06:16Z</time>
      </trkpt>
      <trkpt lat="45.28935" lon="5.76762">
        <ele>1321</ele>
        <time>2013-01-06T08:06:21Z</time>
      </trkpt>
      <trkpt lat="45.28933" lon="5.76766">
        <ele>1322</ele>
        <time>2013-01-06T08:06:26Z</time>
      </trkpt>
      <trkpt lat="45.2893" lon="5.76768">
        <ele>1322</ele>
        <time>2013-01-06T08:06:31Z</time>
      </trkpt>
      <trkpt lat="45.28929" lon="5.7677">
        <ele>1322</ele>
        <time>2013-01-06T08:06:36Z</time>
      </trkpt>
      <trkpt lat="45.28929" lon="5.7677">
        <ele>1322</ele>
        <time>2013-01-06T08:06:41Z</time>
      </trkpt>
      <trkpt lat="45.28927" lon="5.76771">
        <ele>1321</ele>
        <time>2013-01-06T08:06:46Z</time>
      </trkpt>
      <trkpt lat="45.28924" lon="5.76775">
        <ele>1321</ele>
        <time>2013-01-06T08:06:51Z</time>
      </trkpt>
      <trkpt lat="45.2892" lon="5.76779">
        <ele>1322</ele>
        <time>2013-01-06T08:06:56Z</time>
      </trkpt>
      <trkpt lat="45.28917" lon="5.76784">
        <ele>1322</ele>
        <time>2013-01-06T08:07:01Z</time>
      </trkpt>
      <trkpt lat="45.28913" lon="5.76788">
        <ele>1322</ele>
        <time>2013-01-06T08:07:06Z</time>
      </trkpt>
      <trkpt lat="45.28909" lon="5.76792">
        <ele>1322</ele>
        <time>2013-01-06T08:07:11Z</time>
      </trkpt>
      <trkpt lat="45.28905" lon="5.76797">
        <ele>1322</ele>
        <time>2013-01-06T08:07:16Z</time>
      </trkpt>
      <trkpt lat="45.28902" lon="5.768">
        <ele>1322</ele>
        <time>2013-01-06T08:07:21Z</time>
      </trkpt>
      <trkpt lat="45.28898" lon="5.76803">
        <ele>1321</ele>
        <time>2013-01-06T08:07:26Z</time>
      </trkpt>
      <trkpt lat="45.28894" lon="5.76807">
        <ele>1321</ele>
        <time>2013-01-06T08:07:31Z</time>
      </trkpt>
      <trkpt lat="45.2889" lon="5.76812">
        <ele>1321</ele>
        <time>2013-01-06T08:07:36Z</time>
      </trkpt>
      <trkpt lat="45.28886" lon="5.76816">
        <ele>1321</ele>
        <time>2013-01-06T08:07:41Z</time>
      </trkpt>
      <trkpt lat="45.28883" lon="5.76822">
        <ele>1320</ele>
        <time>2013-01-06T08:07:46Z</time>
      </trkpt>
      <trkpt lat="45.2888" lon="5.76828">
        <ele>1319</ele>
        <time>2013-01-06T08:07:51Z</time>
      </trkpt>
      <trkpt lat="45.28879" lon="5.76835">
        <ele>1319</ele>
        <time>2013-01-06T08:07:56Z</time>
      </trkpt>
      <trkpt lat="45.28877" lon="5.76841">
        <ele>1319</ele>
        <time>2013-01-06T08:08:01Z</time>
      </trkpt>
      <trkpt lat="45.28876" lon="5.76845">
        <ele>1320</ele>
        <time>2013-01-06T08:08:06Z</time>
      </trkpt>
      <trkpt lat="45.28876" lon="5.76845">
        <ele>1320</ele>
        <time>2013-01-06T08:08:11Z</time>
      </trkpt>
      <trkpt lat="45.28875" lon="5.76849">
        <ele>1321</ele>
        <time>2013-01-06T08:08:16Z</time>
      </trkpt>
      <trkpt lat="45.28873" lon="5.76855">
        <ele>1321</ele>
        <time>2013-01-06T08:08:21Z</time>
      </trkpt>
      <trkpt lat="45.28871" lon="5.76861">
        <ele>1321</ele>
        <time>2013-01-06T08:08:26Z</time>
      </trkpt>
      <trkpt lat="45.2887" lon="5.76866">
        <ele>1322</ele>
        <time>2013-01-06T08:08:31Z</time>
      </trkpt>
      <trkpt lat="45.28869" lon="5.76871">
        <ele>1322</ele>
        <time>2013-01-06T08:08:36Z</time>
      </trkpt>
      <trkpt lat="45.28868" lon="5.76877">
        <ele>1322</ele>
        <time>2013-01-06T08:08:41Z</time>
      </trkpt>
      <trkpt lat="45.28866" lon="5.76882">
        <ele>1322</ele>
        <time>2013-01-06T08:08:46Z</time>
      </trkpt>
      <trkpt lat="45.28865" lon="5.76887">
        <ele>1323</ele>
        <time>2013-01-06T08:08:51Z</time>
      </trkpt>
      <trkpt lat="45.28864" lon="5.76892">
        <ele>1324</ele>
        <time>2013-01-06T08:08:56Z</time>
      </trkpt>
      <trkpt lat="45.28862" lon="5.76897">
        <ele>1325</ele>
        <time>2013-01-06T08:09:01Z</time>
      </trkpt>
      <trkpt lat="45.28859" lon="5.76901">
        <ele>1325</ele>
        <time>2013-01-06T08:09:06Z</time>
      </trkpt>
      <trkpt lat="45.28858" lon="5.76906">
        <ele>1325</ele>
        <time>2013-01-06T08:09:11Z</time>
      </trkpt>
      <trkpt lat="45.28856" lon="5.7691">
        <ele>1325</ele>
        <time>2013-01-06T08:09:16Z</time>
      </trkpt>
      <trkpt lat="45.28855" lon="5.76915">
        <ele>1326</ele>
        <time>2013-01-06T08:09:21Z</time>
      </trkpt>
      <trkpt lat="45.28853" lon="5.76919">
        <ele>1326</ele>
        <time>2013-01-06T08:09:26Z</time>
      </trkpt>
      <trkpt lat="45.28851" lon="5.76923">
        <ele>1326</ele>
        <time>2013-01-06T08:09:31Z</time>
      </trkpt>
      <trkpt lat="45.28849" lon="5.76926">
        <ele>1327</ele>
        <time>2013-01-06T08:09:36Z</time>
      </trkpt>
      <trkpt lat="45.28848" lon="5.7693">
        <ele>1327</ele>
        <time>2013-01-06T08:09:41Z</time>
      </trkpt>
      <trkpt lat="45.28846" lon="5.76933">
        <ele>1329</ele>
        <time>2013-01-06T08:09:46Z</time>
      </trkpt>
      <trkpt lat="45.28845" lon="5.76936">
        <ele>1329</ele>
        <time>2013-01-06T08:09:51Z</time>
      </trkpt>
      <trkpt lat="45.28843" lon="5.76938">
        <ele>1330</ele>
        <time>2013-01-06T08:09:56Z</time>
      </trkpt>
      <trkpt lat="45.28841" lon="5.76941">
        <ele>1331</ele>
        <time>2013-01-06T08:10:01Z</time>
      </trkpt>
      <trkpt lat="45.28839" lon="5.76945">
        <ele>1333</ele>
        <time>2013-01-06T08:10:06Z</time>
      </trkpt>
      <trkpt lat="45.28837" lon="5.76949">
        <ele>1333</ele>
        <time>2013-01-06T08:10:11Z</time>
      </trkpt>
      <trkpt lat="45.28835" lon="5.76953">
        <ele>1334</ele>
        <time>2013-01-06T08:10:16Z</time>
      </trkpt>
      <trkpt lat="45.28832" lon="5.76957">
        <ele>1333</ele>
        <time>2013-01-06T08:10:21Z</time>
      </trkpt>
      <trkpt lat="45.2883" lon="5.7696">
        <ele>1333</ele>
        <time>2013-01-06T08:10:26Z</time>
      </trkpt>
      <trkpt lat="45.28828" lon="5.76964">
        <ele>1333</ele>
        <time>2013-01-06T08:10:31Z</time>
      </trkpt>
      <trkpt lat="45.28825" lon="5.76968">
        <ele>1333</ele>
        <time>2013-01-06T08:10:36Z</time>
      </trkpt>
      <trkpt lat="45.28823" lon="5.76971">
        <ele>1333</ele>
        <time>2013-01-06T08:10:41Z</time>
      </trkpt>
      <trkpt lat="45.28821" lon="5.76975">
        <ele>1334</ele>
        <time>2013-01-06T08:10:46Z</time>
      </trkpt>
      <trkpt lat="45.2882" lon="5.76978">
        <ele>1334</ele>
        <time>2013-01-06T08:10:51Z</time>
      </trkpt>
      <trkpt lat="45.28817" lon="5.76982">
        <ele>1334</ele>
        <time>2013-01-06T08:10:56Z</time>
      </trkpt>
      <trkpt lat="45.28814" lon="5.76986">
        <ele>1334</ele>
        <time>2013-01-06T08:11:01Z</time>
      </trkpt>
      <trkpt lat="45.28813" lon="5.76987">
        <ele>1334</ele>
        <time>2013-01-06T08:11:06Z</time>
      </trkpt>
      <trkpt lat="45.28813" lon="5.76989">
        <ele>1334</ele>
        <time>2013-01-06T08:11:11Z</time>
      </trkpt>
      <trkpt lat="45.28812" lon="5.7699">
        <ele>1334</ele>
        <time>2013-01-06T08:11:16Z</time>
      </trkpt>
      <trkpt lat="45.28811" lon="5.7699">
        <ele>1335</ele>
        <time>2013-01-06T08:11:21Z</time>
      </trkpt>
      <trkpt lat="45.28812" lon="5.7699">
        <ele>1336</ele>
        <time>2013-01-06T08:11:26Z</time>
      </trkpt>
      <trkpt lat="45.28812" lon="5.7699">
        <ele>1336</ele>
        <time>2013-01-06T08:11:31Z</time>
      </trkpt>
      <trkpt lat="45.28811" lon="5.76993">
        <ele>1337</ele>
        <time>2013-01-06T08:11:36Z</time>
      </trkpt>
      <trkpt lat="45.28812" lon="5.76994">
        <ele>1336</ele>
        <time>2013-01-06T08:11:41Z</time>
      </trkpt>
      <trkpt lat="45.28811" lon="5.76995">
        <ele>1339</ele>
        <time>2013-01-06T08:11:46Z</time>
      </trkpt>
      <trkpt lat="45.2881" lon="5.77">
        <ele>1341</ele>
        <time>2013-01-06T08:11:51Z</time>
      </trkpt>
      <trkpt lat="45.28808" lon="5.77004">
        <ele>1341</ele>
        <time>2013-01-06T08:11:56Z</time>
      </trkpt>
      <trkpt lat="45.28806" lon="5.77009">
        <ele>1341</ele>
        <time>2013-01-06T08:12:01Z</time>
      </trkpt>
      <trkpt lat="45.28804" lon="5.77013">
        <ele>1341</ele>
        <time>2013-01-06T08:12:06Z</time>
      </trkpt>
      <trkpt lat="45.28803" lon="5.77018">
        <ele>1342</ele>
        <time>2013-01-06T08:12:11Z</time>
      </trkpt>
      <trkpt lat="45.28801" lon="5.77022">
        <ele>1342</ele>
        <time>2013-01-06T08:12:16Z</time>
      </trkpt>
      <trkpt lat="45.288" lon="5.77026">
        <ele>1342</ele>
        <time>2013-01-06T08:12:21Z</time>
      </trkpt>
      <trkpt lat="45.28799" lon="5.7703">
        <ele>1343</ele>
        <time>2013-01-06T08:12:26Z</time>
      </trkpt>
      <trkpt lat="45.28797" lon="5.77034">
        <ele>1343</ele>
        <time>2013-01-06T08:12:31Z</time>
      </trkpt>
      <trkpt lat="45.28796" lon="5.77039">
        <ele>1343</ele>
        <time>2013-01-06T08:12:36Z</time>
      </trkpt>
      <trkpt lat="45.28795" lon="5.77043">
        <ele>1344</ele>
        <time>2013-01-06T08:12:41Z</time>
      </trkpt>
      <trkpt lat="45.28793" lon="5.77048">
        <ele>1344</ele>
        <time>2013-01-06T08:12:46Z</time>
      </trkpt>
      <trkpt lat="45.28792" lon="5.77052">
        <ele>1345</ele>
        <time>2013-01-06T08:12:51Z</time>
      </trkpt>
      <trkpt lat="45.28791" lon="5.77057">
        <ele>1346</ele>
        <time>2013-01-06T08:12:56Z</time>
      </trkpt>
      <trkpt lat="45.2879" lon="5.77061">
        <ele>1346</ele>
        <time>2013-01-06T08:13:01Z</time>
      </trkpt>
      <trkpt lat="45.28788" lon="5.77065">
        <ele>1347</ele>
        <time>2013-01-06T08:13:06Z</time>
      </trkpt>
      <trkpt lat="45.28787" lon="5.77069">
        <ele>1347</ele>
        <time>2013-01-06T08:13:11Z</time>
      </trkpt>
      <trkpt lat="45.28786" lon="5.77073">
        <ele>1348</ele>
        <time>2013-01-06T08:13:16Z</time>
      </trkpt>
      <trkpt lat="45.28786" lon="5.77077">
        <ele>1349</ele>
        <time>2013-01-06T08:13:21Z</time>
      </trkpt>
      <trkpt lat="45.28785" lon="5.7708">
        <ele>1350</ele>
        <time>2013-01-06T08:13:26Z</time>
      </trkpt>
      <trkpt lat="45.28784" lon="5.77084">
        <ele>1350</ele>
        <time>2013-01-06T08:13:31Z</time>
      </trkpt>
      <trkpt lat="45.28783" lon="5.77088">
        <ele>1351</ele>
        <time>2013-01-06T08:13:36Z</time>
      </trkpt>
      <trkpt lat="45.28782" lon="5.77091">
        <ele>1352</ele>
        <time>2013-01-06T08:13:41Z</time>
      </trkpt>
      <trkpt lat="45.28781" lon="5.77095">
        <ele>1353</ele>
        <time>2013-01-06T08:13:46Z</time>
      </trkpt>
      <trkpt lat="45.2878" lon="5.77099">
        <ele>1353</ele>
        <time>2013-01-06T08:13:51Z</time>
      </trkpt>
      <trkpt lat="45.28779" lon="5.77103">
        <ele>1353</ele>
        <time>2013-01-06T08:13:56Z</time>
      </trkpt>
      <trkpt lat="45.28777" lon="5.77107">
        <ele>1353</ele>
        <time>2013-01-06T08:14:01Z</time>
      </trkpt>
      <trkpt lat="45.28776" lon="5.7711">
        <ele>1354</ele>
        <time>2013-01-06T08:14:06Z</time>
      </trkpt>
      <trkpt lat="45.28775" lon="5.77114">
        <ele>1354</ele>
        <time>2013-01-06T08:14:11Z</time>
      </trkpt>
      <trkpt lat="45.28774" lon="5.77117">
        <ele>1354</ele>
        <time>2013-01-06T08:14:16Z</time>
      </trkpt>
      <trkpt lat="45.28772" lon="5.77121">
        <ele>1354</ele>
        <time>2013-01-06T08:14:21Z</time>
      </trkpt>
      <trkpt lat="45.28771" lon="5.77124">
        <ele>1354</ele>
        <time>2013-01-06T08:14:26Z</time>
      </trkpt>
      <trkpt lat="45.2877" lon="5.77127">
        <ele>1354</ele>
        <time>2013-01-06T08:14:31Z</time>
      </trkpt>
      <trkpt lat="45.28769" lon="5.77131">
        <ele>1354</ele>
        <time>2013-01-06T08:14:36Z</time>
      </trkpt>
      <trkpt lat="45.28768" lon="5.77134">
        <ele>1355</ele>
        <time>2013-01-06T08:14:41Z</time>
      </trkpt>
      <trkpt lat="45.28767" lon="5.77139">
        <ele>1356</ele>
        <time>2013-01-06T08:14:46Z</time>
      </trkpt>
      <trkpt lat="45.28767" lon="5.77142">
        <ele>1357</ele>
        <time>2013-01-06T08:14:51Z</time>
      </trkpt>
      <trkpt lat="45.28766" lon="5.77144">
        <ele>1357</ele>
        <time>2013-01-06T08:14:56Z</time>
      </trkpt>
      <trkpt lat="45.28765" lon="5.77147">
        <ele>1357</ele>
        <time>2013-01-06T08:15:01Z</time>
      </trkpt>
      <trkpt lat="45.28764" lon="5.77151">
        <ele>1357</ele>
        <time>2013-01-06T08:15:06Z</time>
      </trkpt>
      <trkpt lat="45.28764" lon="5.77153">
        <ele>1358</ele>
        <time>2013-01-06T08:15:11Z</time>
      </trkpt>
      <trkpt lat="45.28764" lon="5.77153">
        <ele>1359</ele>
        <time>2013-01-06T08:15:16Z</time>
      </trkpt>
      <trkpt lat="45.28765" lon="5.77153">
        <ele>1359</ele>
        <time>2013-01-06T08:15:21Z</time>
      </trkpt>
      <trkpt lat="45.28766" lon="5.77152">
        <ele>1358</ele>
        <time>2013-01-06T08:15:26Z</time>
      </trkpt>
      <trkpt lat="45.28765" lon="5.77154">
        <ele>1359</ele>
        <time>2013-01-06T08:15:31Z</time>
      </trkpt>
      <trkpt lat="45.28764" lon="5.77158">
        <ele>1359</ele>
        <time>2013-01-06T08:15:36Z</time>
      </trkpt>
      <trkpt lat="45.28762" lon="5.77162">
        <ele>1359</ele>
        <time>2013-01-06T08:15:41Z</time>
      </trkpt>
      <trkpt lat="45.28761" lon="5.77166">
        <ele>1360</ele>
        <time>2013-01-06T08:15:46Z</time>
      </trkpt>
      <trkpt lat="45.28762" lon="5.7717">
        <ele>1360</ele>
        <time>2013-01-06T08:15:51Z</time>
      </trkpt>
      <trkpt lat="45.28762" lon="5.77175">
        <ele>1361</ele>
        <time>2013-01-06T08:15:56Z</time>
      </trkpt>
      <trkpt lat="45.28763" lon="5.77179">
        <ele>1362</ele>
        <time>2013-01-06T08:16:01Z</time>
      </trkpt>
      <trkpt lat="45.28763" lon="5.77183">
        <ele>1362</ele>
        <time>2013-01-06T08:16:06Z</time>
      </trkpt>
      <trkpt lat="45.28761" lon="5.77187">
        <ele>1363</ele>
        <time>2013-01-06T08:16:11Z</time>
      </trkpt>
      <trkpt lat="45.28759" lon="5.7719">
        <ele>1364</ele>
        <time>2013-01-06T08:16:16Z</time>
      </trkpt>
      <trkpt lat="45.28758" lon="5.77193">
        <ele>1365</ele>
        <time>2013-01-06T08:16:21Z</time>
      </trkpt>
      <trkpt lat="45.28756" lon="5.77194">
        <ele>1365</ele>
        <time>2013-01-06T08:16:26Z</time>
      </trkpt>
      <trkpt lat="45.28755" lon="5.77197">
        <ele>1366</ele>
        <time>2013-01-06T08:16:31Z</time>
      </trkpt>
      <trkpt lat="45.28753" lon="5.772">
        <ele>1367</ele>
        <time>2013-01-06T08:16:36Z</time>
      </trkpt>
      <trkpt lat="45.28752" lon="5.77202">
        <ele>1368</ele>
        <time>2013-01-06T08:16:41Z</time>
      </trkpt>
      <trkpt lat="45.28753" lon="5.77204">
        <ele>1368</ele>
        <time>2013-01-06T08:16:46Z</time>
      </trkpt>
      <trkpt lat="45.28753" lon="5.77204">
        <ele>1368</ele>
        <time>2013-01-06T08:16:51Z</time>
      </trkpt>
      <trkpt lat="45.28755" lon="5.77207">
        <ele>1369</ele>
        <time>2013-01-06T08:16:56Z</time>
      </trkpt>
      <trkpt lat="45.28754" lon="5.77211">
        <ele>1371</ele>
        <time>2013-01-06T08:17:01Z</time>
      </trkpt>
      <trkpt lat="45.28751" lon="5.77214">
        <ele>1372</ele>
        <time>2013-01-06T08:17:06Z</time>
      </trkpt>
      <trkpt lat="45.2875" lon="5.77218">
        <ele>1372</ele>
        <time>2013-01-06T08:17:11Z</time>
      </trkpt>
      <trkpt lat="45.28747" lon="5.77221">
        <ele>1373</ele>
        <time>2013-01-06T08:17:16Z</time>
      </trkpt>
      <trkpt lat="45.28745" lon="5.77225">
        <ele>1374</ele>
        <time>2013-01-06T08:17:21Z</time>
      </trkpt>
      <trkpt lat="45.28744" lon="5.77229">
        <ele>1374</ele>
        <time>2013-01-06T08:17:26Z</time>
      </trkpt>
      <trkpt lat="45.28742" lon="5.77233">
        <ele>1374</ele>
        <time>2013-01-06T08:17:31Z</time>
      </trkpt>
      <trkpt lat="45.28742" lon="5.77236">
        <ele>1374</ele>
        <time>2013-01-06T08:17:36Z</time>
      </trkpt>
      <trkpt lat="45.28743" lon="5.77238">
        <ele>1374</ele>
        <time>2013-01-06T08:17:41Z</time>
      </trkpt>
      <trkpt lat="45.28743" lon="5.77243">
        <ele>1374</ele>
        <time>2013-01-06T08:17:46Z</time>
      </trkpt>
      <trkpt lat="45.28742" lon="5.77248">
        <ele>1375</ele>
        <time>2013-01-06T08:17:51Z</time>
      </trkpt>
      <trkpt lat="45.28742" lon="5.77253">
        <ele>1375</ele>
        <time>2013-01-06T08:17:56Z</time>
      </trkpt>
      <trkpt lat="45.28743" lon="5.77256">
        <ele>1376</ele>
        <time>2013-01-06T08:18:01Z</time>
      </trkpt>
      <trkpt lat="45.28743" lon="5.7726">
        <ele>1376</ele>
        <time>2013-01-06T08:18:06Z</time>
      </trkpt>
      <trkpt lat="45.28745" lon="5.77263">
        <ele>1377</ele>
        <time>2013-01-06T08:18:11Z</time>
      </trkpt>
      <trkpt lat="45.28745" lon="5.77266">
        <ele>1378</ele>
        <time>2013-01-06T08:18:16Z</time>
      </trkpt>
      <trkpt lat="45.28747" lon="5.77269">
        <ele>1378</ele>
        <time>2013-01-06T08:18:21Z</time>
      </trkpt>
      <trkpt lat="45.28748" lon="5.77273">
        <ele>1379</ele>
        <time>2013-01-06T08:18:26Z</time>
      </trkpt>
      <trkpt lat="45.28749" lon="5.77276">
        <ele>1380</ele>
        <time>2013-01-06T08:18:31Z</time>
      </trkpt>
      <trkpt lat="45.2875" lon="5.77279">
        <ele>1381</ele>
        <time>2013-01-06T08:18:36Z</time>
      </trkpt>
      <trkpt lat="45.2875" lon="5.77282">
        <ele>1382</ele>
        <time>2013-01-06T08:18:41Z</time>
      </trkpt>
      <trkpt lat="45.28748" lon="5.77284">
        <ele>1382</ele>
        <time>2013-01-06T08:18:46Z</time>
      </trkpt>
      <trkpt lat="45.28744" lon="5.77286">
        <ele>1383</ele>
        <time>2013-01-06T08:18:51Z</time>
      </trkpt>
      <trkpt lat="45.28741" lon="5.77287">
        <ele>1384</ele>
        <time>2013-01-06T08:18:56Z</time>
      </trkpt>
      <trkpt lat="45.28737" lon="5.77288">
        <ele>1385</ele>
        <time>2013-01-06T08:19:01Z</time>
      </trkpt>
      <trkpt lat="45.28734" lon="5.7729">
        <ele>1385</ele>
        <time>2013-01-06T08:19:06Z</time>
      </trkpt>
      <trkpt lat="45.28731" lon="5.77292">
        <ele>1386</ele>
        <time>2013-01-06T08:19:11Z</time>
      </trkpt>
      <trkpt lat="45.28729" lon="5.77294">
        <ele>1386</ele>
        <time>2013-01-06T08:19:16Z</time>
      </trkpt>
      <trkpt lat="45.28726" lon="5.77295">
        <ele>1387</ele>
        <time>2013-01-06T08:19:21Z</time>
      </trkpt>
      <trkpt lat="45.28722" lon="5.77296">
        <ele>1388</ele>
        <time>2013-01-06T08:19:26Z</time>
      </trkpt>
      <trkpt lat="45.28719" lon="5.77297">
        <ele>1388</ele>
        <time>2013-01-06T08:19:31Z</time>
      </trkpt>
      <trkpt lat="45.28716" lon="5.77298">
        <ele>1389</ele>
        <time>2013-01-06T08:19:36Z</time>
      </trkpt>
      <trkpt lat="45.28714" lon="5.77299">
        <ele>1390</ele>
        <time>2013-01-06T08:19:41Z</time>
      </trkpt>
      <trkpt lat="45.28711" lon="5.77301">
        <ele>1390</ele>
        <time>2013-01-06T08:19:46Z</time>
      </trkpt>
      <trkpt lat="45.28709" lon="5.77302">
        <ele>1390</ele>
        <time>2013-01-06T08:19:51Z</time>
      </trkpt>
      <trkpt lat="45.28706" lon="5.77303">
        <ele>1390</ele>
        <time>2013-01-06T08:19:56Z</time>
      </trkpt>
      <trkpt lat="45.28703" lon="5.77304">
        <ele>1390</ele>
        <time>2013-01-06T08:20:01Z</time>
      </trkpt>
      <trkpt lat="45.287" lon="5.77305">
        <ele>1391</ele>
        <time>2013-01-06T08:20:06Z</time>
      </trkpt>
      <trkpt lat="45.28697" lon="5.77307">
        <ele>1391</ele>
        <time>2013-01-06T08:20:11Z</time>
      </trkpt>
      <trkpt lat="45.28695" lon="5.77308">
        <ele>1392</ele>
        <time>2013-01-06T08:20:16Z</time>
      </trkpt>
      <trkpt lat="45.28692" lon="5.77309">
        <ele>1392</ele>
        <time>2013-01-06T08:20:21Z</time>
      </trkpt>
      <trkpt lat="45.28689" lon="5.7731">
        <ele>1393</ele>
        <time>2013-01-06T08:20:26Z</time>
      </trkpt>
      <trkpt lat="45.28686" lon="5.77312">
        <ele>1393</ele>
        <time>2013-01-06T08:20:31Z</time>
      </trkpt>
      <trkpt lat="45.28684" lon="5.77315">
        <ele>1394</ele>
        <time>2013-01-06T08:20:36Z</time>
      </trkpt>
      <trkpt lat="45.28682" lon="5.77316">
        <ele>1394</ele>
        <time>2013-01-06T08:20:41Z</time>
      </trkpt>
      <trkpt lat="45.2868" lon="5.77317">
        <ele>1395</ele>
        <time>2013-01-06T08:20:46Z</time>
      </trkpt>
      <trkpt lat="45.28677" lon="5.77319">
        <ele>1395</ele>
        <time>2013-01-06T08:20:51Z</time>
      </trkpt>
      <trkpt lat="45.28675" lon="5.77321">
        <ele>1396</ele>
        <time>2013-01-06T08:20:56Z</time>
      </trkpt>
      <trkpt lat="45.28673" lon="5.77323">
        <ele>1396</ele>
        <time>2013-01-06T08:21:01Z</time>
      </trkpt>
      <trkpt lat="45.28671" lon="5.77325">
        <ele>1397</ele>
        <time>2013-01-06T08:21:06Z</time>
      </trkpt>
      <trkpt lat="45.28668" lon="5.77327">
        <ele>1397</ele>
        <time>2013-01-06T08:21:11Z</time>
      </trkpt>
      <trkpt lat="45.28666" lon="5.77328">
        <ele>1398</ele>
        <time>2013-01-06T08:21:16Z</time>
      </trkpt>
      <trkpt lat="45.28663" lon="5.77329">
        <ele>1399</ele>
        <time>2013-01-06T08:21:21Z</time>
      </trkpt>
      <trkpt lat="45.28664" lon="5.77332">
        <ele>1399</ele>
        <time>2013-01-06T08:21:26Z</time>
      </trkpt>
      <trkpt lat="45.28666" lon="5.77336">
        <ele>1400</ele>
        <time>2013-01-06T08:21:31Z</time>
      </trkpt>
      <trkpt lat="45.28668" lon="5.77339">
        <ele>1400</ele>
        <time>2013-01-06T08:21:36Z</time>
      </trkpt>
      <trkpt lat="45.28669" lon="5.77343">
        <ele>1401</ele>
        <time>2013-01-06T08:21:41Z</time>
      </trkpt>
      <trkpt lat="45.28671" lon="5.77346">
        <ele>1402</ele>
        <time>2013-01-06T08:21:46Z</time>
      </trkpt>
      <trkpt lat="45.28672" lon="5.7735">
        <ele>1403</ele>
        <time>2013-01-06T08:21:51Z</time>
      </trkpt>
      <trkpt lat="45.28674" lon="5.77353">
        <ele>1404</ele>
        <time>2013-01-06T08:21:56Z</time>
      </trkpt>
      <trkpt lat="45.28676" lon="5.77357">
        <ele>1404</ele>
        <time>2013-01-06T08:22:01Z</time>
      </trkpt>
      <trkpt lat="45.28677" lon="5.7736">
        <ele>1405</ele>
        <time>2013-01-06T08:22:06Z</time>
      </trkpt>
      <trkpt lat="45.28678" lon="5.77364">
        <ele>1406</ele>
        <time>2013-01-06T08:22:11Z</time>
      </trkpt>
      <trkpt lat="45.28679" lon="5.77368">
        <ele>1406</ele>
        <time>2013-01-06T08:22:16Z</time>
      </trkpt>
      <trkpt lat="45.28681" lon="5.77371">
        <ele>1407</ele>
        <time>2013-01-06T08:22:21Z</time>
      </trkpt>
      <trkpt lat="45.28681" lon="5.77375">
        <ele>1408</ele>
        <time>2013-01-06T08:22:26Z</time>
      </trkpt>
      <trkpt lat="45.28678" lon="5.77376">
        <ele>1409</ele>
        <time>2013-01-06T08:22:31Z</time>
      </trkpt>
      <trkpt lat="45.28676" lon="5.77377">
        <ele>1409</ele>
        <time>2013-01-06T08:22:36Z</time>
      </trkpt>
      <trkpt lat="45.28672" lon="5.77378">
        <ele>1410</ele>
        <time>2013-01-06T08:22:41Z</time>
      </trkpt>
      <trkpt lat="45.2867" lon="5.77379">
        <ele>1411</ele>
        <time>2013-01-06T08:22:46Z</time>
      </trkpt>
      <trkpt lat="45.28667" lon="5.7738">
        <ele>1411</ele>
        <time>2013-01-06T08:22:51Z</time>
      </trkpt>
      <trkpt lat="45.28664" lon="5.77381">
        <ele>1412</ele>
        <time>2013-01-06T08:22:56Z</time>
      </trkpt>
      <trkpt lat="45.28661" lon="5.77382">
        <ele>1412</ele>
        <time>2013-01-06T08:23:01Z</time>
      </trkpt>
      <trkpt lat="45.28658" lon="5.77383">
        <ele>1413</ele>
        <time>2013-01-06T08:23:06Z</time>
      </trkpt>
      <trkpt lat="45.28655" lon="5.77384">
        <ele>1413</ele>
        <time>2013-01-06T08:23:11Z</time>
      </trkpt>
      <trkpt lat="45.28653" lon="5.7738">
        <ele>1409</ele>
        <time>2013-01-06T08:26:01Z</time>
      </trkpt>
      <trkpt lat="45.28652" lon="5.77382">
        <ele>1409</ele>
        <time>2013-01-06T08:26:06Z</time>
      </trkpt>
      <trkpt lat="45.2865" lon="5.77383">
        <ele>1409</ele>
        <time>2013-01-06T08:26:11Z</time>
      </trkpt>
      <trkpt lat="45.28647" lon="5.77383">
        <ele>1409</ele>
        <time>2013-01-06T08:26:16Z</time>
      </trkpt>
      <trkpt lat="45.28644" lon="5.77384">
        <ele>1410</ele>
        <time>2013-01-06T08:26:21Z</time>
      </trkpt>
      <trkpt lat="45.28642" lon="5.77384">
        <ele>1410</ele>
        <time>2013-01-06T08:26:26Z</time>
      </trkpt>
      <trkpt lat="45.28642" lon="5.77386">
        <ele>1410</ele>
        <time>2013-01-06T08:26:31Z</time>
      </trkpt>
      <trkpt lat="45.28643" lon="5.77389">
        <ele>1411</ele>
        <time>2013-01-06T08:26:36Z</time>
      </trkpt>
      <trkpt lat="45.28644" lon="5.77393">
        <ele>1411</ele>
        <time>2013-01-06T08:26:41Z</time>
      </trkpt>
      <trkpt lat="45.28645" lon="5.77396">
        <ele>1411</ele>
        <time>2013-01-06T08:26:46Z</time>
      </trkpt>
      <trkpt lat="45.28646" lon="5.774">
        <ele>1411</ele>
        <time>2013-01-06T08:26:51Z</time>
      </trkpt>
      <trkpt lat="45.28647" lon="5.77403">
        <ele>1411</ele>
        <time>2013-01-06T08:26:56Z</time>
      </trkpt>
      <trkpt lat="45.28648" lon="5.77405">
        <ele>1411</ele>
        <time>2013-01-06T08:27:01Z</time>
      </trkpt>
      <trkpt lat="45.28649" lon="5.77408">
        <ele>1412</ele>
        <time>2013-01-06T08:27:06Z</time>
      </trkpt>
      <trkpt lat="45.2865" lon="5.7741">
        <ele>1414</ele>
        <time>2013-01-06T08:27:11Z</time>
      </trkpt>
      <trkpt lat="45.28652" lon="5.77411">
        <ele>1415</ele>
        <time>2013-01-06T08:27:16Z</time>
      </trkpt>
      <trkpt lat="45.28652" lon="5.77412">
        <ele>1415</ele>
        <time>2013-01-06T08:27:21Z</time>
      </trkpt>
      <trkpt lat="45.28652" lon="5.77412">
        <ele>1415</ele>
        <time>2013-01-06T08:27:26Z</time>
      </trkpt>
      <trkpt lat="45.28652" lon="5.77412">
        <ele>1415</ele>
        <time>2013-01-06T08:27:31Z</time>
      </trkpt>
      <trkpt lat="45.28654" lon="5.77414">
        <ele>1415</ele>
        <time>2013-01-06T08:27:36Z</time>
      </trkpt>
      <trkpt lat="45.28657" lon="5.77417">
        <ele>1416</ele>
        <time>2013-01-06T08:27:41Z</time>
      </trkpt>
      <trkpt lat="45.28659" lon="5.77421">
        <ele>1416</ele>
        <time>2013-01-06T08:27:46Z</time>
      </trkpt>
      <trkpt lat="45.28661" lon="5.77424">
        <ele>1417</ele>
        <time>2013-01-06T08:27:51Z</time>
      </trkpt>
      <trkpt lat="45.28663" lon="5.77428">
        <ele>1417</ele>
        <time>2013-01-06T08:27:56Z</time>
      </trkpt>
      <trkpt lat="45.28664" lon="5.7743">
        <ele>1417</ele>
        <time>2013-01-06T08:28:01Z</time>
      </trkpt>
      <trkpt lat="45.28664" lon="5.7743">
        <ele>1417</ele>
        <time>2013-01-06T08:28:06Z</time>
      </trkpt>
      <trkpt lat="45.28664" lon="5.77431">
        <ele>1417</ele>
        <time>2013-01-06T08:28:11Z</time>
      </trkpt>
      <trkpt lat="45.28663" lon="5.77431">
        <ele>1416</ele>
        <time>2013-01-06T08:28:16Z</time>
      </trkpt>
      <trkpt lat="45.28666" lon="5.7743">
        <ele>1426</ele>
        <time>2013-01-06T08:35:16Z</time>
      </trkpt>
      <trkpt lat="45.28663" lon="5.77431">
        <ele>1425</ele>
        <time>2013-01-06T08:35:21Z</time>
      </trkpt>
      <trkpt lat="45.2866" lon="5.77432">
        <ele>1424</ele>
        <time>2013-01-06T08:35:26Z</time>
      </trkpt>
      <trkpt lat="45.28656" lon="5.77433">
        <ele>1424</ele>
        <time>2013-01-06T08:35:31Z</time>
      </trkpt>
      <trkpt lat="45.28653" lon="5.77434">
        <ele>1423</ele>
        <time>2013-01-06T08:35:36Z</time>
      </trkpt>
      <trkpt lat="45.2865" lon="5.77434">
        <ele>1423</ele>
        <time>2013-01-06T08:35:41Z</time>
      </trkpt>
      <trkpt lat="45.28647" lon="5.77434">
        <ele>1424</ele>
        <time>2013-01-06T08:35:46Z</time>
      </trkpt>
      <trkpt lat="45.28644" lon="5.77434">
        <ele>1424</ele>
        <time>2013-01-06T08:35:51Z</time>
      </trkpt>
      <trkpt lat="45.28642" lon="5.77434">
        <ele>1425</ele>
        <time>2013-01-06T08:35:56Z</time>
      </trkpt>
      <trkpt lat="45.28639" lon="5.77434">
        <ele>1426</ele>
        <time>2013-01-06T08:36:01Z</time>
      </trkpt>
      <trkpt lat="45.28635" lon="5.77433">
        <ele>1427</ele>
        <time>2013-01-06T08:36:06Z</time>
      </trkpt>
      <trkpt lat="45.28633" lon="5.77433">
        <ele>1426</ele>
        <time>2013-01-06T08:36:11Z</time>
      </trkpt>
      <trkpt lat="45.28631" lon="5.77432">
        <ele>1425</ele>
        <time>2013-01-06T08:36:16Z</time>
      </trkpt>
      <trkpt lat="45.28632" lon="5.77435">
        <ele>1426</ele>
        <time>2013-01-06T08:36:21Z</time>
      </trkpt>
      <trkpt lat="45.28632" lon="5.77439">
        <ele>1426</ele>
        <time>2013-01-06T08:36:26Z</time>
      </trkpt>
      <trkpt lat="45.28634" lon="5.77442">
        <ele>1427</ele>
        <time>2013-01-06T08:36:31Z</time>
      </trkpt>
      <trkpt lat="45.28635" lon="5.77446">
        <ele>1429</ele>
        <time>2013-01-06T08:36:36Z</time>
      </trkpt>
      <trkpt lat="45.28637" lon="5.77449">
        <ele>1429</ele>
        <time>2013-01-06T08:36:41Z</time>
      </trkpt>
      <trkpt lat="45.28637" lon="5.77452">
        <ele>1430</ele>
        <time>2013-01-06T08:36:46Z</time>
      </trkpt>
      <trkpt lat="45.28638" lon="5.77455">
        <ele>1431</ele>
        <time>2013-01-06T08:36:51Z</time>
      </trkpt>
      <trkpt lat="45.28639" lon="5.77459">
        <ele>1432</ele>
        <time>2013-01-06T08:36:56Z</time>
      </trkpt>
      <trkpt lat="45.2864" lon="5.77461">
        <ele>1433</ele>
        <time>2013-01-06T08:37:01Z</time>
      </trkpt>
      <trkpt lat="45.28641" lon="5.77464">
        <ele>1433</ele>
        <time>2013-01-06T08:37:06Z</time>
      </trkpt>
      <trkpt lat="45.28642" lon="5.77467">
        <ele>1433</ele>
        <time>2013-01-06T08:37:11Z</time>
      </trkpt>
      <trkpt lat="45.28642" lon="5.77469">
        <ele>1435</ele>
        <time>2013-01-06T08:37:16Z</time>
      </trkpt>
      <trkpt lat="45.28644" lon="5.77472">
        <ele>1436</ele>
        <time>2013-01-06T08:37:21Z</time>
      </trkpt>
      <trkpt lat="45.28645" lon="5.77475">
        <ele>1436</ele>
        <time>2013-01-06T08:37:26Z</time>
      </trkpt>
      <trkpt lat="45.28647" lon="5.77479">
        <ele>1436</ele>
        <time>2013-01-06T08:37:31Z</time>
      </trkpt>
      <trkpt lat="45.28647" lon="5.77482">
        <ele>1437</ele>
        <time>2013-01-06T08:37:36Z</time>
      </trkpt>
      <trkpt lat="45.28648" lon="5.77485">
        <ele>1437</ele>
        <time>2013-01-06T08:37:41Z</time>
      </trkpt>
      <trkpt lat="45.28647" lon="5.77485">
        <ele>1434</ele>
        <time>2013-01-06T08:37:46Z</time>
      </trkpt>
      <trkpt lat="45.28647" lon="5.77486">
        <ele>1433</ele>
        <time>2013-01-06T08:37:51Z</time>
      </trkpt>
      <trkpt lat="45.28647" lon="5.77489">
        <ele>1433</ele>
        <time>2013-01-06T08:37:56Z</time>
      </trkpt>
      <trkpt lat="45.28649" lon="5.77494">
        <ele>1434</ele>
        <time>2013-01-06T08:38:01Z</time>
      </trkpt>
      <trkpt lat="45.28651" lon="5.77497">
        <ele>1435</ele>
        <time>2013-01-06T08:38:06Z</time>
      </trkpt>
      <trkpt lat="45.28653" lon="5.77501">
        <ele>1435</ele>
        <time>2013-01-06T08:38:11Z</time>
      </trkpt>
      <trkpt lat="45.28655" lon="5.77505">
        <ele>1435</ele>
        <time>2013-01-06T08:38:16Z</time>
      </trkpt>
      <trkpt lat="45.28656" lon="5.77508">
        <ele>1436</ele>
        <time>2013-01-06T08:38:21Z</time>
      </trkpt>
      <trkpt lat="45.28657" lon="5.77511">
        <ele>1439</ele>
        <time>2013-01-06T08:38:26Z</time>
      </trkpt>
      <trkpt lat="45.28659" lon="5.77515">
        <ele>1439</ele>
        <time>2013-01-06T08:38:31Z</time>
      </trkpt>
      <trkpt lat="45.28661" lon="5.77518">
        <ele>1440</ele>
        <time>2013-01-06T08:38:36Z</time>
      </trkpt>
      <trkpt lat="45.28662" lon="5.7752">
        <ele>1440</ele>
        <time>2013-01-06T08:38:41Z</time>
      </trkpt>
      <trkpt lat="45.28661" lon="5.77521">
        <ele>1441</ele>
        <time>2013-01-06T08:38:46Z</time>
      </trkpt>
      <trkpt lat="45.28661" lon="5.7752">
        <ele>1442</ele>
        <time>2013-01-06T08:38:51Z</time>
      </trkpt>
      <trkpt lat="45.28658" lon="5.77519">
        <ele>1445</ele>
        <time>2013-01-06T08:38:56Z</time>
      </trkpt>
      <trkpt lat="45.28656" lon="5.7752">
        <ele>1445</ele>
        <time>2013-01-06T08:39:01Z</time>
      </trkpt>
      <trkpt lat="45.28654" lon="5.7752">
        <ele>1445</ele>
        <time>2013-01-06T08:39:06Z</time>
      </trkpt>
      <trkpt lat="45.28652" lon="5.77521">
        <ele>1444</ele>
        <time>2013-01-06T08:39:11Z</time>
      </trkpt>
      <trkpt lat="45.2865" lon="5.77521">
        <ele>1444</ele>
        <time>2013-01-06T08:39:16Z</time>
      </trkpt>
      <trkpt lat="45.28648" lon="5.77521">
        <ele>1445</ele>
        <time>2013-01-06T08:39:21Z</time>
      </trkpt>
      <trkpt lat="45.28647" lon="5.77521">
        <ele>1446</ele>
        <time>2013-01-06T08:39:26Z</time>
      </trkpt>
      <trkpt lat="45.28645" lon="5.77516">
        <ele>1453</ele>
        <time>2013-01-06T08:39:46Z</time>
      </trkpt>
      <trkpt lat="45.28645" lon="5.77517">
        <ele>1453</ele>
        <time>2013-01-06T08:39:51Z</time>
      </trkpt>
      <trkpt lat="45.28646" lon="5.77517">
        <ele>1451</ele>
        <time>2013-01-06T08:39:56Z</time>
      </trkpt>
      <trkpt lat="45.28646" lon="5.77517">
        <ele>1449</ele>
        <time>2013-01-06T08:40:01Z</time>
      </trkpt>
      <trkpt lat="45.28644" lon="5.77515">
        <ele>1450</ele>
        <time>2013-01-06T08:40:06Z</time>
      </trkpt>
      <trkpt lat="45.2864" lon="5.77514">
        <ele>1450</ele>
        <time>2013-01-06T08:40:11Z</time>
      </trkpt>
      <trkpt lat="45.28637" lon="5.77513">
        <ele>1450</ele>
        <time>2013-01-06T08:40:16Z</time>
      </trkpt>
      <trkpt lat="45.28634" lon="5.77512">
        <ele>1450</ele>
        <time>2013-01-06T08:40:21Z</time>
      </trkpt>
      <trkpt lat="45.28631" lon="5.77512">
        <ele>1451</ele>
        <time>2013-01-06T08:40:26Z</time>
      </trkpt>
      <trkpt lat="45.28629" lon="5.77511">
        <ele>1453</ele>
        <time>2013-01-06T08:40:31Z</time>
      </trkpt>
      <trkpt lat="45.28627" lon="5.77509">
        <ele>1454</ele>
        <time>2013-01-06T08:40:36Z</time>
      </trkpt>
      <trkpt lat="45.28625" lon="5.77509">
        <ele>1455</ele>
        <time>2013-01-06T08:40:41Z</time>
      </trkpt>
      <trkpt lat="45.28624" lon="5.77509">
        <ele>1455</ele>
        <time>2013-01-06T08:40:46Z</time>
      </trkpt>
      <trkpt lat="45.28624" lon="5.77508">
        <ele>1455</ele>
        <time>2013-01-06T08:40:51Z</time>
      </trkpt>
      <trkpt lat="45.28622" lon="5.77509">
        <ele>1454</ele>
        <time>2013-01-06T08:40:56Z</time>
      </trkpt>
      <trkpt lat="45.28623" lon="5.77512">
        <ele>1454</ele>
        <time>2013-01-06T08:41:01Z</time>
      </trkpt>
      <trkpt lat="45.28623" lon="5.77514">
        <ele>1455</ele>
        <time>2013-01-06T08:41:06Z</time>
      </trkpt>
      <trkpt lat="45.28624" lon="5.77515">
        <ele>1455</ele>
        <time>2013-01-06T08:41:11Z</time>
      </trkpt>
      <trkpt lat="45.28624" lon="5.77516">
        <ele>1455</ele>
        <time>2013-01-06T08:41:16Z</time>
      </trkpt>
      <trkpt lat="45.28624" lon="5.77518">
        <ele>1455</ele>
        <time>2013-01-06T08:41:21Z</time>
      </trkpt>
      <trkpt lat="45.28627" lon="5.77518">
        <ele>1454</ele>
        <time>2013-01-06T08:41:26Z</time>
      </trkpt>
      <trkpt lat="45.28633" lon="5.77516">
        <ele>1451</ele>
        <time>2013-01-06T08:41:31Z</time>
      </trkpt>
      <trkpt lat="45.28632" lon="5.77516">
        <ele>1449</ele>
        <time>2013-01-06T08:41:36Z</time>
      </trkpt>
      <trkpt lat="45.28632" lon="5.77517">
        <ele>1448</ele>
        <time>2013-01-06T08:41:41Z</time>
      </trkpt>
      <trkpt lat="45.28632" lon="5.77517">
        <ele>1448</ele>
        <time>2013-01-06T08:41:46Z</time>
      </trkpt>
      <trkpt lat="45.28632" lon="5.77518">
        <ele>1449</ele>
        <time>2013-01-06T08:41:51Z</time>
      </trkpt>
      <trkpt lat="45.28632" lon="5.77518">
        <ele>1448</ele>
        <time>2013-01-06T08:41:56Z</time>
      </trkpt>
      <trkpt lat="45.28632" lon="5.77519">
        <ele>1448</ele>
        <time>2013-01-06T08:42:01Z</time>
      </trkpt>
      <trkpt lat="45.28631" lon="5.77519">
        <ele>1448</ele>
        <time>2013-01-06T08:42:06Z</time>
      </trkpt>
      <trkpt lat="45.28631" lon="5.77519">
        <ele>1448</ele>
        <time>2013-01-06T08:42:11Z</time>
      </trkpt>
      <trkpt lat="45.28631" lon="5.7752">
        <ele>1449</ele>
        <time>2013-01-06T08:42:16Z</time>
      </trkpt>
      <trkpt lat="45.28631" lon="5.77518">
        <ele>1449</ele>
        <time>2013-01-06T08:42:21Z</time>
      </trkpt>
      <trkpt lat="45.28631" lon="5.77518">
        <ele>1449</ele>
        <time>2013-01-06T08:42:26Z</time>
      </trkpt>
      <trkpt lat="45.28631" lon="5.77518">
        <ele>1450</ele>
        <time>2013-01-06T08:42:31Z</time>
      </trkpt>
      <trkpt lat="45.28631" lon="5.77516">
        <ele>1449</ele>
        <time>2013-01-06T08:42:36Z</time>
      </trkpt>
      <trkpt lat="45.28631" lon="5.77516">
        <ele>1449</ele>
        <time>2013-01-06T08:42:41Z</time>
      </trkpt>
      <trkpt lat="45.28631" lon="5.77517">
        <ele>1450</ele>
        <time>2013-01-06T08:42:46Z</time>
      </trkpt>
      <trkpt lat="45.28631" lon="5.77517">
        <ele>1450</ele>
        <time>2013-01-06T08:42:51Z</time>
      </trkpt>
      <trkpt lat="45.28632" lon="5.77518">
        <ele>1450</ele>
        <time>2013-01-06T08:42:56Z</time>
      </trkpt>
      <trkpt lat="45.28634" lon="5.77521">
        <ele>1450</ele>
        <time>2013-01-06T08:43:01Z</time>
      </trkpt>
      <trkpt lat="45.28637" lon="5.77524">
        <ele>1451</ele>
        <time>2013-01-06T08:43:06Z</time>
      </trkpt>
      <trkpt lat="45.28639" lon="5.77529">
        <ele>1451</ele>
        <time>2013-01-06T08:43:11Z</time>
      </trkpt>
      <trkpt lat="45.28641" lon="5.77535">
        <ele>1452</ele>
        <time>2013-01-06T08:43:16Z</time>
      </trkpt>
      <trkpt lat="45.28642" lon="5.7754">
        <ele>1453</ele>
        <time>2013-01-06T08:43:21Z</time>
      </trkpt>
      <trkpt lat="45.28644" lon="5.77545">
        <ele>1454</ele>
        <time>2013-01-06T08:43:26Z</time>
      </trkpt>
      <trkpt lat="45.28646" lon="5.7755">
        <ele>1455</ele>
        <time>2013-01-06T08:43:31Z</time>
      </trkpt>
      <trkpt lat="45.28648" lon="5.77555">
        <ele>1455</ele>
        <time>2013-01-06T08:43:36Z</time>
      </trkpt>
      <trkpt lat="45.2865" lon="5.77559">
        <ele>1456</ele>
        <time>2013-01-06T08:43:41Z</time>
      </trkpt>
      <trkpt lat="45.2865" lon="5.7756">
        <ele>1456</ele>
        <time>2013-01-06T08:43:46Z</time>
      </trkpt>
      <trkpt lat="45.28652" lon="5.77563">
        <ele>1456</ele>
        <time>2013-01-06T08:43:51Z</time>
      </trkpt>
      <trkpt lat="45.28655" lon="5.77567">
        <ele>1457</ele>
        <time>2013-01-06T08:43:56Z</time>
      </trkpt>
      <trkpt lat="45.28657" lon="5.77572">
        <ele>1457</ele>
        <time>2013-01-06T08:44:01Z</time>
      </trkpt>
      <trkpt lat="45.2866" lon="5.77576">
        <ele>1458</ele>
        <time>2013-01-06T08:44:06Z</time>
      </trkpt>
      <trkpt lat="45.28661" lon="5.77581">
        <ele>1460</ele>
        <time>2013-01-06T08:44:11Z</time>
      </trkpt>
      <trkpt lat="45.28659" lon="5.77583">
        <ele>1461</ele>
        <time>2013-01-06T08:44:16Z</time>
      </trkpt>
      <trkpt lat="45.28655" lon="5.77583">
        <ele>1462</ele>
        <time>2013-01-06T08:44:21Z</time>
      </trkpt>
      <trkpt lat="45.2865" lon="5.77583">
        <ele>1464</ele>
        <time>2013-01-06T08:44:26Z</time>
      </trkpt>
      <trkpt lat="45.28647" lon="5.77584">
        <ele>1465</ele>
        <time>2013-01-06T08:44:31Z</time>
      </trkpt>
      <trkpt lat="45.28644" lon="5.77584">
        <ele>1466</ele>
        <time>2013-01-06T08:44:36Z</time>
      </trkpt>
      <trkpt lat="45.28641" lon="5.77584">
        <ele>1467</ele>
        <time>2013-01-06T08:44:41Z</time>
      </trkpt>
      <trkpt lat="45.28637" lon="5.77583">
        <ele>1468</ele>
        <time>2013-01-06T08:44:46Z</time>
      </trkpt>
      <trkpt lat="45.28634" lon="5.77583">
        <ele>1468</ele>
        <time>2013-01-06T08:44:51Z</time>
      </trkpt>
      <trkpt lat="45.28631" lon="5.77583">
        <ele>1468</ele>
        <time>2013-01-06T08:44:56Z</time>
      </trkpt>
      <trkpt lat="45.2863" lon="5.77585">
        <ele>1470</ele>
        <time>2013-01-06T08:45:01Z</time>
      </trkpt>
      <trkpt lat="45.28632" lon="5.7759">
        <ele>1472</ele>
        <time>2013-01-06T08:45:06Z</time>
      </trkpt>
      <trkpt lat="45.28634" lon="5.77594">
        <ele>1473</ele>
        <time>2013-01-06T08:45:11Z</time>
      </trkpt>
      <trkpt lat="45.28635" lon="5.77599">
        <ele>1474</ele>
        <time>2013-01-06T08:45:16Z</time>
      </trkpt>
      <trkpt lat="45.28635" lon="5.77603">
        <ele>1475</ele>
        <time>2013-01-06T08:45:21Z</time>
      </trkpt>
      <trkpt lat="45.28634" lon="5.77603">
        <ele>1477</ele>
        <time>2013-01-06T08:45:26Z</time>
      </trkpt>
      <trkpt lat="45.28633" lon="5.77604">
        <ele>1481</ele>
        <time>2013-01-06T08:45:31Z</time>
      </trkpt>
      <trkpt lat="45.28633" lon="5.77607">
        <ele>1482</ele>
        <time>2013-01-06T08:45:36Z</time>
      </trkpt>
      <trkpt lat="45.28633" lon="5.77609">
        <ele>1482</ele>
        <time>2013-01-06T08:45:41Z</time>
      </trkpt>
      <trkpt lat="45.28634" lon="5.77612">
        <ele>1482</ele>
        <time>2013-01-06T08:45:46Z</time>
      </trkpt>
      <trkpt lat="45.28635" lon="5.77616">
        <ele>1483</ele>
        <time>2013-01-06T08:45:51Z</time>
      </trkpt>
      <trkpt lat="45.28635" lon="5.77619">
        <ele>1483</ele>
        <time>2013-01-06T08:45:56Z</time>
      </trkpt>
      <trkpt lat="45.28637" lon="5.77622">
        <ele>1483</ele>
        <time>2013-01-06T08:46:01Z</time>
      </trkpt>
      <trkpt lat="45.28638" lon="5.77624">
        <ele>1483</ele>
        <time>2013-01-06T08:46:06Z</time>
      </trkpt>
      <trkpt lat="45.28639" lon="5.77627">
        <ele>1483</ele>
        <time>2013-01-06T08:46:11Z</time>
      </trkpt>
      <trkpt lat="45.2864" lon="5.7763">
        <ele>1483</ele>
        <time>2013-01-06T08:46:16Z</time>
      </trkpt>
      <trkpt lat="45.2864" lon="5.77633">
        <ele>1483</ele>
        <time>2013-01-06T08:46:21Z</time>
      </trkpt>
      <trkpt lat="45.28642" lon="5.77636">
        <ele>1481</ele>
        <time>2013-01-06T08:46:26Z</time>
      </trkpt>
      <trkpt lat="45.28641" lon="5.77637">
        <ele>1481</ele>
        <time>2013-01-06T08:46:31Z</time>
      </trkpt>
      <trkpt lat="45.28639" lon="5.77637">
        <ele>1481</ele>
        <time>2013-01-06T08:46:36Z</time>
      </trkpt>
      <trkpt lat="45.28637" lon="5.77638">
        <ele>1481</ele>
        <time>2013-01-06T08:46:41Z</time>
      </trkpt>
      <trkpt lat="45.28634" lon="5.77638">
        <ele>1482</ele>
        <time>2013-01-06T08:46:46Z</time>
      </trkpt>
      <trkpt lat="45.28631" lon="5.77638">
        <ele>1484</ele>
        <time>2013-01-06T08:46:51Z</time>
      </trkpt>
      <trkpt lat="45.2863" lon="5.77638">
        <ele>1483</ele>
        <time>2013-01-06T08:46:56Z</time>
      </trkpt>
      <trkpt lat="45.28627" lon="5.77638">
        <ele>1483</ele>
        <time>2013-01-06T08:47:01Z</time>
      </trkpt>
      <trkpt lat="45.28627" lon="5.77638">
        <ele>1481</ele>
        <time>2013-01-06T08:47:06Z</time>
      </trkpt>
      <trkpt lat="45.28627" lon="5.77639">
        <ele>1479</ele>
        <time>2013-01-06T08:47:11Z</time>
      </trkpt>
      <trkpt lat="45.28624" lon="5.77637">
        <ele>1480</ele>
        <time>2013-01-06T08:47:16Z</time>
      </trkpt>
      <trkpt lat="45.28621" lon="5.77636">
        <ele>1482</ele>
        <time>2013-01-06T08:47:21Z</time>
      </trkpt>
      <trkpt lat="45.28619" lon="5.77635">
        <ele>1484</ele>
        <time>2013-01-06T08:47:26Z</time>
      </trkpt>
      <trkpt lat="45.28616" lon="5.77636">
        <ele>1485</ele>
        <time>2013-01-06T08:47:31Z</time>
      </trkpt>
      <trkpt lat="45.28614" lon="5.77638">
        <ele>1487</ele>
        <time>2013-01-06T08:47:36Z</time>
      </trkpt>
      <trkpt lat="45.28613" lon="5.77642">
        <ele>1489</ele>
        <time>2013-01-06T08:47:41Z</time>
      </trkpt>
      <trkpt lat="45.28614" lon="5.77646">
        <ele>1491</ele>
        <time>2013-01-06T08:47:46Z</time>
      </trkpt>
      <trkpt lat="45.28615" lon="5.77649">
        <ele>1492</ele>
        <time>2013-01-06T08:47:51Z</time>
      </trkpt>
      <trkpt lat="45.28616" lon="5.77652">
        <ele>1494</ele>
        <time>2013-01-06T08:47:56Z</time>
      </trkpt>
      <trkpt lat="45.28618" lon="5.77655">
        <ele>1495</ele>
        <time>2013-01-06T08:48:01Z</time>
      </trkpt>
      <trkpt lat="45.28619" lon="5.77658">
        <ele>1497</ele>
        <time>2013-01-06T08:48:06Z</time>
      </trkpt>
      <trkpt lat="45.28619" lon="5.7766">
        <ele>1499</ele>
        <time>2013-01-06T08:48:11Z</time>
      </trkpt>
      <trkpt lat="45.28621" lon="5.77663">
        <ele>1500</ele>
        <time>2013-01-06T08:48:16Z</time>
      </trkpt>
      <trkpt lat="45.28623" lon="5.77665">
        <ele>1502</ele>
        <time>2013-01-06T08:48:21Z</time>
      </trkpt>
      <trkpt lat="45.28624" lon="5.77667">
        <ele>1503</ele>
        <time>2013-01-06T08:48:26Z</time>
      </trkpt>
      <trkpt lat="45.28625" lon="5.77668">
        <ele>1503</ele>
        <time>2013-01-06T08:48:31Z</time>
      </trkpt>
      <trkpt lat="45.28626" lon="5.77671">
        <ele>1504</ele>
        <time>2013-01-06T08:48:36Z</time>
      </trkpt>
      <trkpt lat="45.28627" lon="5.77674">
        <ele>1504</ele>
        <time>2013-01-06T08:48:41Z</time>
      </trkpt>
      <trkpt lat="45.28629" lon="5.77677">
        <ele>1503</ele>
        <time>2013-01-06T08:48:46Z</time>
      </trkpt>
      <trkpt lat="45.28631" lon="5.7768">
        <ele>1503</ele>
        <time>2013-01-06T08:48:51Z</time>
      </trkpt>
      <trkpt lat="45.28633" lon="5.77683">
        <ele>1503</ele>
        <time>2013-01-06T08:48:56Z</time>
      </trkpt>
      <trkpt lat="45.28634" lon="5.77686">
        <ele>1502</ele>
        <time>2013-01-06T08:49:01Z</time>
      </trkpt>
      <trkpt lat="45.28636" lon="5.77689">
        <ele>1503</ele>
        <time>2013-01-06T08:49:06Z</time>
      </trkpt>
      <trkpt lat="45.28637" lon="5.77691">
        <ele>1504</ele>
        <time>2013-01-06T08:49:11Z</time>
      </trkpt>
      <trkpt lat="45.28639" lon="5.77694">
        <ele>1504</ele>
        <time>2013-01-06T08:49:16Z</time>
      </trkpt>
      <trkpt lat="45.28641" lon="5.77696">
        <ele>1505</ele>
        <time>2013-01-06T08:49:21Z</time>
      </trkpt>
      <trkpt lat="45.28643" lon="5.77699">
        <ele>1505</ele>
        <time>2013-01-06T08:49:26Z</time>
      </trkpt>
      <trkpt lat="45.28644" lon="5.77701">
        <ele>1506</ele>
        <time>2013-01-06T08:49:31Z</time>
      </trkpt>
      <trkpt lat="45.28646" lon="5.77704">
        <ele>1506</ele>
        <time>2013-01-06T08:49:36Z</time>
      </trkpt>
      <trkpt lat="45.28648" lon="5.77706">
        <ele>1506</ele>
        <time>2013-01-06T08:49:41Z</time>
      </trkpt>
      <trkpt lat="45.2865" lon="5.77708">
        <ele>1506</ele>
        <time>2013-01-06T08:49:46Z</time>
      </trkpt>
      <trkpt lat="45.28652" lon="5.77711">
        <ele>1506</ele>
        <time>2013-01-06T08:49:51Z</time>
      </trkpt>
      <trkpt lat="45.28652" lon="5.77712">
        <ele>1507</ele>
        <time>2013-01-06T08:49:56Z</time>
      </trkpt>
      <trkpt lat="45.28652" lon="5.77712">
        <ele>1506</ele>
        <time>2013-01-06T08:50:01Z</time>
      </trkpt>
      <trkpt lat="45.28651" lon="5.77713">
        <ele>1504</ele>
        <time>2013-01-06T08:50:06Z</time>
      </trkpt>
      <trkpt lat="45.2865" lon="5.77714">
        <ele>1503</ele>
        <time>2013-01-06T08:50:11Z</time>
      </trkpt>
      <trkpt lat="45.28648" lon="5.77716">
        <ele>1503</ele>
        <time>2013-01-06T08:50:16Z</time>
      </trkpt>
      <trkpt lat="45.28647" lon="5.77718">
        <ele>1502</ele>
        <time>2013-01-06T08:50:21Z</time>
      </trkpt>
      <trkpt lat="45.28645" lon="5.77718">
        <ele>1503</ele>
        <time>2013-01-06T08:50:26Z</time>
      </trkpt>
      <trkpt lat="45.28642" lon="5.77718">
        <ele>1505</ele>
        <time>2013-01-06T08:50:31Z</time>
      </trkpt>
      <trkpt lat="45.28639" lon="5.77718">
        <ele>1508</ele>
        <time>2013-01-06T08:50:36Z</time>
      </trkpt>
      <trkpt lat="45.28636" lon="5.77719">
        <ele>1509</ele>
        <time>2013-01-06T08:50:41Z</time>
      </trkpt>
      <trkpt lat="45.28634" lon="5.7772">
        <ele>1509</ele>
        <time>2013-01-06T08:50:46Z</time>
      </trkpt>
      <trkpt lat="45.28632" lon="5.77721">
        <ele>1510</ele>
        <time>2013-01-06T08:50:51Z</time>
      </trkpt>
      <trkpt lat="45.2863" lon="5.77723">
        <ele>1511</ele>
        <time>2013-01-06T08:50:56Z</time>
      </trkpt>
      <trkpt lat="45.28629" lon="5.77726">
        <ele>1511</ele>
        <time>2013-01-06T08:51:01Z</time>
      </trkpt>
      <trkpt lat="45.28627" lon="5.77727">
        <ele>1513</ele>
        <time>2013-01-06T08:51:06Z</time>
      </trkpt>
      <trkpt lat="45.28626" lon="5.77727">
        <ele>1515</ele>
        <time>2013-01-06T08:51:11Z</time>
      </trkpt>
      <trkpt lat="45.28624" lon="5.77726">
        <ele>1515</ele>
        <time>2013-01-06T08:51:16Z</time>
      </trkpt>
      <trkpt lat="45.28621" lon="5.77725">
        <ele>1516</ele>
        <time>2013-01-06T08:51:21Z</time>
      </trkpt>
      <trkpt lat="45.28619" lon="5.77727">
        <ele>1516</ele>
        <time>2013-01-06T08:51:26Z</time>
      </trkpt>
      <trkpt lat="45.28618" lon="5.77728">
        <ele>1516</ele>
        <time>2013-01-06T08:51:31Z</time>
      </trkpt>
      <trkpt lat="45.28616" lon="5.77727">
        <ele>1517</ele>
        <time>2013-01-06T08:51:36Z</time>
      </trkpt>
      <trkpt lat="45.28614" lon="5.77724">
        <ele>1518</ele>
        <time>2013-01-06T08:51:41Z</time>
      </trkpt>
      <trkpt lat="45.28612" lon="5.77722">
        <ele>1518</ele>
        <time>2013-01-06T08:51:46Z</time>
      </trkpt>
      <trkpt lat="45.2861" lon="5.7772">
        <ele>1518</ele>
        <time>2013-01-06T08:51:51Z</time>
      </trkpt>
      <trkpt lat="45.28608" lon="5.77719">
        <ele>1519</ele>
        <time>2013-01-06T08:51:56Z</time>
      </trkpt>
      <trkpt lat="45.28606" lon="5.77717">
        <ele>1520</ele>
        <time>2013-01-06T08:52:01Z</time>
      </trkpt>
      <trkpt lat="45.28604" lon="5.77715">
        <ele>1522</ele>
        <time>2013-01-06T08:52:06Z</time>
      </trkpt>
      <trkpt lat="45.28601" lon="5.77714">
        <ele>1522</ele>
        <time>2013-01-06T08:52:11Z</time>
      </trkpt>
      <trkpt lat="45.28599" lon="5.77712">
        <ele>1523</ele>
        <time>2013-01-06T08:52:16Z</time>
      </trkpt>
      <trkpt lat="45.28597" lon="5.77709">
        <ele>1523</ele>
        <time>2013-01-06T08:52:21Z</time>
      </trkpt>
      <trkpt lat="45.28595" lon="5.77708">
        <ele>1523</ele>
        <time>2013-01-06T08:52:26Z</time>
      </trkpt>
      <trkpt lat="45.28592" lon="5.77708">
        <ele>1523</ele>
        <time>2013-01-06T08:52:31Z</time>
      </trkpt>
      <trkpt lat="45.28589" lon="5.77708">
        <ele>1524</ele>
        <time>2013-01-06T08:52:36Z</time>
      </trkpt>
      <trkpt lat="45.28586" lon="5.77708">
        <ele>1523</ele>
        <time>2013-01-06T08:52:41Z</time>
      </trkpt>
      <trkpt lat="45.28584" lon="5.77707">
        <ele>1523</ele>
        <time>2013-01-06T08:52:46Z</time>
      </trkpt>
      <trkpt lat="45.28582" lon="5.77706">
        <ele>1523</ele>
        <time>2013-01-06T08:52:51Z</time>
      </trkpt>
      <trkpt lat="45.28579" lon="5.77706">
        <ele>1523</ele>
        <time>2013-01-06T08:52:56Z</time>
      </trkpt>
      <trkpt lat="45.28576" lon="5.77704">
        <ele>1524</ele>
        <time>2013-01-06T08:53:01Z</time>
      </trkpt>
      <trkpt lat="45.28573" lon="5.77703">
        <ele>1525</ele>
        <time>2013-01-06T08:53:06Z</time>
      </trkpt>
      <trkpt lat="45.2857" lon="5.77703">
        <ele>1525</ele>
        <time>2013-01-06T08:53:11Z</time>
      </trkpt>
      <trkpt lat="45.28567" lon="5.77702">
        <ele>1525</ele>
        <time>2013-01-06T08:53:16Z</time>
      </trkpt>
      <trkpt lat="45.28564" lon="5.77702">
        <ele>1526</ele>
        <time>2013-01-06T08:53:21Z</time>
      </trkpt>
      <trkpt lat="45.2856" lon="5.77701">
        <ele>1527</ele>
        <time>2013-01-06T08:53:26Z</time>
      </trkpt>
      <trkpt lat="45.28558" lon="5.77701">
        <ele>1526</ele>
        <time>2013-01-06T08:53:31Z</time>
      </trkpt>
      <trkpt lat="45.28555" lon="5.77701">
        <ele>1527</ele>
        <time>2013-01-06T08:53:36Z</time>
      </trkpt>
      <trkpt lat="45.28552" lon="5.777">
        <ele>1529</ele>
        <time>2013-01-06T08:53:41Z</time>
      </trkpt>
      <trkpt lat="45.28549" lon="5.77702">
        <ele>1530</ele>
        <time>2013-01-06T08:53:46Z</time>
      </trkpt>
      <trkpt lat="45.28547" lon="5.77703">
        <ele>1531</ele>
        <time>2013-01-06T08:53:51Z</time>
      </trkpt>
      <trkpt lat="45.28547" lon="5.77705">
        <ele>1532</ele>
        <time>2013-01-06T08:53:56Z</time>
      </trkpt>
      <trkpt lat="45.28549" lon="5.77708">
        <ele>1533</ele>
        <time>2013-01-06T08:54:01Z</time>
      </trkpt>
      <trkpt lat="45.28551" lon="5.77711">
        <ele>1534</ele>
        <time>2013-01-06T08:54:06Z</time>
      </trkpt>
      <trkpt lat="45.28553" lon="5.77713">
        <ele>1535</ele>
        <time>2013-01-06T08:54:11Z</time>
      </trkpt>
      <trkpt lat="45.28555" lon="5.77715">
        <ele>1536</ele>
        <time>2013-01-06T08:54:16Z</time>
      </trkpt>
      <trkpt lat="45.28556" lon="5.77718">
        <ele>1537</ele>
        <time>2013-01-06T08:54:21Z</time>
      </trkpt>
      <trkpt lat="45.28558" lon="5.7772">
        <ele>1538</ele>
        <time>2013-01-06T08:54:26Z</time>
      </trkpt>
      <trkpt lat="45.2856" lon="5.77718">
        <ele>1548</ele>
        <time>2013-01-06T08:58:41Z</time>
      </trkpt>
      <trkpt lat="45.28561" lon="5.77718">
        <ele>1548</ele>
        <time>2013-01-06T08:58:46Z</time>
      </trkpt>
      <trkpt lat="45.28561" lon="5.77718">
        <ele>1547</ele>
        <time>2013-01-06T08:58:51Z</time>
      </trkpt>
      <trkpt lat="45.2856" lon="5.77718">
        <ele>1547</ele>
        <time>2013-01-06T08:58:56Z</time>
      </trkpt>
      <trkpt lat="45.28561" lon="5.77718">
        <ele>1547</ele>
        <time>2013-01-06T08:59:01Z</time>
      </trkpt>
      <trkpt lat="45.28561" lon="5.77719">
        <ele>1546</ele>
        <time>2013-01-06T08:59:06Z</time>
      </trkpt>
      <trkpt lat="45.28561" lon="5.77719">
        <ele>1547</ele>
        <time>2013-01-06T08:59:11Z</time>
      </trkpt>
      <trkpt lat="45.2856" lon="5.77719">
        <ele>1547</ele>
        <time>2013-01-06T08:59:16Z</time>
      </trkpt>
      <trkpt lat="45.2856" lon="5.77719">
        <ele>1547</ele>
        <time>2013-01-06T08:59:21Z</time>
      </trkpt>
      <trkpt lat="45.28561" lon="5.77719">
        <ele>1547</ele>
        <time>2013-01-06T08:59:26Z</time>
      </trkpt>
      <trkpt lat="45.28561" lon="5.77719">
        <ele>1547</ele>
        <time>2013-01-06T08:59:31Z</time>
      </trkpt>
      <trkpt lat="45.28561" lon="5.77719">
        <ele>1547</ele>
        <time>2013-01-06T08:59:36Z</time>
      </trkpt>
      <trkpt lat="45.28561" lon="5.7772">
        <ele>1547</ele>
        <time>2013-01-06T08:59:41Z</time>
      </trkpt>
      <trkpt lat="45.28563" lon="5.77722">
        <ele>1548</ele>
        <time>2013-01-06T08:59:46Z</time>
      </trkpt>
      <trkpt lat="45.28565" lon="5.77724">
        <ele>1549</ele>
        <time>2013-01-06T08:59:51Z</time>
      </trkpt>
      <trkpt lat="45.28566" lon="5.77726">
        <ele>1550</ele>
        <time>2013-01-06T08:59:56Z</time>
      </trkpt>
      <trkpt lat="45.28568" lon="5.77729">
        <ele>1551</ele>
        <time>2013-01-06T09:00:01Z</time>
      </trkpt>
      <trkpt lat="45.28569" lon="5.77732">
        <ele>1552</ele>
        <time>2013-01-06T09:00:06Z</time>
      </trkpt>
      <trkpt lat="45.28569" lon="5.77735">
        <ele>1552</ele>
        <time>2013-01-06T09:00:11Z</time>
      </trkpt>
      <trkpt lat="45.2857" lon="5.77738">
        <ele>1552</ele>
        <time>2013-01-06T09:00:16Z</time>
      </trkpt>
      <trkpt lat="45.28571" lon="5.7774">
        <ele>1553</ele>
        <time>2013-01-06T09:00:21Z</time>
      </trkpt>
      <trkpt lat="45.28572" lon="5.77744">
        <ele>1554</ele>
        <time>2013-01-06T09:00:26Z</time>
      </trkpt>
      <trkpt lat="45.28573" lon="5.77746">
        <ele>1555</ele>
        <time>2013-01-06T09:00:31Z</time>
      </trkpt>
      <trkpt lat="45.28574" lon="5.77749">
        <ele>1556</ele>
        <time>2013-01-06T09:00:36Z</time>
      </trkpt>
      <trkpt lat="45.28575" lon="5.77751">
        <ele>1557</ele>
        <time>2013-01-06T09:00:41Z</time>
      </trkpt>
      <trkpt lat="45.28576" lon="5.77754">
        <ele>1558</ele>
        <time>2013-01-06T09:00:46Z</time>
      </trkpt>
      <trkpt lat="45.28577" lon="5.77756">
        <ele>1559</ele>
        <time>2013-01-06T09:00:51Z</time>
      </trkpt>
      <trkpt lat="45.28578" lon="5.77759">
        <ele>1559</ele>
        <time>2013-01-06T09:00:56Z</time>
      </trkpt>
      <trkpt lat="45.28578" lon="5.77761">
        <ele>1560</ele>
        <time>2013-01-06T09:01:01Z</time>
      </trkpt>
      <trkpt lat="45.28578" lon="5.77763">
        <ele>1561</ele>
        <time>2013-01-06T09:01:06Z</time>
      </trkpt>
      <trkpt lat="45.28581" lon="5.77766">
        <ele>1562</ele>
        <time>2013-01-06T09:01:11Z</time>
      </trkpt>
      <trkpt lat="45.28582" lon="5.77768">
        <ele>1563</ele>
        <time>2013-01-06T09:01:16Z</time>
      </trkpt>
      <trkpt lat="45.28583" lon="5.77771">
        <ele>1564</ele>
        <time>2013-01-06T09:01:21Z</time>
      </trkpt>
      <trkpt lat="45.28584" lon="5.77773">
        <ele>1564</ele>
        <time>2013-01-06T09:01:26Z</time>
      </trkpt>
      <trkpt lat="45.28586" lon="5.77776">
        <ele>1564</ele>
        <time>2013-01-06T09:01:31Z</time>
      </trkpt>
      <trkpt lat="45.28587" lon="5.77777">
        <ele>1566</ele>
        <time>2013-01-06T09:01:36Z</time>
      </trkpt>
      <trkpt lat="45.28588" lon="5.77777">
        <ele>1568</ele>
        <time>2013-01-06T09:01:41Z</time>
      </trkpt>
      <trkpt lat="45.28588" lon="5.77779">
        <ele>1568</ele>
        <time>2013-01-06T09:01:46Z</time>
      </trkpt>
      <trkpt lat="45.28588" lon="5.77782">
        <ele>1570</ele>
        <time>2013-01-06T09:01:51Z</time>
      </trkpt>
      <trkpt lat="45.28588" lon="5.77784">
        <ele>1571</ele>
        <time>2013-01-06T09:01:56Z</time>
      </trkpt>
      <trkpt lat="45.28587" lon="5.77786">
        <ele>1571</ele>
        <time>2013-01-06T09:02:01Z</time>
      </trkpt>
      <trkpt lat="45.28587" lon="5.7779">
        <ele>1570</ele>
        <time>2013-01-06T09:02:06Z</time>
      </trkpt>
      <trkpt lat="45.28587" lon="5.77794">
        <ele>1571</ele>
        <time>2013-01-06T09:02:11Z</time>
      </trkpt>
      <trkpt lat="45.28588" lon="5.77795">
        <ele>1571</ele>
        <time>2013-01-06T09:02:16Z</time>
      </trkpt>
      <trkpt lat="45.2859" lon="5.77797">
        <ele>1572</ele>
        <time>2013-01-06T09:02:21Z</time>
      </trkpt>
      <trkpt lat="45.28591" lon="5.77797">
        <ele>1573</ele>
        <time>2013-01-06T09:02:26Z</time>
      </trkpt>
      <trkpt lat="45.28591" lon="5.77801">
        <ele>1572</ele>
        <time>2013-01-06T09:02:31Z</time>
      </trkpt>
      <trkpt lat="45.28591" lon="5.77804">
        <ele>1572</ele>
        <time>2013-01-06T09:02:36Z</time>
      </trkpt>
      <trkpt lat="45.28592" lon="5.77807">
        <ele>1573</ele>
        <time>2013-01-06T09:02:41Z</time>
      </trkpt>
      <trkpt lat="45.28594" lon="5.77811">
        <ele>1573</ele>
        <time>2013-01-06T09:02:46Z</time>
      </trkpt>
      <trkpt lat="45.28595" lon="5.77813">
        <ele>1574</ele>
        <time>2013-01-06T09:02:51Z</time>
      </trkpt>
      <trkpt lat="45.28597" lon="5.77817">
        <ele>1575</ele>
        <time>2013-01-06T09:02:56Z</time>
      </trkpt>
      <trkpt lat="45.28597" lon="5.7782">
        <ele>1576</ele>
        <time>2013-01-06T09:03:01Z</time>
      </trkpt>
      <trkpt lat="45.28599" lon="5.77823">
        <ele>1577</ele>
        <time>2013-01-06T09:03:06Z</time>
      </trkpt>
      <trkpt lat="45.286" lon="5.77825">
        <ele>1578</ele>
        <time>2013-01-06T09:03:11Z</time>
      </trkpt>
      <trkpt lat="45.28601" lon="5.77828">
        <ele>1579</ele>
        <time>2013-01-06T09:03:16Z</time>
      </trkpt>
      <trkpt lat="45.28603" lon="5.77831">
        <ele>1580</ele>
        <time>2013-01-06T09:03:21Z</time>
      </trkpt>
      <trkpt lat="45.28605" lon="5.77834">
        <ele>1581</ele>
        <time>2013-01-06T09:03:26Z</time>
      </trkpt>
      <trkpt lat="45.28606" lon="5.77837">
        <ele>1582</ele>
        <time>2013-01-06T09:03:31Z</time>
      </trkpt>
      <trkpt lat="45.28605" lon="5.77839">
        <ele>1583</ele>
        <time>2013-01-06T09:03:36Z</time>
      </trkpt>
      <trkpt lat="45.28606" lon="5.77842">
        <ele>1583</ele>
        <time>2013-01-06T09:03:41Z</time>
      </trkpt>
      <trkpt lat="45.28608" lon="5.77843">
        <ele>1585</ele>
        <time>2013-01-06T09:03:46Z</time>
      </trkpt>
      <trkpt lat="45.28608" lon="5.77844">
        <ele>1585</ele>
        <time>2013-01-06T09:03:51Z</time>
      </trkpt>
      <trkpt lat="45.28608" lon="5.77846">
        <ele>1585</ele>
        <time>2013-01-06T09:03:56Z</time>
      </trkpt>
      <trkpt lat="45.28608" lon="5.77848">
        <ele>1587</ele>
        <time>2013-01-06T09:04:01Z</time>
      </trkpt>
      <trkpt lat="45.28608" lon="5.77849">
        <ele>1586</ele>
        <time>2013-01-06T09:04:06Z</time>
      </trkpt>
      <trkpt lat="45.28608" lon="5.7785">
        <ele>1586</ele>
        <time>2013-01-06T09:04:11Z</time>
      </trkpt>
      <trkpt lat="45.28608" lon="5.77852">
        <ele>1587</ele>
        <time>2013-01-06T09:04:16Z</time>
      </trkpt>
      <trkpt lat="45.2861" lon="5.77854">
        <ele>1587</ele>
        <time>2013-01-06T09:04:21Z</time>
      </trkpt>
      <trkpt lat="45.28611" lon="5.77856">
        <ele>1588</ele>
        <time>2013-01-06T09:04:26Z</time>
      </trkpt>
      <trkpt lat="45.28613" lon="5.77857">
        <ele>1588</ele>
        <time>2013-01-06T09:04:31Z</time>
      </trkpt>
      <trkpt lat="45.28615" lon="5.77859">
        <ele>1589</ele>
        <time>2013-01-06T09:04:36Z</time>
      </trkpt>
      <trkpt lat="45.28617" lon="5.77861">
        <ele>1590</ele>
        <time>2013-01-06T09:04:41Z</time>
      </trkpt>
      <trkpt lat="45.28618" lon="5.77864">
        <ele>1591</ele>
        <time>2013-01-06T09:04:46Z</time>
      </trkpt>
      <trkpt lat="45.28619" lon="5.77866">
        <ele>1592</ele>
        <time>2013-01-06T09:04:51Z</time>
      </trkpt>
      <trkpt lat="45.28621" lon="5.77869">
        <ele>1593</ele>
        <time>2013-01-06T09:04:56Z</time>
      </trkpt>
      <trkpt lat="45.28623" lon="5.77869">
        <ele>1593</ele>
        <time>2013-01-06T09:05:01Z</time>
      </trkpt>
      <trkpt lat="45.28624" lon="5.77869">
        <ele>1593</ele>
        <time>2013-01-06T09:05:06Z</time>
      </trkpt>
      <trkpt lat="45.28624" lon="5.77872">
        <ele>1593</ele>
        <time>2013-01-06T09:05:11Z</time>
      </trkpt>
      <trkpt lat="45.28624" lon="5.77875">
        <ele>1594</ele>
        <time>2013-01-06T09:05:16Z</time>
      </trkpt>
      <trkpt lat="45.28624" lon="5.77877">
        <ele>1594</ele>
        <time>2013-01-06T09:05:21Z</time>
      </trkpt>
      <trkpt lat="45.28625" lon="5.77876">
        <ele>1595</ele>
        <time>2013-01-06T09:05:26Z</time>
      </trkpt>
      <trkpt lat="45.28626" lon="5.77877">
        <ele>1595</ele>
        <time>2013-01-06T09:05:31Z</time>
      </trkpt>
      <trkpt lat="45.28626" lon="5.77881">
        <ele>1595</ele>
        <time>2013-01-06T09:05:36Z</time>
      </trkpt>
      <trkpt lat="45.28625" lon="5.77883">
        <ele>1596</ele>
        <time>2013-01-06T09:05:41Z</time>
      </trkpt>
      <trkpt lat="45.28624" lon="5.77885">
        <ele>1598</ele>
        <time>2013-01-06T09:05:46Z</time>
      </trkpt>
      <trkpt lat="45.28626" lon="5.77886">
        <ele>1599</ele>
        <time>2013-01-06T09:05:51Z</time>
      </trkpt>
      <trkpt lat="45.28628" lon="5.77885">
        <ele>1598</ele>
        <time>2013-01-06T09:05:56Z</time>
      </trkpt>
      <trkpt lat="45.28629" lon="5.77884">
        <ele>1599</ele>
        <time>2013-01-06T09:06:01Z</time>
      </trkpt>
      <trkpt lat="45.28631" lon="5.77883">
        <ele>1600</ele>
        <time>2013-01-06T09:06:06Z</time>
      </trkpt>
      <trkpt lat="45.28631" lon="5.77884">
        <ele>1601</ele>
        <time>2013-01-06T09:06:11Z</time>
      </trkpt>
      <trkpt lat="45.28633" lon="5.77885">
        <ele>1602</ele>
        <time>2013-01-06T09:06:16Z</time>
      </trkpt>
      <trkpt lat="45.28634" lon="5.77886">
        <ele>1603</ele>
        <time>2013-01-06T09:06:21Z</time>
      </trkpt>
      <trkpt lat="45.28635" lon="5.77887">
        <ele>1604</ele>
        <time>2013-01-06T09:06:26Z</time>
      </trkpt>
      <trkpt lat="45.28637" lon="5.77888">
        <ele>1605</ele>
        <time>2013-01-06T09:06:31Z</time>
      </trkpt>
      <trkpt lat="45.28638" lon="5.77889">
        <ele>1606</ele>
        <time>2013-01-06T09:06:36Z</time>
      </trkpt>
      <trkpt lat="45.2864" lon="5.77889">
        <ele>1606</ele>
        <time>2013-01-06T09:06:41Z</time>
      </trkpt>
      <trkpt lat="45.28641" lon="5.7789">
        <ele>1607</ele>
        <time>2013-01-06T09:06:46Z</time>
      </trkpt>
      <trkpt lat="45.28643" lon="5.77891">
        <ele>1608</ele>
        <time>2013-01-06T09:06:51Z</time>
      </trkpt>
      <trkpt lat="45.28644" lon="5.77892">
        <ele>1608</ele>
        <time>2013-01-06T09:06:56Z</time>
      </trkpt>
      <trkpt lat="45.28644" lon="5.77894">
        <ele>1608</ele>
        <time>2013-01-06T09:07:01Z</time>
      </trkpt>
      <trkpt lat="45.28646" lon="5.77894">
        <ele>1608</ele>
        <time>2013-01-06T09:07:06Z</time>
      </trkpt>
      <trkpt lat="45.28648" lon="5.77895">
        <ele>1608</ele>
        <time>2013-01-06T09:07:11Z</time>
      </trkpt>
      <trkpt lat="45.28647" lon="5.77896">
        <ele>1608</ele>
        <time>2013-01-06T09:07:16Z</time>
      </trkpt>
      <trkpt lat="45.28647" lon="5.77898">
        <ele>1608</ele>
        <time>2013-01-06T09:07:21Z</time>
      </trkpt>
      <trkpt lat="45.28646" lon="5.77899">
        <ele>1608</ele>
        <time>2013-01-06T09:07:26Z</time>
      </trkpt>
      <trkpt lat="45.28645" lon="5.77899">
        <ele>1608</ele>
        <time>2013-01-06T09:07:31Z</time>
      </trkpt>
      <trkpt lat="45.28644" lon="5.77901">
        <ele>1608</ele>
        <time>2013-01-06T09:07:36Z</time>
      </trkpt>
      <trkpt lat="45.28643" lon="5.77903">
        <ele>1608</ele>
        <time>2013-01-06T09:07:41Z</time>
      </trkpt>
      <trkpt lat="45.28642" lon="5.77905">
        <ele>1608</ele>
        <time>2013-01-06T09:07:46Z</time>
      </trkpt>
      <trkpt lat="45.28641" lon="5.77908">
        <ele>1609</ele>
        <time>2013-01-06T09:07:51Z</time>
      </trkpt>
      <trkpt lat="45.2864" lon="5.77909">
        <ele>1610</ele>
        <time>2013-01-06T09:07:56Z</time>
      </trkpt>
      <trkpt lat="45.28639" lon="5.7791">
        <ele>1610</ele>
        <time>2013-01-06T09:08:01Z</time>
      </trkpt>
      <trkpt lat="45.28638" lon="5.77911">
        <ele>1610</ele>
        <time>2013-01-06T09:08:06Z</time>
      </trkpt>
      <trkpt lat="45.28637" lon="5.77914">
        <ele>1610</ele>
        <time>2013-01-06T09:08:11Z</time>
      </trkpt>
      <trkpt lat="45.28636" lon="5.77916">
        <ele>1611</ele>
        <time>2013-01-06T09:08:16Z</time>
      </trkpt>
      <trkpt lat="45.28634" lon="5.77918">
        <ele>1611</ele>
        <time>2013-01-06T09:08:21Z</time>
      </trkpt>
      <trkpt lat="45.28633" lon="5.7792">
        <ele>1612</ele>
        <time>2013-01-06T09:08:26Z</time>
      </trkpt>
      <trkpt lat="45.28631" lon="5.77923">
        <ele>1613</ele>
        <time>2013-01-06T09:08:31Z</time>
      </trkpt>
      <trkpt lat="45.2863" lon="5.77925">
        <ele>1613</ele>
        <time>2013-01-06T09:08:36Z</time>
      </trkpt>
      <trkpt lat="45.28628" lon="5.77927">
        <ele>1615</ele>
        <time>2013-01-06T09:08:41Z</time>
      </trkpt>
      <trkpt lat="45.28627" lon="5.77929">
        <ele>1615</ele>
        <time>2013-01-06T09:08:46Z</time>
      </trkpt>
      <trkpt lat="45.28625" lon="5.77932">
        <ele>1616</ele>
        <time>2013-01-06T09:08:51Z</time>
      </trkpt>
      <trkpt lat="45.28624" lon="5.77934">
        <ele>1617</ele>
        <time>2013-01-06T09:08:56Z</time>
      </trkpt>
      <trkpt lat="45.28622" lon="5.77936">
        <ele>1618</ele>
        <time>2013-01-06T09:09:01Z</time>
      </trkpt>
      <trkpt lat="45.28621" lon="5.77937">
        <ele>1618</ele>
        <time>2013-01-06T09:09:06Z</time>
      </trkpt>
      <trkpt lat="45.28619" lon="5.7794">
        <ele>1619</ele>
        <time>2013-01-06T09:09:11Z</time>
      </trkpt>
      <trkpt lat="45.28618" lon="5.77941">
        <ele>1619</ele>
        <time>2013-01-06T09:09:16Z</time>
      </trkpt>
      <trkpt lat="45.28618" lon="5.77942">
        <ele>1620</ele>
        <time>2013-01-06T09:09:21Z</time>
      </trkpt>
      <trkpt lat="45.28616" lon="5.77945">
        <ele>1621</ele>
        <time>2013-01-06T09:09:26Z</time>
      </trkpt>
      <trkpt lat="45.28614" lon="5.77947">
        <ele>1622</ele>
        <time>2013-01-06T09:09:31Z</time>
      </trkpt>
      <trkpt lat="45.28613" lon="5.77949">
        <ele>1623</ele>
        <time>2013-01-06T09:09:36Z</time>
      </trkpt>
      <trkpt lat="45.28612" lon="5.77949">
        <ele>1623</ele>
        <time>2013-01-06T09:09:41Z</time>
      </trkpt>
      <trkpt lat="45.28612" lon="5.7795">
        <ele>1624</ele>
        <time>2013-01-06T09:09:46Z</time>
      </trkpt>
      <trkpt lat="45.28611" lon="5.77951">
        <ele>1625</ele>
        <time>2013-01-06T09:09:51Z</time>
      </trkpt>
      <trkpt lat="45.2861" lon="5.77953">
        <ele>1626</ele>
        <time>2013-01-06T09:09:56Z</time>
      </trkpt>
      <trkpt lat="45.28609" lon="5.77955">
        <ele>1626</ele>
        <time>2013-01-06T09:10:01Z</time>
      </trkpt>
      <trkpt lat="45.28607" lon="5.77955">
        <ele>1627</ele>
        <time>2013-01-06T09:10:06Z</time>
      </trkpt>
      <trkpt lat="45.28605" lon="5.77956">
        <ele>1627</ele>
        <time>2013-01-06T09:10:11Z</time>
      </trkpt>
      <trkpt lat="45.28606" lon="5.77959">
        <ele>1628</ele>
        <time>2013-01-06T09:10:16Z</time>
      </trkpt>
      <trkpt lat="45.28605" lon="5.7796">
        <ele>1628</ele>
        <time>2013-01-06T09:10:21Z</time>
      </trkpt>
      <trkpt lat="45.28604" lon="5.7796">
        <ele>1629</ele>
        <time>2013-01-06T09:10:26Z</time>
      </trkpt>
      <trkpt lat="45.28602" lon="5.77961">
        <ele>1629</ele>
        <time>2013-01-06T09:10:31Z</time>
      </trkpt>
      <trkpt lat="45.286" lon="5.77961">
        <ele>1630</ele>
        <time>2013-01-06T09:10:36Z</time>
      </trkpt>
      <trkpt lat="45.28598" lon="5.77961">
        <ele>1631</ele>
        <time>2013-01-06T09:10:41Z</time>
      </trkpt>
      <trkpt lat="45.28597" lon="5.77962">
        <ele>1632</ele>
        <time>2013-01-06T09:10:46Z</time>
      </trkpt>
      <trkpt lat="45.28595" lon="5.77962">
        <ele>1632</ele>
        <time>2013-01-06T09:10:51Z</time>
      </trkpt>
      <trkpt lat="45.28593" lon="5.77962">
        <ele>1633</ele>
        <time>2013-01-06T09:10:56Z</time>
      </trkpt>
      <trkpt lat="45.28591" lon="5.77961">
        <ele>1634</ele>
        <time>2013-01-06T09:11:01Z</time>
      </trkpt>
      <trkpt lat="45.28589" lon="5.77961">
        <ele>1634</ele>
        <time>2013-01-06T09:11:06Z</time>
      </trkpt>
      <trkpt lat="45.28587" lon="5.77961">
        <ele>1635</ele>
        <time>2013-01-06T09:11:11Z</time>
      </trkpt>
      <trkpt lat="45.28587" lon="5.77962">
        <ele>1635</ele>
        <time>2013-01-06T09:11:16Z</time>
      </trkpt>
      <trkpt lat="45.28587" lon="5.77962">
        <ele>1635</ele>
        <time>2013-01-06T09:11:21Z</time>
      </trkpt>
      <trkpt lat="45.28588" lon="5.77962">
        <ele>1635</ele>
        <time>2013-01-06T09:11:26Z</time>
      </trkpt>
      <trkpt lat="45.28588" lon="5.77962">
        <ele>1635</ele>
        <time>2013-01-06T09:11:31Z</time>
      </trkpt>
      <trkpt lat="45.28588" lon="5.77962">
        <ele>1635</ele>
        <time>2013-01-06T09:11:36Z</time>
      </trkpt>
      <trkpt lat="45.28588" lon="5.77962">
        <ele>1635</ele>
        <time>2013-01-06T09:11:41Z</time>
      </trkpt>
      <trkpt lat="45.28588" lon="5.77962">
        <ele>1635</ele>
        <time>2013-01-06T09:11:46Z</time>
      </trkpt>
      <trkpt lat="45.28589" lon="5.77963">
        <ele>1635</ele>
        <time>2013-01-06T09:11:51Z</time>
      </trkpt>
      <trkpt lat="45.2859" lon="5.77966">
        <ele>1635</ele>
        <time>2013-01-06T09:11:56Z</time>
      </trkpt>
      <trkpt lat="45.28593" lon="5.77969">
        <ele>1635</ele>
        <time>2013-01-06T09:12:01Z</time>
      </trkpt>
      <trkpt lat="45.28594" lon="5.77971">
        <ele>1635</ele>
        <time>2013-01-06T09:12:06Z</time>
      </trkpt>
      <trkpt lat="45.28597" lon="5.77974">
        <ele>1636</ele>
        <time>2013-01-06T09:12:11Z</time>
      </trkpt>
      <trkpt lat="45.28599" lon="5.77976">
        <ele>1636</ele>
        <time>2013-01-06T09:12:16Z</time>
      </trkpt>
      <trkpt lat="45.28602" lon="5.77978">
        <ele>1636</ele>
        <time>2013-01-06T09:12:21Z</time>
      </trkpt>
      <trkpt lat="45.28605" lon="5.77978">
        <ele>1636</ele>
        <time>2013-01-06T09:12:26Z</time>
      </trkpt>
      <trkpt lat="45.28608" lon="5.77978">
        <ele>1637</ele>
        <time>2013-01-06T09:12:31Z</time>
      </trkpt>
      <trkpt lat="45.28611" lon="5.77978">
        <ele>1637</ele>
        <time>2013-01-06T09:12:36Z</time>
      </trkpt>
      <trkpt lat="45.28614" lon="5.77978">
        <ele>1638</ele>
        <time>2013-01-06T09:12:41Z</time>
      </trkpt>
      <trkpt lat="45.28616" lon="5.77979">
        <ele>1639</ele>
        <time>2013-01-06T09:12:46Z</time>
      </trkpt>
      <trkpt lat="45.28618" lon="5.77979">
        <ele>1640</ele>
        <time>2013-01-06T09:12:51Z</time>
      </trkpt>
      <trkpt lat="45.2862" lon="5.7798">
        <ele>1640</ele>
        <time>2013-01-06T09:12:56Z</time>
      </trkpt>
      <trkpt lat="45.28622" lon="5.77981">
        <ele>1641</ele>
        <time>2013-01-06T09:13:01Z</time>
      </trkpt>
      <trkpt lat="45.28623" lon="5.77982">
        <ele>1641</ele>
        <time>2013-01-06T09:13:06Z</time>
      </trkpt>
      <trkpt lat="45.28624" lon="5.77984">
        <ele>1642</ele>
        <time>2013-01-06T09:13:11Z</time>
      </trkpt>
      <trkpt lat="45.28626" lon="5.77984">
        <ele>1643</ele>
        <time>2013-01-06T09:13:16Z</time>
      </trkpt>
      <trkpt lat="45.28627" lon="5.77986">
        <ele>1643</ele>
        <time>2013-01-06T09:13:21Z</time>
      </trkpt>
      <trkpt lat="45.28629" lon="5.77987">
        <ele>1643</ele>
        <time>2013-01-06T09:13:26Z</time>
      </trkpt>
      <trkpt lat="45.28631" lon="5.77988">
        <ele>1644</ele>
        <time>2013-01-06T09:13:31Z</time>
      </trkpt>
      <trkpt lat="45.28632" lon="5.7799">
        <ele>1645</ele>
        <time>2013-01-06T09:13:36Z</time>
      </trkpt>
      <trkpt lat="45.28634" lon="5.77991">
        <ele>1645</ele>
        <time>2013-01-06T09:13:41Z</time>
      </trkpt>
      <trkpt lat="45.28636" lon="5.77992">
        <ele>1646</ele>
        <time>2013-01-06T09:13:46Z</time>
      </trkpt>
      <trkpt lat="45.28637" lon="5.77993">
        <ele>1646</ele>
        <time>2013-01-06T09:13:51Z</time>
      </trkpt>
      <trkpt lat="45.28639" lon="5.77994">
        <ele>1647</ele>
        <time>2013-01-06T09:13:56Z</time>
      </trkpt>
      <trkpt lat="45.28641" lon="5.77995">
        <ele>1647</ele>
        <time>2013-01-06T09:14:01Z</time>
      </trkpt>
      <trkpt lat="45.28642" lon="5.77995">
        <ele>1647</ele>
        <time>2013-01-06T09:14:06Z</time>
      </trkpt>
      <trkpt lat="45.28643" lon="5.77996">
        <ele>1648</ele>
        <time>2013-01-06T09:14:11Z</time>
      </trkpt>
      <trkpt lat="45.28644" lon="5.77997">
        <ele>1648</ele>
        <time>2013-01-06T09:14:16Z</time>
      </trkpt>
      <trkpt lat="45.28645" lon="5.77998">
        <ele>1649</ele>
        <time>2013-01-06T09:14:21Z</time>
      </trkpt>
      <trkpt lat="45.28647" lon="5.77999">
        <ele>1649</ele>
        <time>2013-01-06T09:14:26Z</time>
      </trkpt>
      <trkpt lat="45.28648" lon="5.77999">
        <ele>1650</ele>
        <time>2013-01-06T09:14:31Z</time>
      </trkpt>
      <trkpt lat="45.28649" lon="5.78">
        <ele>1650</ele>
        <time>2013-01-06T09:14:36Z</time>
      </trkpt>
      <trkpt lat="45.28649" lon="5.78">
        <ele>1650</ele>
        <time>2013-01-06T09:14:41Z</time>
      </trkpt>
      <trkpt lat="45.28649" lon="5.78">
        <ele>1650</ele>
        <time>2013-01-06T09:14:46Z</time>
      </trkpt>
      <trkpt lat="45.2865" lon="5.78">
        <ele>1651</ele>
        <time>2013-01-06T09:14:51Z</time>
      </trkpt>
      <trkpt lat="45.28652" lon="5.78001">
        <ele>1652</ele>
        <time>2013-01-06T09:14:56Z</time>
      </trkpt>
      <trkpt lat="45.28653" lon="5.78002">
        <ele>1652</ele>
        <time>2013-01-06T09:15:01Z</time>
      </trkpt>
      <trkpt lat="45.28651" lon="5.78004">
        <ele>1652</ele>
        <time>2013-01-06T09:15:06Z</time>
      </trkpt>
      <trkpt lat="45.2865" lon="5.78005">
        <ele>1653</ele>
        <time>2013-01-06T09:15:11Z</time>
      </trkpt>
      <trkpt lat="45.28649" lon="5.78006">
        <ele>1653</ele>
        <time>2013-01-06T09:15:16Z</time>
      </trkpt>
      <trkpt lat="45.28647" lon="5.78008">
        <ele>1653</ele>
        <time>2013-01-06T09:15:21Z</time>
      </trkpt>
      <trkpt lat="45.28645" lon="5.7801">
        <ele>1654</ele>
        <time>2013-01-06T09:15:26Z</time>
      </trkpt>
      <trkpt lat="45.28644" lon="5.78012">
        <ele>1655</ele>
        <time>2013-01-06T09:15:31Z</time>
      </trkpt>
      <trkpt lat="45.28643" lon="5.78014">
        <ele>1656</ele>
        <time>2013-01-06T09:15:36Z</time>
      </trkpt>
      <trkpt lat="45.28643" lon="5.78015">
        <ele>1656</ele>
        <time>2013-01-06T09:15:41Z</time>
      </trkpt>
      <trkpt lat="45.28642" lon="5.78017">
        <ele>1657</ele>
        <time>2013-01-06T09:15:46Z</time>
      </trkpt>
      <trkpt lat="45.2864" lon="5.78019">
        <ele>1658</ele>
        <time>2013-01-06T09:15:51Z</time>
      </trkpt>
      <trkpt lat="45.28639" lon="5.7802">
        <ele>1658</ele>
        <time>2013-01-06T09:15:56Z</time>
      </trkpt>
      <trkpt lat="45.28638" lon="5.78022">
        <ele>1659</ele>
        <time>2013-01-06T09:16:01Z</time>
      </trkpt>
      <trkpt lat="45.28636" lon="5.78024">
        <ele>1659</ele>
        <time>2013-01-06T09:16:06Z</time>
      </trkpt>
      <trkpt lat="45.28634" lon="5.78026">
        <ele>1660</ele>
        <time>2013-01-06T09:16:11Z</time>
      </trkpt>
      <trkpt lat="45.28634" lon="5.78026">
        <ele>1660</ele>
        <time>2013-01-06T09:16:16Z</time>
      </trkpt>
      <trkpt lat="45.28633" lon="5.78028">
        <ele>1660</ele>
        <time>2013-01-06T09:16:21Z</time>
      </trkpt>
      <trkpt lat="45.28634" lon="5.78029">
        <ele>1661</ele>
        <time>2013-01-06T09:16:26Z</time>
      </trkpt>
      <trkpt lat="45.28635" lon="5.7803">
        <ele>1661</ele>
        <time>2013-01-06T09:16:31Z</time>
      </trkpt>
      <trkpt lat="45.28637" lon="5.78031">
        <ele>1661</ele>
        <time>2013-01-06T09:16:36Z</time>
      </trkpt>
      <trkpt lat="45.28639" lon="5.78031">
        <ele>1662</ele>
        <time>2013-01-06T09:16:41Z</time>
      </trkpt>
      <trkpt lat="45.2864" lon="5.78033">
        <ele>1662</ele>
        <time>2013-01-06T09:16:46Z</time>
      </trkpt>
      <trkpt lat="45.28642" lon="5.78034">
        <ele>1663</ele>
        <time>2013-01-06T09:16:51Z</time>
      </trkpt>
      <trkpt lat="45.28642" lon="5.78034">
        <ele>1663</ele>
        <time>2013-01-06T09:16:56Z</time>
      </trkpt>
      <trkpt lat="45.28643" lon="5.78034">
        <ele>1664</ele>
        <time>2013-01-06T09:17:01Z</time>
      </trkpt>
      <trkpt lat="45.28644" lon="5.78034">
        <ele>1664</ele>
        <time>2013-01-06T09:17:06Z</time>
      </trkpt>
      <trkpt lat="45.28645" lon="5.78034">
        <ele>1664</ele>
        <time>2013-01-06T09:17:11Z</time>
      </trkpt>
      <trkpt lat="45.28647" lon="5.78035">
        <ele>1665</ele>
        <time>2013-01-06T09:17:16Z</time>
      </trkpt>
      <trkpt lat="45.28648" lon="5.78036">
        <ele>1666</ele>
        <time>2013-01-06T09:17:21Z</time>
      </trkpt>
      <trkpt lat="45.2865" lon="5.78036">
        <ele>1667</ele>
        <time>2013-01-06T09:17:26Z</time>
      </trkpt>
      <trkpt lat="45.28652" lon="5.78037">
        <ele>1667</ele>
        <time>2013-01-06T09:17:31Z</time>
      </trkpt>
      <trkpt lat="45.28653" lon="5.78037">
        <ele>1668</ele>
        <time>2013-01-06T09:17:36Z</time>
      </trkpt>
      <trkpt lat="45.28656" lon="5.78037">
        <ele>1669</ele>
        <time>2013-01-06T09:17:41Z</time>
      </trkpt>
      <trkpt lat="45.28657" lon="5.78038">
        <ele>1669</ele>
        <time>2013-01-06T09:17:46Z</time>
      </trkpt>
      <trkpt lat="45.28659" lon="5.78038">
        <ele>1670</ele>
        <time>2013-01-06T09:17:51Z</time>
      </trkpt>
      <trkpt lat="45.2866" lon="5.78039">
        <ele>1670</ele>
        <time>2013-01-06T09:17:56Z</time>
      </trkpt>
      <trkpt lat="45.28662" lon="5.78039">
        <ele>1670</ele>
        <time>2013-01-06T09:18:01Z</time>
      </trkpt>
      <trkpt lat="45.28664" lon="5.78039">
        <ele>1671</ele>
        <time>2013-01-06T09:18:06Z</time>
      </trkpt>
      <trkpt lat="45.28666" lon="5.7804">
        <ele>1671</ele>
        <time>2013-01-06T09:18:11Z</time>
      </trkpt>
      <trkpt lat="45.28667" lon="5.7804">
        <ele>1672</ele>
        <time>2013-01-06T09:18:16Z</time>
      </trkpt>
      <trkpt lat="45.28668" lon="5.7804">
        <ele>1672</ele>
        <time>2013-01-06T09:18:21Z</time>
      </trkpt>
      <trkpt lat="45.2867" lon="5.7804">
        <ele>1673</ele>
        <time>2013-01-06T09:18:26Z</time>
      </trkpt>
      <trkpt lat="45.28672" lon="5.7804">
        <ele>1673</ele>
        <time>2013-01-06T09:18:31Z</time>
      </trkpt>
      <trkpt lat="45.28674" lon="5.7804">
        <ele>1674</ele>
        <time>2013-01-06T09:18:36Z</time>
      </trkpt>
      <trkpt lat="45.28676" lon="5.78041">
        <ele>1674</ele>
        <time>2013-01-06T09:18:41Z</time>
      </trkpt>
      <trkpt lat="45.28677" lon="5.78041">
        <ele>1674</ele>
        <time>2013-01-06T09:18:46Z</time>
      </trkpt>
      <trkpt lat="45.28679" lon="5.78042">
        <ele>1675</ele>
        <time>2013-01-06T09:18:51Z</time>
      </trkpt>
      <trkpt lat="45.28681" lon="5.78042">
        <ele>1675</ele>
        <time>2013-01-06T09:18:56Z</time>
      </trkpt>
      <trkpt lat="45.28682" lon="5.78042">
        <ele>1675</ele>
        <time>2013-01-06T09:19:01Z</time>
      </trkpt>
      <trkpt lat="45.28684" lon="5.78043">
        <ele>1676</ele>
        <time>2013-01-06T09:19:06Z</time>
      </trkpt>
      <trkpt lat="45.28685" lon="5.78043">
        <ele>1677</ele>
        <time>2013-01-06T09:19:11Z</time>
      </trkpt>
      <trkpt lat="45.28687" lon="5.78043">
        <ele>1677</ele>
        <time>2013-01-06T09:19:16Z</time>
      </trkpt>
      <trkpt lat="45.28689" lon="5.78043">
        <ele>1678</ele>
        <time>2013-01-06T09:19:21Z</time>
      </trkpt>
      <trkpt lat="45.2869" lon="5.78042">
        <ele>1678</ele>
        <time>2013-01-06T09:19:26Z</time>
      </trkpt>
      <trkpt lat="45.28692" lon="5.78041">
        <ele>1679</ele>
        <time>2013-01-06T09:19:31Z</time>
      </trkpt>
      <trkpt lat="45.28693" lon="5.78042">
        <ele>1680</ele>
        <time>2013-01-06T09:19:36Z</time>
      </trkpt>
      <trkpt lat="45.28695" lon="5.78041">
        <ele>1680</ele>
        <time>2013-01-06T09:19:41Z</time>
      </trkpt>
      <trkpt lat="45.28697" lon="5.7804">
        <ele>1681</ele>
        <time>2013-01-06T09:19:46Z</time>
      </trkpt>
      <trkpt lat="45.28699" lon="5.78041">
        <ele>1681</ele>
        <time>2013-01-06T09:19:51Z</time>
      </trkpt>
      <trkpt lat="45.28701" lon="5.78041">
        <ele>1682</ele>
        <time>2013-01-06T09:19:56Z</time>
      </trkpt>
      <trkpt lat="45.28703" lon="5.78041">
        <ele>1682</ele>
        <time>2013-01-06T09:20:01Z</time>
      </trkpt>
      <trkpt lat="45.28703" lon="5.78041">
        <ele>1682</ele>
        <time>2013-01-06T09:20:06Z</time>
      </trkpt>
      <trkpt lat="45.28705" lon="5.78042">
        <ele>1683</ele>
        <time>2013-01-06T09:20:11Z</time>
      </trkpt>
      <trkpt lat="45.28707" lon="5.78042">
        <ele>1684</ele>
        <time>2013-01-06T09:20:16Z</time>
      </trkpt>
      <trkpt lat="45.28709" lon="5.78043">
        <ele>1684</ele>
        <time>2013-01-06T09:20:21Z</time>
      </trkpt>
      <trkpt lat="45.28711" lon="5.78044">
        <ele>1685</ele>
        <time>2013-01-06T09:20:26Z</time>
      </trkpt>
      <trkpt lat="45.28712" lon="5.78046">
        <ele>1685</ele>
        <time>2013-01-06T09:20:31Z</time>
      </trkpt>
      <trkpt lat="45.28713" lon="5.78046">
        <ele>1686</ele>
        <time>2013-01-06T09:20:36Z</time>
      </trkpt>
      <trkpt lat="45.28715" lon="5.78048">
        <ele>1686</ele>
        <time>2013-01-06T09:20:41Z</time>
      </trkpt>
      <trkpt lat="45.28717" lon="5.78049">
        <ele>1686</ele>
        <time>2013-01-06T09:20:46Z</time>
      </trkpt>
      <trkpt lat="45.28718" lon="5.78051">
        <ele>1687</ele>
        <time>2013-01-06T09:20:51Z</time>
      </trkpt>
      <trkpt lat="45.2872" lon="5.78052">
        <ele>1688</ele>
        <time>2013-01-06T09:20:56Z</time>
      </trkpt>
      <trkpt lat="45.28721" lon="5.78054">
        <ele>1688</ele>
        <time>2013-01-06T09:21:01Z</time>
      </trkpt>
      <trkpt lat="45.28722" lon="5.78056">
        <ele>1689</ele>
        <time>2013-01-06T09:21:06Z</time>
      </trkpt>
      <trkpt lat="45.28725" lon="5.78057">
        <ele>1689</ele>
        <time>2013-01-06T09:21:11Z</time>
      </trkpt>
      <trkpt lat="45.28726" lon="5.78058">
        <ele>1689</ele>
        <time>2013-01-06T09:21:16Z</time>
      </trkpt>
      <trkpt lat="45.28727" lon="5.7806">
        <ele>1690</ele>
        <time>2013-01-06T09:21:21Z</time>
      </trkpt>
      <trkpt lat="45.28729" lon="5.78062">
        <ele>1691</ele>
        <time>2013-01-06T09:21:26Z</time>
      </trkpt>
      <trkpt lat="45.2873" lon="5.78063">
        <ele>1691</ele>
        <time>2013-01-06T09:21:31Z</time>
      </trkpt>
      <trkpt lat="45.28732" lon="5.78065">
        <ele>1692</ele>
        <time>2013-01-06T09:21:36Z</time>
      </trkpt>
      <trkpt lat="45.28733" lon="5.78067">
        <ele>1693</ele>
        <time>2013-01-06T09:21:41Z</time>
      </trkpt>
      <trkpt lat="45.28735" lon="5.78068">
        <ele>1693</ele>
        <time>2013-01-06T09:21:46Z</time>
      </trkpt>
      <trkpt lat="45.28735" lon="5.78069">
        <ele>1694</ele>
        <time>2013-01-06T09:21:51Z</time>
      </trkpt>
      <trkpt lat="45.28732" lon="5.78069">
        <ele>1694</ele>
        <time>2013-01-06T09:21:56Z</time>
      </trkpt>
      <trkpt lat="45.2873" lon="5.78069">
        <ele>1694</ele>
        <time>2013-01-06T09:22:01Z</time>
      </trkpt>
      <trkpt lat="45.2873" lon="5.78069">
        <ele>1694</ele>
        <time>2013-01-06T09:22:06Z</time>
      </trkpt>
      <trkpt lat="45.2873" lon="5.7807">
        <ele>1694</ele>
        <time>2013-01-06T09:22:11Z</time>
      </trkpt>
      <trkpt lat="45.28729" lon="5.78071">
        <ele>1691</ele>
        <time>2013-01-06T09:24:01Z</time>
      </trkpt>
      <trkpt lat="45.28729" lon="5.78071">
        <ele>1691</ele>
        <time>2013-01-06T09:24:06Z</time>
      </trkpt>
      <trkpt lat="45.28729" lon="5.78071">
        <ele>1691</ele>
        <time>2013-01-06T09:24:11Z</time>
      </trkpt>
      <trkpt lat="45.28729" lon="5.78071">
        <ele>1691</ele>
        <time>2013-01-06T09:24:16Z</time>
      </trkpt>
      <trkpt lat="45.28726" lon="5.78072">
        <ele>1692</ele>
        <time>2013-01-06T09:24:21Z</time>
      </trkpt>
      <trkpt lat="45.28724" lon="5.78073">
        <ele>1693</ele>
        <time>2013-01-06T09:24:26Z</time>
      </trkpt>
      <trkpt lat="45.28722" lon="5.78075">
        <ele>1694</ele>
        <time>2013-01-06T09:24:31Z</time>
      </trkpt>
      <trkpt lat="45.28719" lon="5.78077">
        <ele>1694</ele>
        <time>2013-01-06T09:24:36Z</time>
      </trkpt>
      <trkpt lat="45.28717" lon="5.78078">
        <ele>1695</ele>
        <time>2013-01-06T09:24:41Z</time>
      </trkpt>
      <trkpt lat="45.28715" lon="5.7808">
        <ele>1696</ele>
        <time>2013-01-06T09:24:46Z</time>
      </trkpt>
      <trkpt lat="45.28712" lon="5.78082">
        <ele>1696</ele>
        <time>2013-01-06T09:24:51Z</time>
      </trkpt>
      <trkpt lat="45.2871" lon="5.78082">
        <ele>1697</ele>
        <time>2013-01-06T09:24:56Z</time>
      </trkpt>
      <trkpt lat="45.28708" lon="5.78084">
        <ele>1697</ele>
        <time>2013-01-06T09:25:01Z</time>
      </trkpt>
      <trkpt lat="45.28705" lon="5.78085">
        <ele>1698</ele>
        <time>2013-01-06T09:25:06Z</time>
      </trkpt>
      <trkpt lat="45.28703" lon="5.78087">
        <ele>1698</ele>
        <time>2013-01-06T09:25:11Z</time>
      </trkpt>
      <trkpt lat="45.28702" lon="5.78089">
        <ele>1699</ele>
        <time>2013-01-06T09:25:16Z</time>
      </trkpt>
      <trkpt lat="45.287" lon="5.78091">
        <ele>1699</ele>
        <time>2013-01-06T09:25:21Z</time>
      </trkpt>
      <trkpt lat="45.28699" lon="5.78093">
        <ele>1700</ele>
        <time>2013-01-06T09:25:26Z</time>
      </trkpt>
      <trkpt lat="45.28698" lon="5.78095">
        <ele>1700</ele>
        <time>2013-01-06T09:25:31Z</time>
      </trkpt>
      <trkpt lat="45.28698" lon="5.78094">
        <ele>1700</ele>
        <time>2013-01-06T09:25:36Z</time>
      </trkpt>
      <trkpt lat="45.28699" lon="5.78094">
        <ele>1699</ele>
        <time>2013-01-06T09:25:41Z</time>
      </trkpt>
      <trkpt lat="45.28699" lon="5.78095">
        <ele>1699</ele>
        <time>2013-01-06T09:25:46Z</time>
      </trkpt>
      <trkpt lat="45.28698" lon="5.78097">
        <ele>1700</ele>
        <time>2013-01-06T09:25:51Z</time>
      </trkpt>
      <trkpt lat="45.28697" lon="5.78099">
        <ele>1700</ele>
        <time>2013-01-06T09:25:56Z</time>
      </trkpt>
      <trkpt lat="45.28696" lon="5.78102">
        <ele>1701</ele>
        <time>2013-01-06T09:26:01Z</time>
      </trkpt>
      <trkpt lat="45.28695" lon="5.78105">
        <ele>1702</ele>
        <time>2013-01-06T09:26:06Z</time>
      </trkpt>
      <trkpt lat="45.28693" lon="5.78107">
        <ele>1702</ele>
        <time>2013-01-06T09:26:11Z</time>
      </trkpt>
      <trkpt lat="45.28693" lon="5.7811">
        <ele>1703</ele>
        <time>2013-01-06T09:26:16Z</time>
      </trkpt>
      <trkpt lat="45.28691" lon="5.78112">
        <ele>1703</ele>
        <time>2013-01-06T09:26:21Z</time>
      </trkpt>
      <trkpt lat="45.28691" lon="5.78112">
        <ele>1703</ele>
        <time>2013-01-06T09:26:26Z</time>
      </trkpt>
      <trkpt lat="45.2869" lon="5.78113">
        <ele>1703</ele>
        <time>2013-01-06T09:26:31Z</time>
      </trkpt>
      <trkpt lat="45.28689" lon="5.78115">
        <ele>1704</ele>
        <time>2013-01-06T09:26:36Z</time>
      </trkpt>
      <trkpt lat="45.28689" lon="5.78117">
        <ele>1704</ele>
        <time>2013-01-06T09:26:41Z</time>
      </trkpt>
      <trkpt lat="45.28687" lon="5.78118">
        <ele>1705</ele>
        <time>2013-01-06T09:26:46Z</time>
      </trkpt>
      <trkpt lat="45.28686" lon="5.7812">
        <ele>1705</ele>
        <time>2013-01-06T09:26:51Z</time>
      </trkpt>
      <trkpt lat="45.28685" lon="5.78121">
        <ele>1705</ele>
        <time>2013-01-06T09:26:56Z</time>
      </trkpt>
      <trkpt lat="45.28684" lon="5.78123">
        <ele>1705</ele>
        <time>2013-01-06T09:27:01Z</time>
      </trkpt>
      <trkpt lat="45.28683" lon="5.78125">
        <ele>1705</ele>
        <time>2013-01-06T09:27:06Z</time>
      </trkpt>
      <trkpt lat="45.28682" lon="5.78127">
        <ele>1705</ele>
        <time>2013-01-06T09:27:11Z</time>
      </trkpt>
      <trkpt lat="45.2868" lon="5.78129">
        <ele>1706</ele>
        <time>2013-01-06T09:27:16Z</time>
      </trkpt>
      <trkpt lat="45.28678" lon="5.7813">
        <ele>1706</ele>
        <time>2013-01-06T09:27:21Z</time>
      </trkpt>
      <trkpt lat="45.28676" lon="5.78132">
        <ele>1707</ele>
        <time>2013-01-06T09:27:26Z</time>
      </trkpt>
      <trkpt lat="45.28676" lon="5.78133">
        <ele>1707</ele>
        <time>2013-01-06T09:27:31Z</time>
      </trkpt>
      <trkpt lat="45.28674" lon="5.78135">
        <ele>1708</ele>
        <time>2013-01-06T09:27:36Z</time>
      </trkpt>
      <trkpt lat="45.28673" lon="5.78137">
        <ele>1709</ele>
        <time>2013-01-06T09:27:41Z</time>
      </trkpt>
      <trkpt lat="45.28672" lon="5.78139">
        <ele>1709</ele>
        <time>2013-01-06T09:27:46Z</time>
      </trkpt>
      <trkpt lat="45.2867" lon="5.7814">
        <ele>1709</ele>
        <time>2013-01-06T09:27:51Z</time>
      </trkpt>
      <trkpt lat="45.28669" lon="5.78141">
        <ele>1709</ele>
        <time>2013-01-06T09:27:56Z</time>
      </trkpt>
      <trkpt lat="45.28668" lon="5.78143">
        <ele>1710</ele>
        <time>2013-01-06T09:28:01Z</time>
      </trkpt>
      <trkpt lat="45.28666" lon="5.78144">
        <ele>1710</ele>
        <time>2013-01-06T09:28:06Z</time>
      </trkpt>
      <trkpt lat="45.28664" lon="5.78145">
        <ele>1711</ele>
        <time>2013-01-06T09:28:11Z</time>
      </trkpt>
      <trkpt lat="45.28662" lon="5.78146">
        <ele>1712</ele>
        <time>2013-01-06T09:28:16Z</time>
      </trkpt>
      <trkpt lat="45.28661" lon="5.78147">
        <ele>1713</ele>
        <time>2013-01-06T09:28:21Z</time>
      </trkpt>
      <trkpt lat="45.28659" lon="5.78148">
        <ele>1713</ele>
        <time>2013-01-06T09:28:26Z</time>
      </trkpt>
      <trkpt lat="45.28658" lon="5.78149">
        <ele>1714</ele>
        <time>2013-01-06T09:28:31Z</time>
      </trkpt>
      <trkpt lat="45.28656" lon="5.7815">
        <ele>1714</ele>
        <time>2013-01-06T09:28:36Z</time>
      </trkpt>
      <trkpt lat="45.28655" lon="5.78151">
        <ele>1715</ele>
        <time>2013-01-06T09:28:41Z</time>
      </trkpt>
      <trkpt lat="45.28653" lon="5.78152">
        <ele>1716</ele>
        <time>2013-01-06T09:28:46Z</time>
      </trkpt>
      <trkpt lat="45.28652" lon="5.78153">
        <ele>1716</ele>
        <time>2013-01-06T09:28:51Z</time>
      </trkpt>
      <trkpt lat="45.28651" lon="5.78154">
        <ele>1716</ele>
        <time>2013-01-06T09:28:56Z</time>
      </trkpt>
      <trkpt lat="45.2865" lon="5.78155">
        <ele>1716</ele>
        <time>2013-01-06T09:29:01Z</time>
      </trkpt>
      <trkpt lat="45.28648" lon="5.78156">
        <ele>1717</ele>
        <time>2013-01-06T09:29:06Z</time>
      </trkpt>
      <trkpt lat="45.28646" lon="5.78157">
        <ele>1718</ele>
        <time>2013-01-06T09:29:11Z</time>
      </trkpt>
      <trkpt lat="45.28644" lon="5.78158">
        <ele>1718</ele>
        <time>2013-01-06T09:29:16Z</time>
      </trkpt>
      <trkpt lat="45.28643" lon="5.78159">
        <ele>1719</ele>
        <time>2013-01-06T09:29:21Z</time>
      </trkpt>
      <trkpt lat="45.28643" lon="5.78158">
        <ele>1718</ele>
        <time>2013-01-06T09:29:26Z</time>
      </trkpt>
      <trkpt lat="45.28644" lon="5.78158">
        <ele>1717</ele>
        <time>2013-01-06T09:29:31Z</time>
      </trkpt>
      <trkpt lat="45.28644" lon="5.78158">
        <ele>1717</ele>
        <time>2013-01-06T09:29:36Z</time>
      </trkpt>
      <trkpt lat="45.28645" lon="5.78158">
        <ele>1716</ele>
        <time>2013-01-06T09:29:41Z</time>
      </trkpt>
      <trkpt lat="45.28647" lon="5.78159">
        <ele>1716</ele>
        <time>2013-01-06T09:29:46Z</time>
      </trkpt>
      <trkpt lat="45.28649" lon="5.7816">
        <ele>1717</ele>
        <time>2013-01-06T09:29:51Z</time>
      </trkpt>
      <trkpt lat="45.2865" lon="5.78161">
        <ele>1717</ele>
        <time>2013-01-06T09:29:56Z</time>
      </trkpt>
      <trkpt lat="45.28652" lon="5.78162">
        <ele>1718</ele>
        <time>2013-01-06T09:30:01Z</time>
      </trkpt>
      <trkpt lat="45.28653" lon="5.78163">
        <ele>1718</ele>
        <time>2013-01-06T09:30:06Z</time>
      </trkpt>
      <trkpt lat="45.28655" lon="5.78164">
        <ele>1719</ele>
        <time>2013-01-06T09:30:11Z</time>
      </trkpt>
      <trkpt lat="45.28657" lon="5.78165">
        <ele>1719</ele>
        <time>2013-01-06T09:30:16Z</time>
      </trkpt>
      <trkpt lat="45.28657" lon="5.78165">
        <ele>1719</ele>
        <time>2013-01-06T09:30:21Z</time>
      </trkpt>
      <trkpt lat="45.2866" lon="5.78166">
        <ele>1720</ele>
        <time>2013-01-06T09:30:26Z</time>
      </trkpt>
      <trkpt lat="45.28661" lon="5.78167">
        <ele>1720</ele>
        <time>2013-01-06T09:30:31Z</time>
      </trkpt>
      <trkpt lat="45.28663" lon="5.78168">
        <ele>1721</ele>
        <time>2013-01-06T09:30:36Z</time>
      </trkpt>
      <trkpt lat="45.28665" lon="5.78169">
        <ele>1721</ele>
        <time>2013-01-06T09:30:41Z</time>
      </trkpt>
      <trkpt lat="45.28668" lon="5.7817">
        <ele>1722</ele>
        <time>2013-01-06T09:30:46Z</time>
      </trkpt>
      <trkpt lat="45.2867" lon="5.78171">
        <ele>1722</ele>
        <time>2013-01-06T09:30:51Z</time>
      </trkpt>
      <trkpt lat="45.28671" lon="5.78172">
        <ele>1723</ele>
        <time>2013-01-06T09:30:56Z</time>
      </trkpt>
      <trkpt lat="45.28673" lon="5.78173">
        <ele>1724</ele>
        <time>2013-01-06T09:31:01Z</time>
      </trkpt>
      <trkpt lat="45.28676" lon="5.78173">
        <ele>1724</ele>
        <time>2013-01-06T09:31:06Z</time>
      </trkpt>
      <trkpt lat="45.28677" lon="5.78174">
        <ele>1725</ele>
        <time>2013-01-06T09:31:11Z</time>
      </trkpt>
      <trkpt lat="45.28679" lon="5.78174">
        <ele>1725</ele>
        <time>2013-01-06T09:31:16Z</time>
      </trkpt>
      <trkpt lat="45.28679" lon="5.78174">
        <ele>1726</ele>
        <time>2013-01-06T09:31:21Z</time>
      </trkpt>
      <trkpt lat="45.28679" lon="5.78174">
        <ele>1726</ele>
        <time>2013-01-06T09:31:26Z</time>
      </trkpt>
      <trkpt lat="45.28679" lon="5.78174">
        <ele>1726</ele>
        <time>2013-01-06T09:31:31Z</time>
      </trkpt>
      <trkpt lat="45.28679" lon="5.78174">
        <ele>1726</ele>
        <time>2013-01-06T09:31:36Z</time>
      </trkpt>
      <trkpt lat="45.28678" lon="5.78174">
        <ele>1726</ele>
        <time>2013-01-06T09:31:41Z</time>
      </trkpt>
      <trkpt lat="45.28678" lon="5.78174">
        <ele>1726</ele>
        <time>2013-01-06T09:31:46Z</time>
      </trkpt>
      <trkpt lat="45.28678" lon="5.78174">
        <ele>1727</ele>
        <time>2013-01-06T09:31:51Z</time>
      </trkpt>
      <trkpt lat="45.28678" lon="5.78174">
        <ele>1727</ele>
        <time>2013-01-06T09:31:56Z</time>
      </trkpt>
      <trkpt lat="45.28678" lon="5.78174">
        <ele>1727</ele>
        <time>2013-01-06T09:32:01Z</time>
      </trkpt>
      <trkpt lat="45.28678" lon="5.78174">
        <ele>1726</ele>
        <time>2013-01-06T09:32:06Z</time>
      </trkpt>
      <trkpt lat="45.28679" lon="5.78175">
        <ele>1727</ele>
        <time>2013-01-06T09:32:11Z</time>
      </trkpt>
      <trkpt lat="45.28682" lon="5.78175">
        <ele>1728</ele>
        <time>2013-01-06T09:32:16Z</time>
      </trkpt>
      <trkpt lat="45.28685" lon="5.78176">
        <ele>1728</ele>
        <time>2013-01-06T09:32:21Z</time>
      </trkpt>
      <trkpt lat="45.28687" lon="5.78176">
        <ele>1729</ele>
        <time>2013-01-06T09:32:26Z</time>
      </trkpt>
      <trkpt lat="45.28689" lon="5.78176">
        <ele>1729</ele>
        <time>2013-01-06T09:32:31Z</time>
      </trkpt>
      <trkpt lat="45.2869" lon="5.78177">
        <ele>1730</ele>
        <time>2013-01-06T09:32:36Z</time>
      </trkpt>
      <trkpt lat="45.28693" lon="5.78177">
        <ele>1730</ele>
        <time>2013-01-06T09:32:41Z</time>
      </trkpt>
      <trkpt lat="45.28695" lon="5.78178">
        <ele>1731</ele>
        <time>2013-01-06T09:32:46Z</time>
      </trkpt>
      <trkpt lat="45.28697" lon="5.78178">
        <ele>1731</ele>
        <time>2013-01-06T09:32:51Z</time>
      </trkpt>
      <trkpt lat="45.28699" lon="5.78178">
        <ele>1732</ele>
        <time>2013-01-06T09:32:56Z</time>
      </trkpt>
      <trkpt lat="45.28701" lon="5.78179">
        <ele>1732</ele>
        <time>2013-01-06T09:33:01Z</time>
      </trkpt>
      <trkpt lat="45.28702" lon="5.78179">
        <ele>1733</ele>
        <time>2013-01-06T09:33:06Z</time>
      </trkpt>
      <trkpt lat="45.28704" lon="5.78179">
        <ele>1733</ele>
        <time>2013-01-06T09:33:11Z</time>
      </trkpt>
      <trkpt lat="45.28703" lon="5.78181">
        <ele>1734</ele>
        <time>2013-01-06T09:33:16Z</time>
      </trkpt>
      <trkpt lat="45.28701" lon="5.78183">
        <ele>1734</ele>
        <time>2013-01-06T09:33:21Z</time>
      </trkpt>
      <trkpt lat="45.28699" lon="5.78185">
        <ele>1734</ele>
        <time>2013-01-06T09:33:26Z</time>
      </trkpt>
      <trkpt lat="45.28698" lon="5.78187">
        <ele>1734</ele>
        <time>2013-01-06T09:33:31Z</time>
      </trkpt>
      <trkpt lat="45.28697" lon="5.78189">
        <ele>1735</ele>
        <time>2013-01-06T09:33:36Z</time>
      </trkpt>
      <trkpt lat="45.28696" lon="5.7819">
        <ele>1735</ele>
        <time>2013-01-06T09:33:41Z</time>
      </trkpt>
      <trkpt lat="45.28695" lon="5.78192">
        <ele>1735</ele>
        <time>2013-01-06T09:33:46Z</time>
      </trkpt>
      <trkpt lat="45.28693" lon="5.78194">
        <ele>1735</ele>
        <time>2013-01-06T09:33:51Z</time>
      </trkpt>
      <trkpt lat="45.28692" lon="5.78196">
        <ele>1735</ele>
        <time>2013-01-06T09:33:56Z</time>
      </trkpt>
      <trkpt lat="45.28691" lon="5.78198">
        <ele>1736</ele>
        <time>2013-01-06T09:34:01Z</time>
      </trkpt>
      <trkpt lat="45.2869" lon="5.782">
        <ele>1736</ele>
        <time>2013-01-06T09:34:06Z</time>
      </trkpt>
      <trkpt lat="45.28689" lon="5.78202">
        <ele>1737</ele>
        <time>2013-01-06T09:34:11Z</time>
      </trkpt>
      <trkpt lat="45.28687" lon="5.78203">
        <ele>1737</ele>
        <time>2013-01-06T09:34:16Z</time>
      </trkpt>
      <trkpt lat="45.28686" lon="5.78205">
        <ele>1738</ele>
        <time>2013-01-06T09:34:21Z</time>
      </trkpt>
      <trkpt lat="45.28685" lon="5.78206">
        <ele>1738</ele>
        <time>2013-01-06T09:34:26Z</time>
      </trkpt>
      <trkpt lat="45.28684" lon="5.78207">
        <ele>1739</ele>
        <time>2013-01-06T09:34:31Z</time>
      </trkpt>
      <trkpt lat="45.28683" lon="5.78209">
        <ele>1739</ele>
        <time>2013-01-06T09:34:36Z</time>
      </trkpt>
      <trkpt lat="45.28681" lon="5.7821">
        <ele>1740</ele>
        <time>2013-01-06T09:34:41Z</time>
      </trkpt>
      <trkpt lat="45.28679" lon="5.78212">
        <ele>1740</ele>
        <time>2013-01-06T09:34:46Z</time>
      </trkpt>
      <trkpt lat="45.28677" lon="5.78214">
        <ele>1741</ele>
        <time>2013-01-06T09:34:51Z</time>
      </trkpt>
      <trkpt lat="45.28676" lon="5.78216">
        <ele>1741</ele>
        <time>2013-01-06T09:34:56Z</time>
      </trkpt>
      <trkpt lat="45.28674" lon="5.78217">
        <ele>1742</ele>
        <time>2013-01-06T09:35:01Z</time>
      </trkpt>
      <trkpt lat="45.28673" lon="5.78218">
        <ele>1743</ele>
        <time>2013-01-06T09:35:06Z</time>
      </trkpt>
      <trkpt lat="45.28672" lon="5.78219">
        <ele>1744</ele>
        <time>2013-01-06T09:35:11Z</time>
      </trkpt>
      <trkpt lat="45.2867" lon="5.7822">
        <ele>1744</ele>
        <time>2013-01-06T09:35:16Z</time>
      </trkpt>
      <trkpt lat="45.28668" lon="5.78221">
        <ele>1746</ele>
        <time>2013-01-06T09:35:21Z</time>
      </trkpt>
      <trkpt lat="45.28666" lon="5.78221">
        <ele>1747</ele>
        <time>2013-01-06T09:35:26Z</time>
      </trkpt>
      <trkpt lat="45.28664" lon="5.78222">
        <ele>1748</ele>
        <time>2013-01-06T09:35:31Z</time>
      </trkpt>
      <trkpt lat="45.28663" lon="5.78222">
        <ele>1748</ele>
        <time>2013-01-06T09:35:36Z</time>
      </trkpt>
      <trkpt lat="45.28661" lon="5.78223">
        <ele>1749</ele>
        <time>2013-01-06T09:35:41Z</time>
      </trkpt>
      <trkpt lat="45.28658" lon="5.78224">
        <ele>1749</ele>
        <time>2013-01-06T09:35:46Z</time>
      </trkpt>
      <trkpt lat="45.28657" lon="5.78225">
        <ele>1749</ele>
        <time>2013-01-06T09:35:51Z</time>
      </trkpt>
      <trkpt lat="45.28656" lon="5.78226">
        <ele>1749</ele>
        <time>2013-01-06T09:35:56Z</time>
      </trkpt>
      <trkpt lat="45.28654" lon="5.78226">
        <ele>1749</ele>
        <time>2013-01-06T09:36:01Z</time>
      </trkpt>
      <trkpt lat="45.28652" lon="5.78225">
        <ele>1750</ele>
        <time>2013-01-06T09:36:06Z</time>
      </trkpt>
      <trkpt lat="45.28649" lon="5.78224">
        <ele>1752</ele>
        <time>2013-01-06T09:36:11Z</time>
      </trkpt>
      <trkpt lat="45.28647" lon="5.78223">
        <ele>1753</ele>
        <time>2013-01-06T09:36:16Z</time>
      </trkpt>
      <trkpt lat="45.28644" lon="5.78223">
        <ele>1753</ele>
        <time>2013-01-06T09:36:21Z</time>
      </trkpt>
      <trkpt lat="45.28642" lon="5.78222">
        <ele>1753</ele>
        <time>2013-01-06T09:36:26Z</time>
      </trkpt>
      <trkpt lat="45.28639" lon="5.78221">
        <ele>1753</ele>
        <time>2013-01-06T09:36:31Z</time>
      </trkpt>
      <trkpt lat="45.28636" lon="5.78218">
        <ele>1755</ele>
        <time>2013-01-06T09:36:36Z</time>
      </trkpt>
      <trkpt lat="45.28634" lon="5.78216">
        <ele>1756</ele>
        <time>2013-01-06T09:36:41Z</time>
      </trkpt>
      <trkpt lat="45.28631" lon="5.78214">
        <ele>1757</ele>
        <time>2013-01-06T09:36:46Z</time>
      </trkpt>
      <trkpt lat="45.28628" lon="5.78211">
        <ele>1758</ele>
        <time>2013-01-06T09:36:51Z</time>
      </trkpt>
      <trkpt lat="45.28625" lon="5.78208">
        <ele>1759</ele>
        <time>2013-01-06T09:36:56Z</time>
      </trkpt>
      <trkpt lat="45.28623" lon="5.78206">
        <ele>1759</ele>
        <time>2013-01-06T09:37:01Z</time>
      </trkpt>
      <trkpt lat="45.28623" lon="5.78205">
        <ele>1758</ele>
        <time>2013-01-06T09:37:06Z</time>
      </trkpt>
      <trkpt lat="45.28624" lon="5.78205">
        <ele>1758</ele>
        <time>2013-01-06T09:37:11Z</time>
      </trkpt>
      <trkpt lat="45.28624" lon="5.78205">
        <ele>1758</ele>
        <time>2013-01-06T09:37:16Z</time>
      </trkpt>
      <trkpt lat="45.28623" lon="5.78204">
        <ele>1758</ele>
        <time>2013-01-06T09:37:21Z</time>
      </trkpt>
      <trkpt lat="45.28621" lon="5.78202">
        <ele>1759</ele>
        <time>2013-01-06T09:37:26Z</time>
      </trkpt>
      <trkpt lat="45.28618" lon="5.782">
        <ele>1760</ele>
        <time>2013-01-06T09:37:31Z</time>
      </trkpt>
      <trkpt lat="45.28616" lon="5.78199">
        <ele>1760</ele>
        <time>2013-01-06T09:37:36Z</time>
      </trkpt>
      <trkpt lat="45.28616" lon="5.78199">
        <ele>1760</ele>
        <time>2013-01-06T09:37:41Z</time>
      </trkpt>
      <trkpt lat="45.28616" lon="5.78199">
        <ele>1760</ele>
        <time>2013-01-06T09:37:46Z</time>
      </trkpt>
      <trkpt lat="45.28616" lon="5.78199">
        <ele>1760</ele>
        <time>2013-01-06T09:37:51Z</time>
      </trkpt>
      <trkpt lat="45.28615" lon="5.78198">
        <ele>1760</ele>
        <time>2013-01-06T09:37:56Z</time>
      </trkpt>
      <trkpt lat="45.28615" lon="5.78199">
        <ele>1760</ele>
        <time>2013-01-06T09:38:01Z</time>
      </trkpt>
      <trkpt lat="45.28615" lon="5.782">
        <ele>1760</ele>
        <time>2013-01-06T09:38:06Z</time>
      </trkpt>
      <trkpt lat="45.28615" lon="5.78201">
        <ele>1760</ele>
        <time>2013-01-06T09:38:11Z</time>
      </trkpt>
      <trkpt lat="45.28614" lon="5.78202">
        <ele>1760</ele>
        <time>2013-01-06T09:38:16Z</time>
      </trkpt>
      <trkpt lat="45.28611" lon="5.78201">
        <ele>1760</ele>
        <time>2013-01-06T09:38:21Z</time>
      </trkpt>
      <trkpt lat="45.2861" lon="5.78202">
        <ele>1759</ele>
        <time>2013-01-06T09:38:26Z</time>
      </trkpt>
      <trkpt lat="45.28608" lon="5.78201">
        <ele>1760</ele>
        <time>2013-01-06T09:38:31Z</time>
      </trkpt>
      <trkpt lat="45.28606" lon="5.78202">
        <ele>1759</ele>
        <time>2013-01-06T09:38:36Z</time>
      </trkpt>
      <trkpt lat="45.28605" lon="5.78203">
        <ele>1760</ele>
        <time>2013-01-06T09:38:41Z</time>
      </trkpt>
      <trkpt lat="45.28602" lon="5.78203">
        <ele>1760</ele>
        <time>2013-01-06T09:38:46Z</time>
      </trkpt>
      <trkpt lat="45.28601" lon="5.78203">
        <ele>1761</ele>
        <time>2013-01-06T09:38:51Z</time>
      </trkpt>
      <trkpt lat="45.28599" lon="5.78203">
        <ele>1761</ele>
        <time>2013-01-06T09:38:56Z</time>
      </trkpt>
      <trkpt lat="45.28597" lon="5.78204">
        <ele>1762</ele>
        <time>2013-01-06T09:39:01Z</time>
      </trkpt>
      <trkpt lat="45.28595" lon="5.78205">
        <ele>1762</ele>
        <time>2013-01-06T09:39:06Z</time>
      </trkpt>
      <trkpt lat="45.28593" lon="5.78205">
        <ele>1762</ele>
        <time>2013-01-06T09:39:11Z</time>
      </trkpt>
      <trkpt lat="45.28591" lon="5.78205">
        <ele>1763</ele>
        <time>2013-01-06T09:39:16Z</time>
      </trkpt>
      <trkpt lat="45.28589" lon="5.78205">
        <ele>1764</ele>
        <time>2013-01-06T09:39:21Z</time>
      </trkpt>
      <trkpt lat="45.28588" lon="5.78205">
        <ele>1764</ele>
        <time>2013-01-06T09:39:26Z</time>
      </trkpt>
      <trkpt lat="45.28586" lon="5.78205">
        <ele>1765</ele>
        <time>2013-01-06T09:39:31Z</time>
      </trkpt>
      <trkpt lat="45.28584" lon="5.78205">
        <ele>1766</ele>
        <time>2013-01-06T09:39:36Z</time>
      </trkpt>
      <trkpt lat="45.28583" lon="5.78206">
        <ele>1766</ele>
        <time>2013-01-06T09:39:41Z</time>
      </trkpt>
      <trkpt lat="45.28582" lon="5.78207">
        <ele>1767</ele>
        <time>2013-01-06T09:39:46Z</time>
      </trkpt>
      <trkpt lat="45.2858" lon="5.78208">
        <ele>1768</ele>
        <time>2013-01-06T09:39:51Z</time>
      </trkpt>
      <trkpt lat="45.28578" lon="5.78209">
        <ele>1768</ele>
        <time>2013-01-06T09:39:56Z</time>
      </trkpt>
      <trkpt lat="45.28576" lon="5.78209">
        <ele>1769</ele>
        <time>2013-01-06T09:40:01Z</time>
      </trkpt>
      <trkpt lat="45.28575" lon="5.7821">
        <ele>1770</ele>
        <time>2013-01-06T09:40:06Z</time>
      </trkpt>
      <trkpt lat="45.28573" lon="5.7821">
        <ele>1770</ele>
        <time>2013-01-06T09:40:11Z</time>
      </trkpt>
      <trkpt lat="45.28571" lon="5.78211">
        <ele>1771</ele>
        <time>2013-01-06T09:40:16Z</time>
      </trkpt>
      <trkpt lat="45.28569" lon="5.78211">
        <ele>1772</ele>
        <time>2013-01-06T09:40:21Z</time>
      </trkpt>
      <trkpt lat="45.28568" lon="5.78211">
        <ele>1772</ele>
        <time>2013-01-06T09:40:26Z</time>
      </trkpt>
      <trkpt lat="45.28566" lon="5.78211">
        <ele>1773</ele>
        <time>2013-01-06T09:40:31Z</time>
      </trkpt>
      <trkpt lat="45.28565" lon="5.78212">
        <ele>1773</ele>
        <time>2013-01-06T09:40:36Z</time>
      </trkpt>
      <trkpt lat="45.28563" lon="5.78212">
        <ele>1774</ele>
        <time>2013-01-06T09:40:41Z</time>
      </trkpt>
      <trkpt lat="45.28561" lon="5.78212">
        <ele>1775</ele>
        <time>2013-01-06T09:40:46Z</time>
      </trkpt>
      <trkpt lat="45.28559" lon="5.78213">
        <ele>1775</ele>
        <time>2013-01-06T09:40:51Z</time>
      </trkpt>
      <trkpt lat="45.28558" lon="5.78213">
        <ele>1776</ele>
        <time>2013-01-06T09:40:56Z</time>
      </trkpt>
      <trkpt lat="45.28556" lon="5.78214">
        <ele>1776</ele>
        <time>2013-01-06T09:41:01Z</time>
      </trkpt>
      <trkpt lat="45.28555" lon="5.78214">
        <ele>1777</ele>
        <time>2013-01-06T09:41:06Z</time>
      </trkpt>
      <trkpt lat="45.28553" lon="5.78214">
        <ele>1777</ele>
        <time>2013-01-06T09:41:11Z</time>
      </trkpt>
      <trkpt lat="45.28551" lon="5.78215">
        <ele>1779</ele>
        <time>2013-01-06T09:41:16Z</time>
      </trkpt>
      <trkpt lat="45.28549" lon="5.78215">
        <ele>1779</ele>
        <time>2013-01-06T09:41:21Z</time>
      </trkpt>
      <trkpt lat="45.28549" lon="5.78215">
        <ele>1779</ele>
        <time>2013-01-06T09:41:26Z</time>
      </trkpt>
      <trkpt lat="45.28547" lon="5.78215">
        <ele>1780</ele>
        <time>2013-01-06T09:41:31Z</time>
      </trkpt>
      <trkpt lat="45.28545" lon="5.78214">
        <ele>1780</ele>
        <time>2013-01-06T09:41:36Z</time>
      </trkpt>
      <trkpt lat="45.28542" lon="5.78214">
        <ele>1781</ele>
        <time>2013-01-06T09:41:41Z</time>
      </trkpt>
      <trkpt lat="45.2854" lon="5.78214">
        <ele>1782</ele>
        <time>2013-01-06T09:41:46Z</time>
      </trkpt>
      <trkpt lat="45.28539" lon="5.78214">
        <ele>1782</ele>
        <time>2013-01-06T09:41:51Z</time>
      </trkpt>
      <trkpt lat="45.28537" lon="5.78215">
        <ele>1782</ele>
        <time>2013-01-06T09:41:56Z</time>
      </trkpt>
      <trkpt lat="45.28535" lon="5.78215">
        <ele>1783</ele>
        <time>2013-01-06T09:42:01Z</time>
      </trkpt>
      <trkpt lat="45.28533" lon="5.78214">
        <ele>1784</ele>
        <time>2013-01-06T09:42:06Z</time>
      </trkpt>
      <trkpt lat="45.28531" lon="5.78214">
        <ele>1785</ele>
        <time>2013-01-06T09:42:11Z</time>
      </trkpt>
      <trkpt lat="45.28529" lon="5.78215">
        <ele>1786</ele>
        <time>2013-01-06T09:42:16Z</time>
      </trkpt>
      <trkpt lat="45.28527" lon="5.78215">
        <ele>1786</ele>
        <time>2013-01-06T09:42:21Z</time>
      </trkpt>
      <trkpt lat="45.28525" lon="5.78216">
        <ele>1787</ele>
        <time>2013-01-06T09:42:26Z</time>
      </trkpt>
      <trkpt lat="45.28523" lon="5.78216">
        <ele>1787</ele>
        <time>2013-01-06T09:42:31Z</time>
      </trkpt>
      <trkpt lat="45.28521" lon="5.78216">
        <ele>1787</ele>
        <time>2013-01-06T09:42:36Z</time>
      </trkpt>
      <trkpt lat="45.2852" lon="5.78215">
        <ele>1788</ele>
        <time>2013-01-06T09:42:41Z</time>
      </trkpt>
      <trkpt lat="45.28517" lon="5.78214">
        <ele>1788</ele>
        <time>2013-01-06T09:42:46Z</time>
      </trkpt>
      <trkpt lat="45.28515" lon="5.78214">
        <ele>1789</ele>
        <time>2013-01-06T09:42:51Z</time>
      </trkpt>
      <trkpt lat="45.28513" lon="5.78213">
        <ele>1790</ele>
        <time>2013-01-06T09:42:56Z</time>
      </trkpt>
      <trkpt lat="45.28511" lon="5.78212">
        <ele>1790</ele>
        <time>2013-01-06T09:43:01Z</time>
      </trkpt>
      <trkpt lat="45.28508" lon="5.78211">
        <ele>1791</ele>
        <time>2013-01-06T09:43:06Z</time>
      </trkpt>
      <trkpt lat="45.28507" lon="5.78211">
        <ele>1791</ele>
        <time>2013-01-06T09:43:11Z</time>
      </trkpt>
      <trkpt lat="45.28505" lon="5.78211">
        <ele>1791</ele>
        <time>2013-01-06T09:43:16Z</time>
      </trkpt>
      <trkpt lat="45.28503" lon="5.7821">
        <ele>1791</ele>
        <time>2013-01-06T09:43:21Z</time>
      </trkpt>
      <trkpt lat="45.285" lon="5.7821">
        <ele>1791</ele>
        <time>2013-01-06T09:43:26Z</time>
      </trkpt>
      <trkpt lat="45.28499" lon="5.7821">
        <ele>1792</ele>
        <time>2013-01-06T09:43:31Z</time>
      </trkpt>
      <trkpt lat="45.28497" lon="5.78209">
        <ele>1793</ele>
        <time>2013-01-06T09:43:36Z</time>
      </trkpt>
      <trkpt lat="45.28496" lon="5.78209">
        <ele>1794</ele>
        <time>2013-01-06T09:43:41Z</time>
      </trkpt>
      <trkpt lat="45.28495" lon="5.78209">
        <ele>1794</ele>
        <time>2013-01-06T09:43:46Z</time>
      </trkpt>
      <trkpt lat="45.28495" lon="5.78209">
        <ele>1795</ele>
        <time>2013-01-06T09:43:51Z</time>
      </trkpt>
      <trkpt lat="45.28493" lon="5.78209">
        <ele>1795</ele>
        <time>2013-01-06T09:43:56Z</time>
      </trkpt>
      <trkpt lat="45.28491" lon="5.78209">
        <ele>1796</ele>
        <time>2013-01-06T09:44:01Z</time>
      </trkpt>
      <trkpt lat="45.2849" lon="5.7821">
        <ele>1797</ele>
        <time>2013-01-06T09:44:06Z</time>
      </trkpt>
      <trkpt lat="45.28488" lon="5.7821">
        <ele>1797</ele>
        <time>2013-01-06T09:44:11Z</time>
      </trkpt>
      <trkpt lat="45.28486" lon="5.78211">
        <ele>1798</ele>
        <time>2013-01-06T09:44:16Z</time>
      </trkpt>
      <trkpt lat="45.28484" lon="5.7821">
        <ele>1798</ele>
        <time>2013-01-06T09:44:21Z</time>
      </trkpt>
      <trkpt lat="45.28482" lon="5.78209">
        <ele>1799</ele>
        <time>2013-01-06T09:44:26Z</time>
      </trkpt>
      <trkpt lat="45.28479" lon="5.78208">
        <ele>1799</ele>
        <time>2013-01-06T09:44:31Z</time>
      </trkpt>
      <trkpt lat="45.28477" lon="5.78208">
        <ele>1799</ele>
        <time>2013-01-06T09:44:36Z</time>
      </trkpt>
      <trkpt lat="45.28475" lon="5.78206">
        <ele>1801</ele>
        <time>2013-01-06T09:44:41Z</time>
      </trkpt>
      <trkpt lat="45.28473" lon="5.78206">
        <ele>1802</ele>
        <time>2013-01-06T09:44:46Z</time>
      </trkpt>
      <trkpt lat="45.28471" lon="5.78205">
        <ele>1802</ele>
        <time>2013-01-06T09:44:51Z</time>
      </trkpt>
      <trkpt lat="45.2847" lon="5.78204">
        <ele>1803</ele>
        <time>2013-01-06T09:44:56Z</time>
      </trkpt>
      <trkpt lat="45.28468" lon="5.78204">
        <ele>1803</ele>
        <time>2013-01-06T09:45:01Z</time>
      </trkpt>
      <trkpt lat="45.28466" lon="5.78205">
        <ele>1804</ele>
        <time>2013-01-06T09:45:06Z</time>
      </trkpt>
      <trkpt lat="45.28464" lon="5.78206">
        <ele>1805</ele>
        <time>2013-01-06T09:45:11Z</time>
      </trkpt>
      <trkpt lat="45.28463" lon="5.78206">
        <ele>1805</ele>
        <time>2013-01-06T09:45:16Z</time>
      </trkpt>
      <trkpt lat="45.2846" lon="5.78206">
        <ele>1804</ele>
        <time>2013-01-06T09:45:21Z</time>
      </trkpt>
      <trkpt lat="45.28458" lon="5.78205">
        <ele>1804</ele>
        <time>2013-01-06T09:45:26Z</time>
      </trkpt>
      <trkpt lat="45.28456" lon="5.78205">
        <ele>1804</ele>
        <time>2013-01-06T09:45:31Z</time>
      </trkpt>
      <trkpt lat="45.28456" lon="5.78205">
        <ele>1805</ele>
        <time>2013-01-06T09:45:36Z</time>
      </trkpt>
      <trkpt lat="45.28456" lon="5.78205">
        <ele>1805</ele>
        <time>2013-01-06T09:45:41Z</time>
      </trkpt>
      <trkpt lat="45.28455" lon="5.78205">
        <ele>1806</ele>
        <time>2013-01-06T09:45:46Z</time>
      </trkpt>
      <trkpt lat="45.28453" lon="5.78206">
        <ele>1807</ele>
        <time>2013-01-06T09:45:51Z</time>
      </trkpt>
      <trkpt lat="45.2845" lon="5.78205">
        <ele>1808</ele>
        <time>2013-01-06T09:45:56Z</time>
      </trkpt>
      <trkpt lat="45.28448" lon="5.78204">
        <ele>1809</ele>
        <time>2013-01-06T09:46:01Z</time>
      </trkpt>
      <trkpt lat="45.28445" lon="5.78203">
        <ele>1809</ele>
        <time>2013-01-06T09:46:06Z</time>
      </trkpt>
      <trkpt lat="45.28442" lon="5.78203">
        <ele>1810</ele>
        <time>2013-01-06T09:46:11Z</time>
      </trkpt>
      <trkpt lat="45.2844" lon="5.78203">
        <ele>1810</ele>
        <time>2013-01-06T09:46:16Z</time>
      </trkpt>
      <trkpt lat="45.28438" lon="5.78204">
        <ele>1811</ele>
        <time>2013-01-06T09:46:21Z</time>
      </trkpt>
      <trkpt lat="45.28436" lon="5.78206">
        <ele>1811</ele>
        <time>2013-01-06T09:46:26Z</time>
      </trkpt>
      <trkpt lat="45.28434" lon="5.78207">
        <ele>1812</ele>
        <time>2013-01-06T09:46:31Z</time>
      </trkpt>
      <trkpt lat="45.28432" lon="5.78207">
        <ele>1812</ele>
        <time>2013-01-06T09:46:36Z</time>
      </trkpt>
      <trkpt lat="45.2843" lon="5.78208">
        <ele>1813</ele>
        <time>2013-01-06T09:46:41Z</time>
      </trkpt>
      <trkpt lat="45.28428" lon="5.78209">
        <ele>1814</ele>
        <time>2013-01-06T09:46:46Z</time>
      </trkpt>
      <trkpt lat="45.28426" lon="5.7821">
        <ele>1814</ele>
        <time>2013-01-06T09:46:51Z</time>
      </trkpt>
      <trkpt lat="45.28426" lon="5.78211">
        <ele>1814</ele>
        <time>2013-01-06T09:46:56Z</time>
      </trkpt>
      <trkpt lat="45.28427" lon="5.78212">
        <ele>1815</ele>
        <time>2013-01-06T09:47:01Z</time>
      </trkpt>
      <trkpt lat="45.28427" lon="5.78212">
        <ele>1815</ele>
        <time>2013-01-06T09:47:06Z</time>
      </trkpt>
      <trkpt lat="45.28427" lon="5.78213">
        <ele>1815</ele>
        <time>2013-01-06T09:47:11Z</time>
      </trkpt>
      <trkpt lat="45.28428" lon="5.78213">
        <ele>1815</ele>
        <time>2013-01-06T09:47:16Z</time>
      </trkpt>
      <trkpt lat="45.28428" lon="5.78214">
        <ele>1815</ele>
        <time>2013-01-06T09:47:21Z</time>
      </trkpt>
      <trkpt lat="45.28428" lon="5.78214">
        <ele>1815</ele>
        <time>2013-01-06T09:47:26Z</time>
      </trkpt>
      <trkpt lat="45.28428" lon="5.78214">
        <ele>1815</ele>
        <time>2013-01-06T09:47:31Z</time>
      </trkpt>
      <trkpt lat="45.28428" lon="5.78214">
        <ele>1815</ele>
        <time>2013-01-06T09:47:36Z</time>
      </trkpt>
      <trkpt lat="45.28428" lon="5.78214">
        <ele>1815</ele>
        <time>2013-01-06T09:47:41Z</time>
      </trkpt>
      <trkpt lat="45.28428" lon="5.78214">
        <ele>1815</ele>
        <time>2013-01-06T09:47:46Z</time>
      </trkpt>
      <trkpt lat="45.28428" lon="5.78214">
        <ele>1816</ele>
        <time>2013-01-06T09:47:51Z</time>
      </trkpt>
      <trkpt lat="45.2843" lon="5.78217">
        <ele>1818</ele>
        <time>2013-01-06T09:50:56Z</time>
      </trkpt>
      <trkpt lat="45.28429" lon="5.78219">
        <ele>1819</ele>
        <time>2013-01-06T09:51:01Z</time>
      </trkpt>
      <trkpt lat="45.28427" lon="5.78219">
        <ele>1819</ele>
        <time>2013-01-06T09:51:06Z</time>
      </trkpt>
      <trkpt lat="45.28424" lon="5.78219">
        <ele>1820</ele>
        <time>2013-01-06T09:51:11Z</time>
      </trkpt>
      <trkpt lat="45.28423" lon="5.7822">
        <ele>1820</ele>
        <time>2013-01-06T09:51:16Z</time>
      </trkpt>
      <trkpt lat="45.28421" lon="5.78221">
        <ele>1821</ele>
        <time>2013-01-06T09:51:21Z</time>
      </trkpt>
      <trkpt lat="45.28421" lon="5.78221">
        <ele>1821</ele>
        <time>2013-01-06T09:51:26Z</time>
      </trkpt>
      <trkpt lat="45.28419" lon="5.78222">
        <ele>1822</ele>
        <time>2013-01-06T09:51:31Z</time>
      </trkpt>
      <trkpt lat="45.28416" lon="5.78223">
        <ele>1822</ele>
        <time>2013-01-06T09:51:36Z</time>
      </trkpt>
      <trkpt lat="45.28414" lon="5.78225">
        <ele>1823</ele>
        <time>2013-01-06T09:51:41Z</time>
      </trkpt>
      <trkpt lat="45.28412" lon="5.78227">
        <ele>1823</ele>
        <time>2013-01-06T09:51:46Z</time>
      </trkpt>
      <trkpt lat="45.28409" lon="5.78229">
        <ele>1823</ele>
        <time>2013-01-06T09:51:51Z</time>
      </trkpt>
      <trkpt lat="45.28407" lon="5.7823">
        <ele>1824</ele>
        <time>2013-01-06T09:51:56Z</time>
      </trkpt>
      <trkpt lat="45.28405" lon="5.78232">
        <ele>1824</ele>
        <time>2013-01-06T09:52:01Z</time>
      </trkpt>
      <trkpt lat="45.28403" lon="5.78234">
        <ele>1824</ele>
        <time>2013-01-06T09:52:06Z</time>
      </trkpt>
      <trkpt lat="45.28401" lon="5.78235">
        <ele>1825</ele>
        <time>2013-01-06T09:52:11Z</time>
      </trkpt>
      <trkpt lat="45.284" lon="5.78236">
        <ele>1825</ele>
        <time>2013-01-06T09:52:16Z</time>
      </trkpt>
      <trkpt lat="45.28398" lon="5.78238">
        <ele>1826</ele>
        <time>2013-01-06T09:52:21Z</time>
      </trkpt>
      <trkpt lat="45.28396" lon="5.78239">
        <ele>1827</ele>
        <time>2013-01-06T09:52:26Z</time>
      </trkpt>
      <trkpt lat="45.28395" lon="5.78241">
        <ele>1827</ele>
        <time>2013-01-06T09:52:31Z</time>
      </trkpt>
      <trkpt lat="45.28393" lon="5.78242">
        <ele>1828</ele>
        <time>2013-01-06T09:52:36Z</time>
      </trkpt>
      <trkpt lat="45.28391" lon="5.78244">
        <ele>1829</ele>
        <time>2013-01-06T09:52:41Z</time>
      </trkpt>
      <trkpt lat="45.28389" lon="5.78246">
        <ele>1829</ele>
        <time>2013-01-06T09:52:46Z</time>
      </trkpt>
      <trkpt lat="45.28388" lon="5.78247">
        <ele>1829</ele>
        <time>2013-01-06T09:52:51Z</time>
      </trkpt>
      <trkpt lat="45.28386" lon="5.78249">
        <ele>1830</ele>
        <time>2013-01-06T09:52:56Z</time>
      </trkpt>
      <trkpt lat="45.28384" lon="5.7825">
        <ele>1831</ele>
        <time>2013-01-06T09:53:01Z</time>
      </trkpt>
      <trkpt lat="45.28383" lon="5.78251">
        <ele>1831</ele>
        <time>2013-01-06T09:53:06Z</time>
      </trkpt>
      <trkpt lat="45.28381" lon="5.78252">
        <ele>1832</ele>
        <time>2013-01-06T09:53:11Z</time>
      </trkpt>
      <trkpt lat="45.2838" lon="5.78253">
        <ele>1832</ele>
        <time>2013-01-06T09:53:16Z</time>
      </trkpt>
      <trkpt lat="45.28379" lon="5.78254">
        <ele>1833</ele>
        <time>2013-01-06T09:53:21Z</time>
      </trkpt>
      <trkpt lat="45.28377" lon="5.78255">
        <ele>1833</ele>
        <time>2013-01-06T09:53:26Z</time>
      </trkpt>
      <trkpt lat="45.28376" lon="5.78256">
        <ele>1834</ele>
        <time>2013-01-06T09:53:31Z</time>
      </trkpt>
      <trkpt lat="45.28374" lon="5.78257">
        <ele>1834</ele>
        <time>2013-01-06T09:53:36Z</time>
      </trkpt>
      <trkpt lat="45.28373" lon="5.78258">
        <ele>1835</ele>
        <time>2013-01-06T09:53:41Z</time>
      </trkpt>
      <trkpt lat="45.28372" lon="5.78259">
        <ele>1836</ele>
        <time>2013-01-06T09:53:46Z</time>
      </trkpt>
      <trkpt lat="45.2837" lon="5.7826">
        <ele>1836</ele>
        <time>2013-01-06T09:53:51Z</time>
      </trkpt>
      <trkpt lat="45.2837" lon="5.7826">
        <ele>1837</ele>
        <time>2013-01-06T09:53:56Z</time>
      </trkpt>
      <trkpt lat="45.2837" lon="5.78257">
        <ele>1836</ele>
        <time>2013-01-06T09:56:26Z</time>
      </trkpt>
      <trkpt lat="45.28369" lon="5.78258">
        <ele>1837</ele>
        <time>2013-01-06T09:56:31Z</time>
      </trkpt>
      <trkpt lat="45.28367" lon="5.7826">
        <ele>1839</ele>
        <time>2013-01-06T09:56:36Z</time>
      </trkpt>
      <trkpt lat="45.28365" lon="5.78261">
        <ele>1841</ele>
        <time>2013-01-06T09:56:41Z</time>
      </trkpt>
      <trkpt lat="45.28363" lon="5.78262">
        <ele>1842</ele>
        <time>2013-01-06T09:56:46Z</time>
      </trkpt>
      <trkpt lat="45.28362" lon="5.78264">
        <ele>1843</ele>
        <time>2013-01-06T09:56:51Z</time>
      </trkpt>
      <trkpt lat="45.2836" lon="5.78265">
        <ele>1844</ele>
        <time>2013-01-06T09:56:56Z</time>
      </trkpt>
      <trkpt lat="45.28359" lon="5.78267">
        <ele>1845</ele>
        <time>2013-01-06T09:57:01Z</time>
      </trkpt>
      <trkpt lat="45.2836" lon="5.78269">
        <ele>1845</ele>
        <time>2013-01-06T09:57:06Z</time>
      </trkpt>
      <trkpt lat="45.28362" lon="5.78272">
        <ele>1846</ele>
        <time>2013-01-06T09:57:11Z</time>
      </trkpt>
      <trkpt lat="45.28362" lon="5.78274">
        <ele>1846</ele>
        <time>2013-01-06T09:57:16Z</time>
      </trkpt>
      <trkpt lat="45.28363" lon="5.78277">
        <ele>1846</ele>
        <time>2013-01-06T09:57:21Z</time>
      </trkpt>
      <trkpt lat="45.28364" lon="5.78279">
        <ele>1846</ele>
        <time>2013-01-06T09:57:26Z</time>
      </trkpt>
      <trkpt lat="45.28365" lon="5.78281">
        <ele>1846</ele>
        <time>2013-01-06T09:57:31Z</time>
      </trkpt>
      <trkpt lat="45.28365" lon="5.78283">
        <ele>1847</ele>
        <time>2013-01-06T09:57:36Z</time>
      </trkpt>
      <trkpt lat="45.28365" lon="5.78285">
        <ele>1846</ele>
        <time>2013-01-06T09:57:41Z</time>
      </trkpt>
      <trkpt lat="45.28365" lon="5.78288">
        <ele>1847</ele>
        <time>2013-01-06T09:57:46Z</time>
      </trkpt>
      <trkpt lat="45.28367" lon="5.7829">
        <ele>1847</ele>
        <time>2013-01-06T09:57:51Z</time>
      </trkpt>
      <trkpt lat="45.28367" lon="5.78292">
        <ele>1848</ele>
        <time>2013-01-06T09:57:56Z</time>
      </trkpt>
      <trkpt lat="45.28368" lon="5.78295">
        <ele>1849</ele>
        <time>2013-01-06T09:58:01Z</time>
      </trkpt>
      <trkpt lat="45.28369" lon="5.78297">
        <ele>1850</ele>
        <time>2013-01-06T09:58:06Z</time>
      </trkpt>
      <trkpt lat="45.28369" lon="5.78299">
        <ele>1851</ele>
        <time>2013-01-06T09:58:11Z</time>
      </trkpt>
      <trkpt lat="45.28369" lon="5.783">
        <ele>1852</ele>
        <time>2013-01-06T09:58:16Z</time>
      </trkpt>
      <trkpt lat="45.2837" lon="5.78303">
        <ele>1853</ele>
        <time>2013-01-06T09:58:21Z</time>
      </trkpt>
      <trkpt lat="45.28371" lon="5.78305">
        <ele>1854</ele>
        <time>2013-01-06T09:58:26Z</time>
      </trkpt>
      <trkpt lat="45.28372" lon="5.78308">
        <ele>1854</ele>
        <time>2013-01-06T09:58:31Z</time>
      </trkpt>
      <trkpt lat="45.28373" lon="5.78311">
        <ele>1855</ele>
        <time>2013-01-06T09:58:36Z</time>
      </trkpt>
      <trkpt lat="45.28373" lon="5.78314">
        <ele>1855</ele>
        <time>2013-01-06T09:58:41Z</time>
      </trkpt>
      <trkpt lat="45.28374" lon="5.78316">
        <ele>1856</ele>
        <time>2013-01-06T09:58:46Z</time>
      </trkpt>
      <trkpt lat="45.28375" lon="5.78319">
        <ele>1855</ele>
        <time>2013-01-06T09:58:51Z</time>
      </trkpt>
      <trkpt lat="45.28376" lon="5.78322">
        <ele>1855</ele>
        <time>2013-01-06T09:58:56Z</time>
      </trkpt>
      <trkpt lat="45.28376" lon="5.78324">
        <ele>1855</ele>
        <time>2013-01-06T09:59:01Z</time>
      </trkpt>
      <trkpt lat="45.28378" lon="5.78326">
        <ele>1855</ele>
        <time>2013-01-06T09:59:06Z</time>
      </trkpt>
      <trkpt lat="45.28379" lon="5.78328">
        <ele>1855</ele>
        <time>2013-01-06T09:59:11Z</time>
      </trkpt>
      <trkpt lat="45.2838" lon="5.7833">
        <ele>1855</ele>
        <time>2013-01-06T09:59:16Z</time>
      </trkpt>
      <trkpt lat="45.2838" lon="5.78332">
        <ele>1854</ele>
        <time>2013-01-06T09:59:21Z</time>
      </trkpt>
      <trkpt lat="45.28381" lon="5.78335">
        <ele>1853</ele>
        <time>2013-01-06T09:59:26Z</time>
      </trkpt>
      <trkpt lat="45.28383" lon="5.78337">
        <ele>1854</ele>
        <time>2013-01-06T09:59:31Z</time>
      </trkpt>
      <trkpt lat="45.28383" lon="5.7834">
        <ele>1854</ele>
        <time>2013-01-06T09:59:36Z</time>
      </trkpt>
      <trkpt lat="45.28384" lon="5.78343">
        <ele>1854</ele>
        <time>2013-01-06T09:59:41Z</time>
      </trkpt>
      <trkpt lat="45.28386" lon="5.78345">
        <ele>1854</ele>
        <time>2013-01-06T09:59:46Z</time>
      </trkpt>
      <trkpt lat="45.28386" lon="5.78347">
        <ele>1855</ele>
        <time>2013-01-06T09:59:51Z</time>
      </trkpt>
      <trkpt lat="45.28388" lon="5.78349">
        <ele>1856</ele>
        <time>2013-01-06T09:59:56Z</time>
      </trkpt>
      <trkpt lat="45.28388" lon="5.78352">
        <ele>1855</ele>
        <time>2013-01-06T10:00:01Z</time>
      </trkpt>
      <trkpt lat="45.28389" lon="5.78354">
        <ele>1856</ele>
        <time>2013-01-06T10:00:06Z</time>
      </trkpt>
      <trkpt lat="45.2839" lon="5.78356">
        <ele>1857</ele>
        <time>2013-01-06T10:00:11Z</time>
      </trkpt>
      <trkpt lat="45.28392" lon="5.78358">
        <ele>1857</ele>
        <time>2013-01-06T10:00:16Z</time>
      </trkpt>
      <trkpt lat="45.28393" lon="5.7836">
        <ele>1858</ele>
        <time>2013-01-06T10:00:21Z</time>
      </trkpt>
      <trkpt lat="45.28394" lon="5.78363">
        <ele>1859</ele>
        <time>2013-01-06T10:00:26Z</time>
      </trkpt>
      <trkpt lat="45.28396" lon="5.78365">
        <ele>1860</ele>
        <time>2013-01-06T10:00:31Z</time>
      </trkpt>
      <trkpt lat="45.28397" lon="5.78367">
        <ele>1860</ele>
        <time>2013-01-06T10:00:36Z</time>
      </trkpt>
      <trkpt lat="45.28398" lon="5.7837">
        <ele>1861</ele>
        <time>2013-01-06T10:00:41Z</time>
      </trkpt>
      <trkpt lat="45.28399" lon="5.78372">
        <ele>1862</ele>
        <time>2013-01-06T10:00:46Z</time>
      </trkpt>
      <trkpt lat="45.284" lon="5.78374">
        <ele>1863</ele>
        <time>2013-01-06T10:00:51Z</time>
      </trkpt>
      <trkpt lat="45.28401" lon="5.78376">
        <ele>1863</ele>
        <time>2013-01-06T10:00:56Z</time>
      </trkpt>
      <trkpt lat="45.28402" lon="5.78379">
        <ele>1864</ele>
        <time>2013-01-06T10:01:01Z</time>
      </trkpt>
      <trkpt lat="45.28403" lon="5.78381">
        <ele>1866</ele>
        <time>2013-01-06T10:01:06Z</time>
      </trkpt>
      <trkpt lat="45.28405" lon="5.78383">
        <ele>1865</ele>
        <time>2013-01-06T10:01:11Z</time>
      </trkpt>
      <trkpt lat="45.28406" lon="5.78384">
        <ele>1865</ele>
        <time>2013-01-06T10:01:16Z</time>
      </trkpt>
      <trkpt lat="45.28407" lon="5.78386">
        <ele>1865</ele>
        <time>2013-01-06T10:01:21Z</time>
      </trkpt>
      <trkpt lat="45.28409" lon="5.78388">
        <ele>1866</ele>
        <time>2013-01-06T10:01:26Z</time>
      </trkpt>
      <trkpt lat="45.2841" lon="5.7839">
        <ele>1867</ele>
        <time>2013-01-06T10:01:31Z</time>
      </trkpt>
      <trkpt lat="45.28412" lon="5.78391">
        <ele>1868</ele>
        <time>2013-01-06T10:01:36Z</time>
      </trkpt>
      <trkpt lat="45.28414" lon="5.78393">
        <ele>1869</ele>
        <time>2013-01-06T10:01:41Z</time>
      </trkpt>
      <trkpt lat="45.28416" lon="5.78395">
        <ele>1870</ele>
        <time>2013-01-06T10:01:46Z</time>
      </trkpt>
      <trkpt lat="45.28418" lon="5.78397">
        <ele>1870</ele>
        <time>2013-01-06T10:01:51Z</time>
      </trkpt>
      <trkpt lat="45.28419" lon="5.78399">
        <ele>1871</ele>
        <time>2013-01-06T10:01:56Z</time>
      </trkpt>
      <trkpt lat="45.28421" lon="5.784">
        <ele>1872</ele>
        <time>2013-01-06T10:02:01Z</time>
      </trkpt>
      <trkpt lat="45.28423" lon="5.78402">
        <ele>1873</ele>
        <time>2013-01-06T10:02:06Z</time>
      </trkpt>
      <trkpt lat="45.28425" lon="5.78403">
        <ele>1874</ele>
        <time>2013-01-06T10:02:11Z</time>
      </trkpt>
      <trkpt lat="45.28426" lon="5.78405">
        <ele>1875</ele>
        <time>2013-01-06T10:02:16Z</time>
      </trkpt>
      <trkpt lat="45.28427" lon="5.78408">
        <ele>1874</ele>
        <time>2013-01-06T10:02:21Z</time>
      </trkpt>
      <trkpt lat="45.28428" lon="5.78409">
        <ele>1874</ele>
        <time>2013-01-06T10:02:26Z</time>
      </trkpt>
      <trkpt lat="45.28429" lon="5.78411">
        <ele>1874</ele>
        <time>2013-01-06T10:02:31Z</time>
      </trkpt>
      <trkpt lat="45.28431" lon="5.78413">
        <ele>1874</ele>
        <time>2013-01-06T10:02:36Z</time>
      </trkpt>
      <trkpt lat="45.2843" lon="5.78414">
        <ele>1874</ele>
        <time>2013-01-06T10:02:41Z</time>
      </trkpt>
      <trkpt lat="45.28428" lon="5.78415">
        <ele>1874</ele>
        <time>2013-01-06T10:02:46Z</time>
      </trkpt>
      <trkpt lat="45.28426" lon="5.78417">
        <ele>1874</ele>
        <time>2013-01-06T10:02:51Z</time>
      </trkpt>
      <trkpt lat="45.28425" lon="5.78419">
        <ele>1873</ele>
        <time>2013-01-06T10:02:56Z</time>
      </trkpt>
      <trkpt lat="45.28423" lon="5.78421">
        <ele>1874</ele>
        <time>2013-01-06T10:03:01Z</time>
      </trkpt>
      <trkpt lat="45.28422" lon="5.78422">
        <ele>1875</ele>
        <time>2013-01-06T10:03:06Z</time>
      </trkpt>
      <trkpt lat="45.2842" lon="5.78424">
        <ele>1875</ele>
        <time>2013-01-06T10:03:11Z</time>
      </trkpt>
      <trkpt lat="45.28419" lon="5.78425">
        <ele>1875</ele>
        <time>2013-01-06T10:03:16Z</time>
      </trkpt>
      <trkpt lat="45.28417" lon="5.78427">
        <ele>1875</ele>
        <time>2013-01-06T10:03:21Z</time>
      </trkpt>
      <trkpt lat="45.28415" lon="5.78429">
        <ele>1874</ele>
        <time>2013-01-06T10:03:26Z</time>
      </trkpt>
      <trkpt lat="45.28414" lon="5.7843">
        <ele>1874</ele>
        <time>2013-01-06T10:03:31Z</time>
      </trkpt>
      <trkpt lat="45.28414" lon="5.78431">
        <ele>1875</ele>
        <time>2013-01-06T10:03:36Z</time>
      </trkpt>
      <trkpt lat="45.28416" lon="5.78433">
        <ele>1876</ele>
        <time>2013-01-06T10:03:41Z</time>
      </trkpt>
      <trkpt lat="45.28418" lon="5.78434">
        <ele>1877</ele>
        <time>2013-01-06T10:03:46Z</time>
      </trkpt>
      <trkpt lat="45.2842" lon="5.78436">
        <ele>1878</ele>
        <time>2013-01-06T10:03:51Z</time>
      </trkpt>
      <trkpt lat="45.28422" lon="5.78438">
        <ele>1879</ele>
        <time>2013-01-06T10:03:56Z</time>
      </trkpt>
      <trkpt lat="45.28423" lon="5.78439">
        <ele>1881</ele>
        <time>2013-01-06T10:04:01Z</time>
      </trkpt>
      <trkpt lat="45.28425" lon="5.78441">
        <ele>1881</ele>
        <time>2013-01-06T10:04:06Z</time>
      </trkpt>
      <trkpt lat="45.28426" lon="5.78442">
        <ele>1882</ele>
        <time>2013-01-06T10:04:11Z</time>
      </trkpt>
      <trkpt lat="45.28428" lon="5.78444">
        <ele>1883</ele>
        <time>2013-01-06T10:04:16Z</time>
      </trkpt>
      <trkpt lat="45.2843" lon="5.78445">
        <ele>1884</ele>
        <time>2013-01-06T10:04:21Z</time>
      </trkpt>
      <trkpt lat="45.28431" lon="5.78447">
        <ele>1884</ele>
        <time>2013-01-06T10:04:26Z</time>
      </trkpt>
      <trkpt lat="45.28433" lon="5.78448">
        <ele>1885</ele>
        <time>2013-01-06T10:04:31Z</time>
      </trkpt>
      <trkpt lat="45.28434" lon="5.7845">
        <ele>1886</ele>
        <time>2013-01-06T10:04:36Z</time>
      </trkpt>
      <trkpt lat="45.28436" lon="5.78452">
        <ele>1887</ele>
        <time>2013-01-06T10:04:41Z</time>
      </trkpt>
      <trkpt lat="45.28438" lon="5.78454">
        <ele>1887</ele>
        <time>2013-01-06T10:04:46Z</time>
      </trkpt>
      <trkpt lat="45.28439" lon="5.78455">
        <ele>1888</ele>
        <time>2013-01-06T10:04:51Z</time>
      </trkpt>
      <trkpt lat="45.28441" lon="5.78457">
        <ele>1889</ele>
        <time>2013-01-06T10:04:56Z</time>
      </trkpt>
      <trkpt lat="45.28444" lon="5.78458">
        <ele>1889</ele>
        <time>2013-01-06T10:05:01Z</time>
      </trkpt>
      <trkpt lat="45.28445" lon="5.7846">
        <ele>1888</ele>
        <time>2013-01-06T10:05:06Z</time>
      </trkpt>
      <trkpt lat="45.28446" lon="5.7846">
        <ele>1889</ele>
        <time>2013-01-06T10:05:11Z</time>
      </trkpt>
      <trkpt lat="45.28447" lon="5.78462">
        <ele>1891</ele>
        <time>2013-01-06T10:05:16Z</time>
      </trkpt>
      <trkpt lat="45.28449" lon="5.78463">
        <ele>1892</ele>
        <time>2013-01-06T10:05:21Z</time>
      </trkpt>
      <trkpt lat="45.28451" lon="5.78464">
        <ele>1893</ele>
        <time>2013-01-06T10:05:26Z</time>
      </trkpt>
      <trkpt lat="45.28453" lon="5.78465">
        <ele>1894</ele>
        <time>2013-01-06T10:05:31Z</time>
      </trkpt>
      <trkpt lat="45.28455" lon="5.78466">
        <ele>1895</ele>
        <time>2013-01-06T10:05:36Z</time>
      </trkpt>
      <trkpt lat="45.28456" lon="5.78466">
        <ele>1896</ele>
        <time>2013-01-06T10:05:41Z</time>
      </trkpt>
      <trkpt lat="45.28458" lon="5.78467">
        <ele>1896</ele>
        <time>2013-01-06T10:05:46Z</time>
      </trkpt>
      <trkpt lat="45.28459" lon="5.78468">
        <ele>1897</ele>
        <time>2013-01-06T10:05:51Z</time>
      </trkpt>
      <trkpt lat="45.28461" lon="5.78469">
        <ele>1897</ele>
        <time>2013-01-06T10:05:56Z</time>
      </trkpt>
      <trkpt lat="45.28462" lon="5.7847">
        <ele>1898</ele>
        <time>2013-01-06T10:06:01Z</time>
      </trkpt>
      <trkpt lat="45.28464" lon="5.78471">
        <ele>1899</ele>
        <time>2013-01-06T10:06:06Z</time>
      </trkpt>
      <trkpt lat="45.28464" lon="5.78471">
        <ele>1898</ele>
        <time>2013-01-06T10:06:11Z</time>
      </trkpt>
      <trkpt lat="45.28463" lon="5.78472">
        <ele>1899</ele>
        <time>2013-01-06T10:06:16Z</time>
      </trkpt>
      <trkpt lat="45.28461" lon="5.78474">
        <ele>1898</ele>
        <time>2013-01-06T10:06:21Z</time>
      </trkpt>
      <trkpt lat="45.28459" lon="5.78475">
        <ele>1898</ele>
        <time>2013-01-06T10:06:26Z</time>
      </trkpt>
      <trkpt lat="45.28458" lon="5.78476">
        <ele>1898</ele>
        <time>2013-01-06T10:06:31Z</time>
      </trkpt>
      <trkpt lat="45.28456" lon="5.78478">
        <ele>1898</ele>
        <time>2013-01-06T10:06:36Z</time>
      </trkpt>
      <trkpt lat="45.28455" lon="5.78479">
        <ele>1898</ele>
        <time>2013-01-06T10:06:41Z</time>
      </trkpt>
      <trkpt lat="45.28454" lon="5.78481">
        <ele>1898</ele>
        <time>2013-01-06T10:06:46Z</time>
      </trkpt>
      <trkpt lat="45.28453" lon="5.78483">
        <ele>1898</ele>
        <time>2013-01-06T10:06:51Z</time>
      </trkpt>
      <trkpt lat="45.28451" lon="5.78484">
        <ele>1899</ele>
        <time>2013-01-06T10:06:56Z</time>
      </trkpt>
      <trkpt lat="45.2845" lon="5.78487">
        <ele>1899</ele>
        <time>2013-01-06T10:07:01Z</time>
      </trkpt>
      <trkpt lat="45.28448" lon="5.78489">
        <ele>1899</ele>
        <time>2013-01-06T10:07:06Z</time>
      </trkpt>
      <trkpt lat="45.28447" lon="5.7849">
        <ele>1899</ele>
        <time>2013-01-06T10:07:11Z</time>
      </trkpt>
      <trkpt lat="45.28446" lon="5.78492">
        <ele>1899</ele>
        <time>2013-01-06T10:07:16Z</time>
      </trkpt>
      <trkpt lat="45.28445" lon="5.78494">
        <ele>1899</ele>
        <time>2013-01-06T10:07:21Z</time>
      </trkpt>
      <trkpt lat="45.28443" lon="5.78495">
        <ele>1899</ele>
        <time>2013-01-06T10:07:26Z</time>
      </trkpt>
      <trkpt lat="45.28442" lon="5.78497">
        <ele>1900</ele>
        <time>2013-01-06T10:07:31Z</time>
      </trkpt>
      <trkpt lat="45.28441" lon="5.78498">
        <ele>1900</ele>
        <time>2013-01-06T10:07:36Z</time>
      </trkpt>
      <trkpt lat="45.28439" lon="5.785">
        <ele>1901</ele>
        <time>2013-01-06T10:07:41Z</time>
      </trkpt>
      <trkpt lat="45.28438" lon="5.78501">
        <ele>1901</ele>
        <time>2013-01-06T10:07:46Z</time>
      </trkpt>
      <trkpt lat="45.28438" lon="5.78502">
        <ele>1901</ele>
        <time>2013-01-06T10:07:51Z</time>
      </trkpt>
      <trkpt lat="45.28436" lon="5.78503">
        <ele>1901</ele>
        <time>2013-01-06T10:07:56Z</time>
      </trkpt>
      <trkpt lat="45.28434" lon="5.78504">
        <ele>1902</ele>
        <time>2013-01-06T10:08:01Z</time>
      </trkpt>
      <trkpt lat="45.28433" lon="5.78506">
        <ele>1902</ele>
        <time>2013-01-06T10:08:06Z</time>
      </trkpt>
      <trkpt lat="45.28433" lon="5.78507">
        <ele>1903</ele>
        <time>2013-01-06T10:08:11Z</time>
      </trkpt>
      <trkpt lat="45.28434" lon="5.78508">
        <ele>1904</ele>
        <time>2013-01-06T10:08:16Z</time>
      </trkpt>
      <trkpt lat="45.28436" lon="5.7851">
        <ele>1905</ele>
        <time>2013-01-06T10:08:21Z</time>
      </trkpt>
      <trkpt lat="45.28438" lon="5.78512">
        <ele>1906</ele>
        <time>2013-01-06T10:08:26Z</time>
      </trkpt>
      <trkpt lat="45.28438" lon="5.78513">
        <ele>1907</ele>
        <time>2013-01-06T10:08:31Z</time>
      </trkpt>
      <trkpt lat="45.2844" lon="5.78515">
        <ele>1908</ele>
        <time>2013-01-06T10:08:36Z</time>
      </trkpt>
      <trkpt lat="45.28441" lon="5.78516">
        <ele>1909</ele>
        <time>2013-01-06T10:08:41Z</time>
      </trkpt>
      <trkpt lat="45.28442" lon="5.78517">
        <ele>1910</ele>
        <time>2013-01-06T10:08:46Z</time>
      </trkpt>
      <trkpt lat="45.28445" lon="5.78517">
        <ele>1910</ele>
        <time>2013-01-06T10:08:51Z</time>
      </trkpt>
      <trkpt lat="45.28446" lon="5.78518">
        <ele>1912</ele>
        <time>2013-01-06T10:08:56Z</time>
      </trkpt>
      <trkpt lat="45.28448" lon="5.7852">
        <ele>1912</ele>
        <time>2013-01-06T10:09:01Z</time>
      </trkpt>
      <trkpt lat="45.28449" lon="5.7852">
        <ele>1913</ele>
        <time>2013-01-06T10:09:06Z</time>
      </trkpt>
      <trkpt lat="45.28451" lon="5.78521">
        <ele>1913</ele>
        <time>2013-01-06T10:09:11Z</time>
      </trkpt>
      <trkpt lat="45.28452" lon="5.78522">
        <ele>1914</ele>
        <time>2013-01-06T10:09:16Z</time>
      </trkpt>
      <trkpt lat="45.28454" lon="5.78524">
        <ele>1915</ele>
        <time>2013-01-06T10:09:21Z</time>
      </trkpt>
      <trkpt lat="45.28455" lon="5.78525">
        <ele>1915</ele>
        <time>2013-01-06T10:09:26Z</time>
      </trkpt>
      <trkpt lat="45.28456" lon="5.78526">
        <ele>1916</ele>
        <time>2013-01-06T10:09:31Z</time>
      </trkpt>
      <trkpt lat="45.28458" lon="5.78527">
        <ele>1916</ele>
        <time>2013-01-06T10:09:36Z</time>
      </trkpt>
      <trkpt lat="45.2846" lon="5.78527">
        <ele>1916</ele>
        <time>2013-01-06T10:09:41Z</time>
      </trkpt>
      <trkpt lat="45.28461" lon="5.78528">
        <ele>1916</ele>
        <time>2013-01-06T10:09:46Z</time>
      </trkpt>
      <trkpt lat="45.28463" lon="5.7853">
        <ele>1917</ele>
        <time>2013-01-06T10:09:51Z</time>
      </trkpt>
      <trkpt lat="45.28464" lon="5.78531">
        <ele>1918</ele>
        <time>2013-01-06T10:09:56Z</time>
      </trkpt>
      <trkpt lat="45.28466" lon="5.78532">
        <ele>1919</ele>
        <time>2013-01-06T10:10:01Z</time>
      </trkpt>
      <trkpt lat="45.28468" lon="5.78533">
        <ele>1919</ele>
        <time>2013-01-06T10:10:06Z</time>
      </trkpt>
      <trkpt lat="45.2847" lon="5.78534">
        <ele>1919</ele>
        <time>2013-01-06T10:10:11Z</time>
      </trkpt>
      <trkpt lat="45.28471" lon="5.78535">
        <ele>1920</ele>
        <time>2013-01-06T10:10:16Z</time>
      </trkpt>
      <trkpt lat="45.28473" lon="5.78535">
        <ele>1920</ele>
        <time>2013-01-06T10:10:21Z</time>
      </trkpt>
      <trkpt lat="45.28474" lon="5.78536">
        <ele>1921</ele>
        <time>2013-01-06T10:10:26Z</time>
      </trkpt>
      <trkpt lat="45.28475" lon="5.78536">
        <ele>1921</ele>
        <time>2013-01-06T10:10:31Z</time>
      </trkpt>
      <trkpt lat="45.28475" lon="5.78536">
        <ele>1920</ele>
        <time>2013-01-06T10:10:36Z</time>
      </trkpt>
      <trkpt lat="45.28475" lon="5.78536">
        <ele>1919</ele>
        <time>2013-01-06T10:10:41Z</time>
      </trkpt>
      <trkpt lat="45.28475" lon="5.78537">
        <ele>1919</ele>
        <time>2013-01-06T10:10:46Z</time>
      </trkpt>
      <trkpt lat="45.28475" lon="5.78537">
        <ele>1918</ele>
        <time>2013-01-06T10:10:51Z</time>
      </trkpt>
      <trkpt lat="45.28474" lon="5.78536">
        <ele>1919</ele>
        <time>2013-01-06T10:10:56Z</time>
      </trkpt>
      <trkpt lat="45.28473" lon="5.78538">
        <ele>1919</ele>
        <time>2013-01-06T10:11:01Z</time>
      </trkpt>
      <trkpt lat="45.28472" lon="5.7854">
        <ele>1919</ele>
        <time>2013-01-06T10:11:06Z</time>
      </trkpt>
      <trkpt lat="45.2847" lon="5.78542">
        <ele>1919</ele>
        <time>2013-01-06T10:11:11Z</time>
      </trkpt>
      <trkpt lat="45.28468" lon="5.78543">
        <ele>1918</ele>
        <time>2013-01-06T10:11:16Z</time>
      </trkpt>
      <trkpt lat="45.28467" lon="5.78545">
        <ele>1918</ele>
        <time>2013-01-06T10:11:21Z</time>
      </trkpt>
      <trkpt lat="45.28465" lon="5.78546">
        <ele>1918</ele>
        <time>2013-01-06T10:11:26Z</time>
      </trkpt>
      <trkpt lat="45.28463" lon="5.78547">
        <ele>1918</ele>
        <time>2013-01-06T10:11:31Z</time>
      </trkpt>
      <trkpt lat="45.28461" lon="5.78549">
        <ele>1919</ele>
        <time>2013-01-06T10:11:36Z</time>
      </trkpt>
      <trkpt lat="45.2846" lon="5.7855">
        <ele>1919</ele>
        <time>2013-01-06T10:11:41Z</time>
      </trkpt>
      <trkpt lat="45.28458" lon="5.78552">
        <ele>1920</ele>
        <time>2013-01-06T10:11:46Z</time>
      </trkpt>
      <trkpt lat="45.28457" lon="5.78553">
        <ele>1920</ele>
        <time>2013-01-06T10:11:51Z</time>
      </trkpt>
      <trkpt lat="45.28455" lon="5.78555">
        <ele>1921</ele>
        <time>2013-01-06T10:11:56Z</time>
      </trkpt>
      <trkpt lat="45.28454" lon="5.78556">
        <ele>1921</ele>
        <time>2013-01-06T10:12:01Z</time>
      </trkpt>
      <trkpt lat="45.28452" lon="5.78558">
        <ele>1922</ele>
        <time>2013-01-06T10:12:06Z</time>
      </trkpt>
      <trkpt lat="45.28451" lon="5.78559">
        <ele>1922</ele>
        <time>2013-01-06T10:12:11Z</time>
      </trkpt>
      <trkpt lat="45.2845" lon="5.7856">
        <ele>1923</ele>
        <time>2013-01-06T10:12:16Z</time>
      </trkpt>
      <trkpt lat="45.28449" lon="5.78562">
        <ele>1924</ele>
        <time>2013-01-06T10:12:21Z</time>
      </trkpt>
      <trkpt lat="45.28447" lon="5.78563">
        <ele>1925</ele>
        <time>2013-01-06T10:12:26Z</time>
      </trkpt>
      <trkpt lat="45.28446" lon="5.78564">
        <ele>1925</ele>
        <time>2013-01-06T10:12:31Z</time>
      </trkpt>
      <trkpt lat="45.28445" lon="5.78566">
        <ele>1927</ele>
        <time>2013-01-06T10:12:36Z</time>
      </trkpt>
      <trkpt lat="45.28444" lon="5.78568">
        <ele>1928</ele>
        <time>2013-01-06T10:12:41Z</time>
      </trkpt>
      <trkpt lat="45.28444" lon="5.78568">
        <ele>1929</ele>
        <time>2013-01-06T10:12:46Z</time>
      </trkpt>
      <trkpt lat="45.28441" lon="5.78569">
        <ele>1930</ele>
        <time>2013-01-06T10:12:51Z</time>
      </trkpt>
      <trkpt lat="45.28439" lon="5.78569">
        <ele>1930</ele>
        <time>2013-01-06T10:12:56Z</time>
      </trkpt>
      <trkpt lat="45.28438" lon="5.7857">
        <ele>1931</ele>
        <time>2013-01-06T10:13:01Z</time>
      </trkpt>
      <trkpt lat="45.28436" lon="5.78572">
        <ele>1931</ele>
        <time>2013-01-06T10:13:06Z</time>
      </trkpt>
      <trkpt lat="45.28434" lon="5.78573">
        <ele>1932</ele>
        <time>2013-01-06T10:13:11Z</time>
      </trkpt>
      <trkpt lat="45.28433" lon="5.78574">
        <ele>1933</ele>
        <time>2013-01-06T10:13:16Z</time>
      </trkpt>
      <trkpt lat="45.28431" lon="5.78575">
        <ele>1934</ele>
        <time>2013-01-06T10:13:21Z</time>
      </trkpt>
      <trkpt lat="45.2843" lon="5.78576">
        <ele>1933</ele>
        <time>2013-01-06T10:13:26Z</time>
      </trkpt>
      <trkpt lat="45.2843" lon="5.78576">
        <ele>1933</ele>
        <time>2013-01-06T10:13:31Z</time>
      </trkpt>
      <trkpt lat="45.2843" lon="5.78576">
        <ele>1932</ele>
        <time>2013-01-06T10:13:36Z</time>
      </trkpt>
      <trkpt lat="45.28431" lon="5.78577">
        <ele>1933</ele>
        <time>2013-01-06T10:13:41Z</time>
      </trkpt>
      <trkpt lat="45.28431" lon="5.78577">
        <ele>1934</ele>
        <time>2013-01-06T10:13:46Z</time>
      </trkpt>
      <trkpt lat="45.28433" lon="5.78578">
        <ele>1934</ele>
        <time>2013-01-06T10:13:51Z</time>
      </trkpt>
      <trkpt lat="45.28434" lon="5.78579">
        <ele>1935</ele>
        <time>2013-01-06T10:13:56Z</time>
      </trkpt>
      <trkpt lat="45.28436" lon="5.7858">
        <ele>1935</ele>
        <time>2013-01-06T10:14:01Z</time>
      </trkpt>
      <trkpt lat="45.28437" lon="5.78581">
        <ele>1936</ele>
        <time>2013-01-06T10:14:06Z</time>
      </trkpt>
      <trkpt lat="45.28439" lon="5.78583">
        <ele>1936</ele>
        <time>2013-01-06T10:14:11Z</time>
      </trkpt>
      <trkpt lat="45.28441" lon="5.78584">
        <ele>1937</ele>
        <time>2013-01-06T10:14:16Z</time>
      </trkpt>
      <trkpt lat="45.28443" lon="5.78585">
        <ele>1939</ele>
        <time>2013-01-06T10:14:21Z</time>
      </trkpt>
      <trkpt lat="45.28444" lon="5.78586">
        <ele>1939</ele>
        <time>2013-01-06T10:14:26Z</time>
      </trkpt>
      <trkpt lat="45.28446" lon="5.78587">
        <ele>1940</ele>
        <time>2013-01-06T10:14:31Z</time>
      </trkpt>
      <trkpt lat="45.28449" lon="5.78588">
        <ele>1940</ele>
        <time>2013-01-06T10:14:36Z</time>
      </trkpt>
      <trkpt lat="45.28449" lon="5.78588">
        <ele>1940</ele>
        <time>2013-01-06T10:14:41Z</time>
      </trkpt>
      <trkpt lat="45.2845" lon="5.78592">
        <ele>1943</ele>
        <time>2013-01-06T10:17:21Z</time>
      </trkpt>
      <trkpt lat="45.28452" lon="5.78593">
        <ele>1944</ele>
        <time>2013-01-06T10:17:26Z</time>
      </trkpt>
      <trkpt lat="45.28455" lon="5.78594">
        <ele>1943</ele>
        <time>2013-01-06T10:17:31Z</time>
      </trkpt>
      <trkpt lat="45.28457" lon="5.78595">
        <ele>1943</ele>
        <time>2013-01-06T10:17:36Z</time>
      </trkpt>
      <trkpt lat="45.28457" lon="5.78596">
        <ele>1944</ele>
        <time>2013-01-06T10:17:41Z</time>
      </trkpt>
      <trkpt lat="45.28456" lon="5.78597">
        <ele>1945</ele>
        <time>2013-01-06T10:17:46Z</time>
      </trkpt>
      <trkpt lat="45.28454" lon="5.78598">
        <ele>1947</ele>
        <time>2013-01-06T10:17:51Z</time>
      </trkpt>
      <trkpt lat="45.28452" lon="5.78599">
        <ele>1947</ele>
        <time>2013-01-06T10:17:56Z</time>
      </trkpt>
      <trkpt lat="45.28451" lon="5.786">
        <ele>1947</ele>
        <time>2013-01-06T10:18:01Z</time>
      </trkpt>
      <trkpt lat="45.2845" lon="5.78601">
        <ele>1947</ele>
        <time>2013-01-06T10:18:06Z</time>
      </trkpt>
      <trkpt lat="45.28449" lon="5.78602">
        <ele>1947</ele>
        <time>2013-01-06T10:18:11Z</time>
      </trkpt>
      <trkpt lat="45.28447" lon="5.78604">
        <ele>1948</ele>
        <time>2013-01-06T10:18:16Z</time>
      </trkpt>
      <trkpt lat="45.28446" lon="5.78605">
        <ele>1948</ele>
        <time>2013-01-06T10:18:21Z</time>
      </trkpt>
      <trkpt lat="45.28445" lon="5.78606">
        <ele>1948</ele>
        <time>2013-01-06T10:18:26Z</time>
      </trkpt>
      <trkpt lat="45.28442" lon="5.78608">
        <ele>1948</ele>
        <time>2013-01-06T10:18:31Z</time>
      </trkpt>
      <trkpt lat="45.28441" lon="5.78609">
        <ele>1949</ele>
        <time>2013-01-06T10:18:36Z</time>
      </trkpt>
      <trkpt lat="45.28439" lon="5.78611">
        <ele>1950</ele>
        <time>2013-01-06T10:18:41Z</time>
      </trkpt>
      <trkpt lat="45.28438" lon="5.78613">
        <ele>1950</ele>
        <time>2013-01-06T10:18:46Z</time>
      </trkpt>
      <trkpt lat="45.28436" lon="5.78614">
        <ele>1950</ele>
        <time>2013-01-06T10:18:51Z</time>
      </trkpt>
      <trkpt lat="45.28435" lon="5.78615">
        <ele>1950</ele>
        <time>2013-01-06T10:18:56Z</time>
      </trkpt>
      <trkpt lat="45.28434" lon="5.78617">
        <ele>1951</ele>
        <time>2013-01-06T10:19:01Z</time>
      </trkpt>
      <trkpt lat="45.28432" lon="5.78619">
        <ele>1951</ele>
        <time>2013-01-06T10:19:06Z</time>
      </trkpt>
      <trkpt lat="45.28432" lon="5.78619">
        <ele>1951</ele>
        <time>2013-01-06T10:19:11Z</time>
      </trkpt>
      <trkpt lat="45.28432" lon="5.78619">
        <ele>1951</ele>
        <time>2013-01-06T10:19:16Z</time>
      </trkpt>
      <trkpt lat="45.28431" lon="5.78621">
        <ele>1952</ele>
        <time>2013-01-06T10:19:21Z</time>
      </trkpt>
      <trkpt lat="45.2843" lon="5.78624">
        <ele>1952</ele>
        <time>2013-01-06T10:19:26Z</time>
      </trkpt>
      <trkpt lat="45.28429" lon="5.78624">
        <ele>1951</ele>
        <time>2013-01-06T10:19:31Z</time>
      </trkpt>
      <trkpt lat="45.28429" lon="5.78624">
        <ele>1951</ele>
        <time>2013-01-06T10:19:36Z</time>
      </trkpt>
      <trkpt lat="45.28428" lon="5.78625">
        <ele>1951</ele>
        <time>2013-01-06T10:19:41Z</time>
      </trkpt>
      <trkpt lat="45.28428" lon="5.78626">
        <ele>1951</ele>
        <time>2013-01-06T10:19:46Z</time>
      </trkpt>
      <trkpt lat="45.28429" lon="5.78626">
        <ele>1952</ele>
        <time>2013-01-06T10:19:51Z</time>
      </trkpt>
      <trkpt lat="45.28431" lon="5.78627">
        <ele>1953</ele>
        <time>2013-01-06T10:19:56Z</time>
      </trkpt>
      <trkpt lat="45.28433" lon="5.78628">
        <ele>1953</ele>
        <time>2013-01-06T10:20:01Z</time>
      </trkpt>
      <trkpt lat="45.28434" lon="5.78629">
        <ele>1954</ele>
        <time>2013-01-06T10:20:06Z</time>
      </trkpt>
      <trkpt lat="45.28436" lon="5.78629">
        <ele>1954</ele>
        <time>2013-01-06T10:20:11Z</time>
      </trkpt>
      <trkpt lat="45.28438" lon="5.7863">
        <ele>1955</ele>
        <time>2013-01-06T10:20:16Z</time>
      </trkpt>
      <trkpt lat="45.28439" lon="5.78631">
        <ele>1956</ele>
        <time>2013-01-06T10:20:21Z</time>
      </trkpt>
      <trkpt lat="45.28441" lon="5.78631">
        <ele>1958</ele>
        <time>2013-01-06T10:20:26Z</time>
      </trkpt>
      <trkpt lat="45.28442" lon="5.78632">
        <ele>1959</ele>
        <time>2013-01-06T10:20:31Z</time>
      </trkpt>
      <trkpt lat="45.28445" lon="5.78632">
        <ele>1959</ele>
        <time>2013-01-06T10:20:36Z</time>
      </trkpt>
      <trkpt lat="45.28447" lon="5.78633">
        <ele>1959</ele>
        <time>2013-01-06T10:20:41Z</time>
      </trkpt>
      <trkpt lat="45.2845" lon="5.78634">
        <ele>1959</ele>
        <time>2013-01-06T10:20:46Z</time>
      </trkpt>
      <trkpt lat="45.28452" lon="5.78634">
        <ele>1959</ele>
        <time>2013-01-06T10:20:51Z</time>
      </trkpt>
      <trkpt lat="45.28455" lon="5.78634">
        <ele>1960</ele>
        <time>2013-01-06T10:20:56Z</time>
      </trkpt>
      <trkpt lat="45.28456" lon="5.78634">
        <ele>1960</ele>
        <time>2013-01-06T10:21:01Z</time>
      </trkpt>
      <trkpt lat="45.28458" lon="5.78636">
        <ele>1961</ele>
        <time>2013-01-06T10:21:06Z</time>
      </trkpt>
      <trkpt lat="45.2846" lon="5.78637">
        <ele>1961</ele>
        <time>2013-01-06T10:21:11Z</time>
      </trkpt>
      <trkpt lat="45.28461" lon="5.78638">
        <ele>1962</ele>
        <time>2013-01-06T10:21:16Z</time>
      </trkpt>
      <trkpt lat="45.28463" lon="5.78639">
        <ele>1962</ele>
        <time>2013-01-06T10:21:21Z</time>
      </trkpt>
      <trkpt lat="45.28465" lon="5.78641">
        <ele>1963</ele>
        <time>2013-01-06T10:21:26Z</time>
      </trkpt>
      <trkpt lat="45.28467" lon="5.78642">
        <ele>1963</ele>
        <time>2013-01-06T10:21:31Z</time>
      </trkpt>
      <trkpt lat="45.28468" lon="5.78643">
        <ele>1963</ele>
        <time>2013-01-06T10:21:36Z</time>
      </trkpt>
      <trkpt lat="45.2847" lon="5.78644">
        <ele>1964</ele>
        <time>2013-01-06T10:21:41Z</time>
      </trkpt>
      <trkpt lat="45.28472" lon="5.78645">
        <ele>1965</ele>
        <time>2013-01-06T10:21:46Z</time>
      </trkpt>
      <trkpt lat="45.28474" lon="5.78646">
        <ele>1965</ele>
        <time>2013-01-06T10:21:51Z</time>
      </trkpt>
      <trkpt lat="45.28476" lon="5.78647">
        <ele>1965</ele>
        <time>2013-01-06T10:21:56Z</time>
      </trkpt>
      <trkpt lat="45.28478" lon="5.78647">
        <ele>1965</ele>
        <time>2013-01-06T10:22:01Z</time>
      </trkpt>
      <trkpt lat="45.28479" lon="5.78648">
        <ele>1966</ele>
        <time>2013-01-06T10:22:06Z</time>
      </trkpt>
      <trkpt lat="45.2848" lon="5.78649">
        <ele>1967</ele>
        <time>2013-01-06T10:22:11Z</time>
      </trkpt>
      <trkpt lat="45.28482" lon="5.7865">
        <ele>1967</ele>
        <time>2013-01-06T10:22:16Z</time>
      </trkpt>
      <trkpt lat="45.28484" lon="5.7865">
        <ele>1967</ele>
        <time>2013-01-06T10:22:21Z</time>
      </trkpt>
      <trkpt lat="45.28485" lon="5.78651">
        <ele>1968</ele>
        <time>2013-01-06T10:22:26Z</time>
      </trkpt>
      <trkpt lat="45.28487" lon="5.78652">
        <ele>1968</ele>
        <time>2013-01-06T10:22:31Z</time>
      </trkpt>
      <trkpt lat="45.28488" lon="5.78653">
        <ele>1970</ele>
        <time>2013-01-06T10:22:36Z</time>
      </trkpt>
      <trkpt lat="45.28489" lon="5.78654">
        <ele>1971</ele>
        <time>2013-01-06T10:22:41Z</time>
      </trkpt>
      <trkpt lat="45.28491" lon="5.78654">
        <ele>1972</ele>
        <time>2013-01-06T10:22:46Z</time>
      </trkpt>
      <trkpt lat="45.28492" lon="5.78655">
        <ele>1973</ele>
        <time>2013-01-06T10:22:51Z</time>
      </trkpt>
      <trkpt lat="45.28494" lon="5.78655">
        <ele>1973</ele>
        <time>2013-01-06T10:22:56Z</time>
      </trkpt>
      <trkpt lat="45.28495" lon="5.78657">
        <ele>1973</ele>
        <time>2013-01-06T10:23:01Z</time>
      </trkpt>
      <trkpt lat="45.28497" lon="5.78657">
        <ele>1973</ele>
        <time>2013-01-06T10:23:06Z</time>
      </trkpt>
      <trkpt lat="45.28498" lon="5.78657">
        <ele>1972</ele>
        <time>2013-01-06T10:23:11Z</time>
      </trkpt>
      <trkpt lat="45.28499" lon="5.78657">
        <ele>1971</ele>
        <time>2013-01-06T10:23:16Z</time>
      </trkpt>
      <trkpt lat="45.28499" lon="5.78657">
        <ele>1971</ele>
        <time>2013-01-06T10:23:21Z</time>
      </trkpt>
      <trkpt lat="45.28499" lon="5.78657">
        <ele>1971</ele>
        <time>2013-01-06T10:23:26Z</time>
      </trkpt>
      <trkpt lat="45.28498" lon="5.78659">
        <ele>1972</ele>
        <time>2013-01-06T10:23:31Z</time>
      </trkpt>
      <trkpt lat="45.28497" lon="5.78661">
        <ele>1973</ele>
        <time>2013-01-06T10:23:36Z</time>
      </trkpt>
      <trkpt lat="45.28497" lon="5.78662">
        <ele>1973</ele>
        <time>2013-01-06T10:23:41Z</time>
      </trkpt>
      <trkpt lat="45.28496" lon="5.78663">
        <ele>1974</ele>
        <time>2013-01-06T10:23:46Z</time>
      </trkpt>
      <trkpt lat="45.28495" lon="5.78665">
        <ele>1975</ele>
        <time>2013-01-06T10:23:51Z</time>
      </trkpt>
      <trkpt lat="45.28494" lon="5.78667">
        <ele>1975</ele>
        <time>2013-01-06T10:23:56Z</time>
      </trkpt>
      <trkpt lat="45.28492" lon="5.78668">
        <ele>1976</ele>
        <time>2013-01-06T10:24:01Z</time>
      </trkpt>
      <trkpt lat="45.28491" lon="5.7867">
        <ele>1977</ele>
        <time>2013-01-06T10:24:06Z</time>
      </trkpt>
      <trkpt lat="45.2849" lon="5.78672">
        <ele>1977</ele>
        <time>2013-01-06T10:24:11Z</time>
      </trkpt>
      <trkpt lat="45.28489" lon="5.78674">
        <ele>1978</ele>
        <time>2013-01-06T10:24:16Z</time>
      </trkpt>
      <trkpt lat="45.28487" lon="5.78676">
        <ele>1979</ele>
        <time>2013-01-06T10:24:21Z</time>
      </trkpt>
      <trkpt lat="45.28486" lon="5.78677">
        <ele>1979</ele>
        <time>2013-01-06T10:24:26Z</time>
      </trkpt>
      <trkpt lat="45.28487" lon="5.78677">
        <ele>1979</ele>
        <time>2013-01-06T10:24:31Z</time>
      </trkpt>
      <trkpt lat="45.28485" lon="5.7868">
        <ele>1980</ele>
        <time>2013-01-06T10:24:36Z</time>
      </trkpt>
      <trkpt lat="45.28483" lon="5.78682">
        <ele>1980</ele>
        <time>2013-01-06T10:24:41Z</time>
      </trkpt>
      <trkpt lat="45.28481" lon="5.78683">
        <ele>1981</ele>
        <time>2013-01-06T10:24:46Z</time>
      </trkpt>
      <trkpt lat="45.28479" lon="5.78684">
        <ele>1981</ele>
        <time>2013-01-06T10:24:51Z</time>
      </trkpt>
      <trkpt lat="45.28478" lon="5.78685">
        <ele>1982</ele>
        <time>2013-01-06T10:24:56Z</time>
      </trkpt>
      <trkpt lat="45.28478" lon="5.78684">
        <ele>1982</ele>
        <time>2013-01-06T10:25:01Z</time>
      </trkpt>
      <trkpt lat="45.28476" lon="5.78687">
        <ele>1983</ele>
        <time>2013-01-06T10:25:06Z</time>
      </trkpt>
      <trkpt lat="45.28474" lon="5.78689">
        <ele>1983</ele>
        <time>2013-01-06T10:25:11Z</time>
      </trkpt>
      <trkpt lat="45.28472" lon="5.78691">
        <ele>1984</ele>
        <time>2013-01-06T10:25:16Z</time>
      </trkpt>
      <trkpt lat="45.28471" lon="5.78693">
        <ele>1984</ele>
        <time>2013-01-06T10:25:21Z</time>
      </trkpt>
      <trkpt lat="45.2847" lon="5.78695">
        <ele>1985</ele>
        <time>2013-01-06T10:25:26Z</time>
      </trkpt>
      <trkpt lat="45.2847" lon="5.78695">
        <ele>1984</ele>
        <time>2013-01-06T10:25:31Z</time>
      </trkpt>
      <trkpt lat="45.2847" lon="5.78695">
        <ele>1984</ele>
        <time>2013-01-06T10:25:36Z</time>
      </trkpt>
      <trkpt lat="45.28471" lon="5.78695">
        <ele>1984</ele>
        <time>2013-01-06T10:25:41Z</time>
      </trkpt>
      <trkpt lat="45.28472" lon="5.78696">
        <ele>1986</ele>
        <time>2013-01-06T10:25:46Z</time>
      </trkpt>
      <trkpt lat="45.28474" lon="5.78696">
        <ele>1986</ele>
        <time>2013-01-06T10:25:51Z</time>
      </trkpt>
      <trkpt lat="45.28475" lon="5.78696">
        <ele>1986</ele>
        <time>2013-01-06T10:25:56Z</time>
      </trkpt>
      <trkpt lat="45.28477" lon="5.78697">
        <ele>1986</ele>
        <time>2013-01-06T10:26:01Z</time>
      </trkpt>
      <trkpt lat="45.28479" lon="5.78698">
        <ele>1986</ele>
        <time>2013-01-06T10:26:06Z</time>
      </trkpt>
      <trkpt lat="45.28481" lon="5.78699">
        <ele>1986</ele>
        <time>2013-01-06T10:26:11Z</time>
      </trkpt>
      <trkpt lat="45.28483" lon="5.78699">
        <ele>1986</ele>
        <time>2013-01-06T10:26:16Z</time>
      </trkpt>
      <trkpt lat="45.28485" lon="5.787">
        <ele>1986</ele>
        <time>2013-01-06T10:26:21Z</time>
      </trkpt>
      <trkpt lat="45.28485" lon="5.787">
        <ele>1987</ele>
        <time>2013-01-06T10:26:26Z</time>
      </trkpt>
      <trkpt lat="45.28486" lon="5.78701">
        <ele>1987</ele>
        <time>2013-01-06T10:26:31Z</time>
      </trkpt>
      <trkpt lat="45.28487" lon="5.78702">
        <ele>1988</ele>
        <time>2013-01-06T10:26:36Z</time>
      </trkpt>
      <trkpt lat="45.2849" lon="5.78702">
        <ele>1988</ele>
        <time>2013-01-06T10:26:41Z</time>
      </trkpt>
      <trkpt lat="45.28492" lon="5.78702">
        <ele>1988</ele>
        <time>2013-01-06T10:26:46Z</time>
      </trkpt>
      <trkpt lat="45.28493" lon="5.78703">
        <ele>1988</ele>
        <time>2013-01-06T10:26:51Z</time>
      </trkpt>
      <trkpt lat="45.28494" lon="5.78703">
        <ele>1989</ele>
        <time>2013-01-06T10:26:56Z</time>
      </trkpt>
      <trkpt lat="45.28497" lon="5.78703">
        <ele>1989</ele>
        <time>2013-01-06T10:27:01Z</time>
      </trkpt>
      <trkpt lat="45.28499" lon="5.78703">
        <ele>1990</ele>
        <time>2013-01-06T10:27:06Z</time>
      </trkpt>
      <trkpt lat="45.28501" lon="5.78703">
        <ele>1990</ele>
        <time>2013-01-06T10:27:11Z</time>
      </trkpt>
      <trkpt lat="45.28504" lon="5.78704">
        <ele>1990</ele>
        <time>2013-01-06T10:27:16Z</time>
      </trkpt>
      <trkpt lat="45.28507" lon="5.78703">
        <ele>1990</ele>
        <time>2013-01-06T10:27:21Z</time>
      </trkpt>
      <trkpt lat="45.28507" lon="5.78703">
        <ele>1990</ele>
        <time>2013-01-06T10:27:26Z</time>
      </trkpt>
      <trkpt lat="45.28507" lon="5.78702">
        <ele>1990</ele>
        <time>2013-01-06T10:27:31Z</time>
      </trkpt>
      <trkpt lat="45.28511" lon="5.78701">
        <ele>1990</ele>
        <time>2013-01-06T10:27:36Z</time>
      </trkpt>
      <trkpt lat="45.28513" lon="5.78702">
        <ele>1991</ele>
        <time>2013-01-06T10:27:41Z</time>
      </trkpt>
      <trkpt lat="45.28516" lon="5.78702">
        <ele>1991</ele>
        <time>2013-01-06T10:27:46Z</time>
      </trkpt>
      <trkpt lat="45.28517" lon="5.78703">
        <ele>1991</ele>
        <time>2013-01-06T10:27:51Z</time>
      </trkpt>
      <trkpt lat="45.2852" lon="5.78703">
        <ele>1991</ele>
        <time>2013-01-06T10:27:56Z</time>
      </trkpt>
      <trkpt lat="45.28522" lon="5.78703">
        <ele>1992</ele>
        <time>2013-01-06T10:28:01Z</time>
      </trkpt>
      <trkpt lat="45.28525" lon="5.78703">
        <ele>1994</ele>
        <time>2013-01-06T10:28:06Z</time>
      </trkpt>
      <trkpt lat="45.28527" lon="5.78703">
        <ele>1995</ele>
        <time>2013-01-06T10:28:11Z</time>
      </trkpt>
      <trkpt lat="45.28529" lon="5.78703">
        <ele>1996</ele>
        <time>2013-01-06T10:28:16Z</time>
      </trkpt>
      <trkpt lat="45.2853" lon="5.78703">
        <ele>1996</ele>
        <time>2013-01-06T10:28:21Z</time>
      </trkpt>
      <trkpt lat="45.28532" lon="5.78704">
        <ele>1996</ele>
        <time>2013-01-06T10:28:26Z</time>
      </trkpt>
      <trkpt lat="45.28535" lon="5.78704">
        <ele>1996</ele>
        <time>2013-01-06T10:28:31Z</time>
      </trkpt>
      <trkpt lat="45.28537" lon="5.78703">
        <ele>1996</ele>
        <time>2013-01-06T10:28:36Z</time>
      </trkpt>
      <trkpt lat="45.28539" lon="5.78703">
        <ele>1996</ele>
        <time>2013-01-06T10:28:41Z</time>
      </trkpt>
      <trkpt lat="45.28542" lon="5.78703">
        <ele>1996</ele>
        <time>2013-01-06T10:28:46Z</time>
      </trkpt>
      <trkpt lat="45.28543" lon="5.78702">
        <ele>1996</ele>
        <time>2013-01-06T10:28:51Z</time>
      </trkpt>
      <trkpt lat="45.28545" lon="5.78703">
        <ele>1997</ele>
        <time>2013-01-06T10:28:56Z</time>
      </trkpt>
      <trkpt lat="45.28547" lon="5.78703">
        <ele>1998</ele>
        <time>2013-01-06T10:29:01Z</time>
      </trkpt>
      <trkpt lat="45.28549" lon="5.78703">
        <ele>1998</ele>
        <time>2013-01-06T10:29:06Z</time>
      </trkpt>
      <trkpt lat="45.2855" lon="5.78704">
        <ele>1999</ele>
        <time>2013-01-06T10:29:11Z</time>
      </trkpt>
      <trkpt lat="45.2855" lon="5.78704">
        <ele>2000</ele>
        <time>2013-01-06T10:29:16Z</time>
      </trkpt>
      <trkpt lat="45.2855" lon="5.78704">
        <ele>2000</ele>
        <time>2013-01-06T10:29:21Z</time>
      </trkpt>
      <trkpt lat="45.2855" lon="5.78704">
        <ele>2000</ele>
        <time>2013-01-06T10:29:26Z</time>
      </trkpt>
      <trkpt lat="45.2855" lon="5.78704">
        <ele>2000</ele>
        <time>2013-01-06T10:29:31Z</time>
      </trkpt>
      <trkpt lat="45.28552" lon="5.78705">
        <ele>2002</ele>
        <time>2013-01-06T10:29:36Z</time>
      </trkpt>
      <trkpt lat="45.28555" lon="5.78706">
        <ele>2003</ele>
        <time>2013-01-06T10:29:41Z</time>
      </trkpt>
      <trkpt lat="45.28557" lon="5.78706">
        <ele>2005</ele>
        <time>2013-01-06T10:29:46Z</time>
      </trkpt>
      <trkpt lat="45.28559" lon="5.78707">
        <ele>2006</ele>
        <time>2013-01-06T10:29:51Z</time>
      </trkpt>
      <trkpt lat="45.28562" lon="5.78707">
        <ele>2006</ele>
        <time>2013-01-06T10:29:56Z</time>
      </trkpt>
      <trkpt lat="45.28565" lon="5.78706">
        <ele>2007</ele>
        <time>2013-01-06T10:30:01Z</time>
      </trkpt>
      <trkpt lat="45.28567" lon="5.78705">
        <ele>2007</ele>
        <time>2013-01-06T10:30:06Z</time>
      </trkpt>
      <trkpt lat="45.28569" lon="5.78703">
        <ele>2007</ele>
        <time>2013-01-06T10:30:11Z</time>
      </trkpt>
      <trkpt lat="45.2857" lon="5.78701">
        <ele>2006</ele>
        <time>2013-01-06T10:30:16Z</time>
      </trkpt>
      <trkpt lat="45.2857" lon="5.78701">
        <ele>2006</ele>
        <time>2013-01-06T10:30:21Z</time>
      </trkpt>
      <trkpt lat="45.2857" lon="5.78702">
        <ele>2006</ele>
        <time>2013-01-06T10:30:26Z</time>
      </trkpt>
      <trkpt lat="45.28568" lon="5.787">
        <ele>2007</ele>
        <time>2013-01-06T10:30:31Z</time>
      </trkpt>
      <trkpt lat="45.28568" lon="5.787">
        <ele>2006</ele>
        <time>2013-01-06T10:30:36Z</time>
      </trkpt>
      <trkpt lat="45.28568" lon="5.787">
        <ele>2006</ele>
        <time>2013-01-06T10:30:41Z</time>
      </trkpt>
      <trkpt lat="45.28568" lon="5.78702">
        <ele>2006</ele>
        <time>2013-01-06T10:30:46Z</time>
      </trkpt>
      <trkpt lat="45.28568" lon="5.78706">
        <ele>2006</ele>
        <time>2013-01-06T10:30:51Z</time>
      </trkpt>
      <trkpt lat="45.28565" lon="5.78708">
        <ele>2007</ele>
        <time>2013-01-06T10:30:56Z</time>
      </trkpt>
      <trkpt lat="45.28564" lon="5.7871">
        <ele>2007</ele>
        <time>2013-01-06T10:31:01Z</time>
      </trkpt>
      <trkpt lat="45.28564" lon="5.78713">
        <ele>2007</ele>
        <time>2013-01-06T10:31:06Z</time>
      </trkpt>
      <trkpt lat="45.28563" lon="5.78716">
        <ele>2008</ele>
        <time>2013-01-06T10:31:11Z</time>
      </trkpt>
      <trkpt lat="45.28562" lon="5.78717">
        <ele>2008</ele>
        <time>2013-01-06T10:31:16Z</time>
      </trkpt>
      <trkpt lat="45.28562" lon="5.78717">
        <ele>2008</ele>
        <time>2013-01-06T10:31:21Z</time>
      </trkpt>
      <trkpt lat="45.28561" lon="5.78716">
        <ele>2007</ele>
        <time>2013-01-06T10:31:26Z</time>
      </trkpt>
      <trkpt lat="45.28561" lon="5.78715">
        <ele>2007</ele>
        <time>2013-01-06T10:31:31Z</time>
      </trkpt>
      <trkpt lat="45.2856" lon="5.78715">
        <ele>2007</ele>
        <time>2013-01-06T10:31:36Z</time>
      </trkpt>
      <trkpt lat="45.28562" lon="5.78714">
        <ele>2007</ele>
        <time>2013-01-06T10:31:41Z</time>
      </trkpt>
      <trkpt lat="45.28564" lon="5.78713">
        <ele>2008</ele>
        <time>2013-01-06T10:31:46Z</time>
      </trkpt>
      <trkpt lat="45.28567" lon="5.78711">
        <ele>2009</ele>
        <time>2013-01-06T10:31:51Z</time>
      </trkpt>
      <trkpt lat="45.28569" lon="5.7871">
        <ele>2010</ele>
        <time>2013-01-06T10:31:56Z</time>
      </trkpt>
      <trkpt lat="45.28569" lon="5.78709">
        <ele>2010</ele>
        <time>2013-01-06T10:32:01Z</time>
      </trkpt>
      <trkpt lat="45.28569" lon="5.78709">
        <ele>2010</ele>
        <time>2013-01-06T10:32:06Z</time>
      </trkpt>
      <trkpt lat="45.28569" lon="5.78709">
        <ele>2010</ele>
        <time>2013-01-06T10:32:11Z</time>
      </trkpt>
      <trkpt lat="45.28569" lon="5.78709">
        <ele>2011</ele>
        <time>2013-01-06T10:32:16Z</time>
      </trkpt>
      <trkpt lat="45.28569" lon="5.78709">
        <ele>2012</ele>
        <time>2013-01-06T10:32:21Z</time>
      </trkpt>
      <trkpt lat="45.28571" lon="5.78709">
        <ele>2012</ele>
        <time>2013-01-06T10:32:26Z</time>
      </trkpt>
      <trkpt lat="45.28573" lon="5.78709">
        <ele>2011</ele>
        <time>2013-01-06T10:32:31Z</time>
      </trkpt>
      <trkpt lat="45.28573" lon="5.78709">
        <ele>2012</ele>
        <time>2013-01-06T10:32:36Z</time>
      </trkpt>
      <trkpt lat="45.28574" lon="5.78709">
        <ele>2013</ele>
        <time>2013-01-06T10:32:41Z</time>
      </trkpt>
      <trkpt lat="45.28573" lon="5.78709">
        <ele>2014</ele>
        <time>2013-01-06T10:32:46Z</time>
      </trkpt>
      <trkpt lat="45.28573" lon="5.7871">
        <ele>2015</ele>
        <time>2013-01-06T10:32:51Z</time>
      </trkpt>
      <trkpt lat="45.28574" lon="5.78711">
        <ele>2016</ele>
        <time>2013-01-06T10:32:56Z</time>
      </trkpt>
      <trkpt lat="45.28574" lon="5.78711">
        <ele>2016</ele>
        <time>2013-01-06T10:33:01Z</time>
      </trkpt>
      <trkpt lat="45.28574" lon="5.7871">
        <ele>2017</ele>
        <time>2013-01-06T10:33:06Z</time>
      </trkpt>
      <trkpt lat="45.28573" lon="5.7871">
        <ele>2017</ele>
        <time>2013-01-06T10:33:11Z</time>
      </trkpt>
      <trkpt lat="45.28573" lon="5.78709">
        <ele>2017</ele>
        <time>2013-01-06T10:33:16Z</time>
      </trkpt>
      <trkpt lat="45.28574" lon="5.78709">
        <ele>2017</ele>
        <time>2013-01-06T10:33:21Z</time>
      </trkpt>
      <trkpt lat="45.28575" lon="5.78709">
        <ele>2016</ele>
        <time>2013-01-06T10:33:26Z</time>
      </trkpt>
      <trkpt lat="45.28578" lon="5.78709">
        <ele>2016</ele>
        <time>2013-01-06T10:33:31Z</time>
      </trkpt>
      <trkpt lat="45.28581" lon="5.78709">
        <ele>2016</ele>
        <time>2013-01-06T10:33:36Z</time>
      </trkpt>
      <trkpt lat="45.28583" lon="5.7871">
        <ele>2015</ele>
        <time>2013-01-06T10:33:41Z</time>
      </trkpt>
      <trkpt lat="45.28585" lon="5.7871">
        <ele>2015</ele>
        <time>2013-01-06T10:33:46Z</time>
      </trkpt>
      <trkpt lat="45.28585" lon="5.78709">
        <ele>2015</ele>
        <time>2013-01-06T10:33:51Z</time>
      </trkpt>
      <trkpt lat="45.28587" lon="5.78709">
        <ele>2015</ele>
        <time>2013-01-06T10:33:56Z</time>
      </trkpt>
      <trkpt lat="45.28589" lon="5.7871">
        <ele>2017</ele>
        <time>2013-01-06T10:34:01Z</time>
      </trkpt>
      <trkpt lat="45.28592" lon="5.78711">
        <ele>2019</ele>
        <time>2013-01-06T10:34:06Z</time>
      </trkpt>
      <trkpt lat="45.28593" lon="5.78711">
        <ele>2020</ele>
        <time>2013-01-06T10:34:11Z</time>
      </trkpt>
      <trkpt lat="45.28595" lon="5.78712">
        <ele>2020</ele>
        <time>2013-01-06T10:34:16Z</time>
      </trkpt>
      <trkpt lat="45.28595" lon="5.78713">
        <ele>2020</ele>
        <time>2013-01-06T10:34:21Z</time>
      </trkpt>
      <trkpt lat="45.28598" lon="5.78712">
        <ele>2020</ele>
        <time>2013-01-06T10:34:26Z</time>
      </trkpt>
      <trkpt lat="45.286" lon="5.78712">
        <ele>2021</ele>
        <time>2013-01-06T10:34:31Z</time>
      </trkpt>
      <trkpt lat="45.28602" lon="5.78713">
        <ele>2021</ele>
        <time>2013-01-06T10:34:36Z</time>
      </trkpt>
      <trkpt lat="45.28603" lon="5.78714">
        <ele>2022</ele>
        <time>2013-01-06T10:34:41Z</time>
      </trkpt>
      <trkpt lat="45.28603" lon="5.78714">
        <ele>2023</ele>
        <time>2013-01-06T10:34:46Z</time>
      </trkpt>
      <trkpt lat="45.28603" lon="5.78714">
        <ele>2023</ele>
        <time>2013-01-06T10:34:51Z</time>
      </trkpt>
      <trkpt lat="45.28605" lon="5.78715">
        <ele>2024</ele>
        <time>2013-01-06T10:34:56Z</time>
      </trkpt>
      <trkpt lat="45.28605" lon="5.78716">
        <ele>2024</ele>
        <time>2013-01-06T10:35:01Z</time>
      </trkpt>
      <trkpt lat="45.28606" lon="5.78716">
        <ele>2024</ele>
        <time>2013-01-06T10:35:06Z</time>
      </trkpt>
      <trkpt lat="45.28606" lon="5.78716">
        <ele>2021</ele>
        <time>2013-01-06T10:35:11Z</time>
      </trkpt>
      <trkpt lat="45.28608" lon="5.78717">
        <ele>2022</ele>
        <time>2013-01-06T10:35:16Z</time>
      </trkpt>
      <trkpt lat="45.2861" lon="5.78717">
        <ele>2022</ele>
        <time>2013-01-06T10:35:21Z</time>
      </trkpt>
      <trkpt lat="45.2861" lon="5.78718">
        <ele>2022</ele>
        <time>2013-01-06T10:35:26Z</time>
      </trkpt>
      <trkpt lat="45.2861" lon="5.78717">
        <ele>2022</ele>
        <time>2013-01-06T10:35:31Z</time>
      </trkpt>
      <trkpt lat="45.2861" lon="5.78717">
        <ele>2021</ele>
        <time>2013-01-06T10:35:36Z</time>
      </trkpt>
      <trkpt lat="45.2861" lon="5.78717">
        <ele>2021</ele>
        <time>2013-01-06T10:35:41Z</time>
      </trkpt>
      <trkpt lat="45.2861" lon="5.78717">
        <ele>2021</ele>
        <time>2013-01-06T10:35:46Z</time>
      </trkpt>
      <trkpt lat="45.2861" lon="5.78716">
        <ele>2022</ele>
        <time>2013-01-06T10:35:51Z</time>
      </trkpt>
      <trkpt lat="45.28608" lon="5.78718">
        <ele>2022</ele>
        <time>2013-01-06T10:35:56Z</time>
      </trkpt>
      <trkpt lat="45.28606" lon="5.78719">
        <ele>2023</ele>
        <time>2013-01-06T10:36:01Z</time>
      </trkpt>
      <trkpt lat="45.28605" lon="5.78721">
        <ele>2024</ele>
        <time>2013-01-06T10:36:06Z</time>
      </trkpt>
      <trkpt lat="45.28605" lon="5.78724">
        <ele>2025</ele>
        <time>2013-01-06T10:36:11Z</time>
      </trkpt>
      <trkpt lat="45.28605" lon="5.78724">
        <ele>2026</ele>
        <time>2013-01-06T10:36:16Z</time>
      </trkpt>
      <trkpt lat="45.28605" lon="5.78723">
        <ele>2026</ele>
        <time>2013-01-06T10:36:21Z</time>
      </trkpt>
      <trkpt lat="45.28605" lon="5.78723">
        <ele>2026</ele>
        <time>2013-01-06T10:36:26Z</time>
      </trkpt>
      <trkpt lat="45.28605" lon="5.78722">
        <ele>2023</ele>
        <time>2013-01-06T10:36:31Z</time>
      </trkpt>
      <trkpt lat="45.28605" lon="5.78723">
        <ele>2022</ele>
        <time>2013-01-06T10:36:36Z</time>
      </trkpt>
      <trkpt lat="45.28605" lon="5.78723">
        <ele>2021</ele>
        <time>2013-01-06T10:36:41Z</time>
      </trkpt>
      <trkpt lat="45.28607" lon="5.78723">
        <ele>2021</ele>
        <time>2013-01-06T10:36:46Z</time>
      </trkpt>
      <trkpt lat="45.28607" lon="5.78723">
        <ele>2021</ele>
        <time>2013-01-06T10:36:51Z</time>
      </trkpt>
      <trkpt lat="45.28608" lon="5.78724">
        <ele>2022</ele>
        <time>2013-01-06T10:36:56Z</time>
      </trkpt>
      <trkpt lat="45.2861" lon="5.78725">
        <ele>2024</ele>
        <time>2013-01-06T10:37:01Z</time>
      </trkpt>
      <trkpt lat="45.28611" lon="5.78725">
        <ele>2025</ele>
        <time>2013-01-06T10:37:06Z</time>
      </trkpt>
      <trkpt lat="45.2861" lon="5.78726">
        <ele>2026</ele>
        <time>2013-01-06T10:37:11Z</time>
      </trkpt>
      <trkpt lat="45.2861" lon="5.78727">
        <ele>2026</ele>
        <time>2013-01-06T10:37:16Z</time>
      </trkpt>
      <trkpt lat="45.2861" lon="5.78727">
        <ele>2026</ele>
        <time>2013-01-06T10:37:21Z</time>
      </trkpt>
      <trkpt lat="45.28611" lon="5.78727">
        <ele>2026</ele>
        <time>2013-01-06T10:37:26Z</time>
      </trkpt>
      <trkpt lat="45.28611" lon="5.78727">
        <ele>2026</ele>
        <time>2013-01-06T10:37:31Z</time>
      </trkpt>
      <trkpt lat="45.28613" lon="5.78727">
        <ele>2026</ele>
        <time>2013-01-06T10:37:36Z</time>
      </trkpt>
      <trkpt lat="45.28615" lon="5.78727">
        <ele>2026</ele>
        <time>2013-01-06T10:37:41Z</time>
      </trkpt>
      <trkpt lat="45.28617" lon="5.78728">
        <ele>2027</ele>
        <time>2013-01-06T10:37:46Z</time>
      </trkpt>
      <trkpt lat="45.28618" lon="5.7873">
        <ele>2027</ele>
        <time>2013-01-06T10:37:51Z</time>
      </trkpt>
      <trkpt lat="45.28619" lon="5.78731">
        <ele>2027</ele>
        <time>2013-01-06T10:37:56Z</time>
      </trkpt>
      <trkpt lat="45.28621" lon="5.78733">
        <ele>2027</ele>
        <time>2013-01-06T10:38:01Z</time>
      </trkpt>
      <trkpt lat="45.28623" lon="5.78734">
        <ele>2028</ele>
        <time>2013-01-06T10:38:06Z</time>
      </trkpt>
      <trkpt lat="45.28624" lon="5.78736">
        <ele>2030</ele>
        <time>2013-01-06T10:38:11Z</time>
      </trkpt>
      <trkpt lat="45.28624" lon="5.78735">
        <ele>2029</ele>
        <time>2013-01-06T10:38:16Z</time>
      </trkpt>
      <trkpt lat="45.28624" lon="5.78735">
        <ele>2027</ele>
        <time>2013-01-06T10:38:21Z</time>
      </trkpt>
      <trkpt lat="45.28627" lon="5.78736">
        <ele>2028</ele>
        <time>2013-01-06T10:38:26Z</time>
      </trkpt>
      <trkpt lat="45.28628" lon="5.78736">
        <ele>2029</ele>
        <time>2013-01-06T10:38:31Z</time>
      </trkpt>
      <trkpt lat="45.2863" lon="5.78737">
        <ele>2030</ele>
        <time>2013-01-06T10:38:36Z</time>
      </trkpt>
      <trkpt lat="45.28631" lon="5.78737">
        <ele>2031</ele>
        <time>2013-01-06T10:38:41Z</time>
      </trkpt>
      <trkpt lat="45.28631" lon="5.78739">
        <ele>2032</ele>
        <time>2013-01-06T10:38:46Z</time>
      </trkpt>
      <trkpt lat="45.28631" lon="5.78739">
        <ele>2033</ele>
        <time>2013-01-06T10:38:51Z</time>
      </trkpt>
      <trkpt lat="45.28631" lon="5.78739">
        <ele>2033</ele>
        <time>2013-01-06T10:38:56Z</time>
      </trkpt>
      <trkpt lat="45.28631" lon="5.78739">
        <ele>2034</ele>
        <time>2013-01-06T10:39:01Z</time>
      </trkpt>
      <trkpt lat="45.2863" lon="5.78739">
        <ele>2034</ele>
        <time>2013-01-06T10:39:06Z</time>
      </trkpt>
      <trkpt lat="45.28629" lon="5.7874">
        <ele>2035</ele>
        <time>2013-01-06T10:39:11Z</time>
      </trkpt>
      <trkpt lat="45.28627" lon="5.78741">
        <ele>2035</ele>
        <time>2013-01-06T10:39:16Z</time>
      </trkpt>
      <trkpt lat="45.28626" lon="5.78742">
        <ele>2036</ele>
        <time>2013-01-06T10:39:21Z</time>
      </trkpt>
      <trkpt lat="45.28625" lon="5.78744">
        <ele>2036</ele>
        <time>2013-01-06T10:39:26Z</time>
      </trkpt>
      <trkpt lat="45.28624" lon="5.78745">
        <ele>2036</ele>
        <time>2013-01-06T10:39:31Z</time>
      </trkpt>
      <trkpt lat="45.28623" lon="5.78747">
        <ele>2036</ele>
        <time>2013-01-06T10:39:36Z</time>
      </trkpt>
      <trkpt lat="45.28621" lon="5.78748">
        <ele>2036</ele>
        <time>2013-01-06T10:39:41Z</time>
      </trkpt>
      <trkpt lat="45.2862" lon="5.78749">
        <ele>2037</ele>
        <time>2013-01-06T10:39:46Z</time>
      </trkpt>
      <trkpt lat="45.28619" lon="5.78748">
        <ele>2037</ele>
        <time>2013-01-06T10:39:51Z</time>
      </trkpt>
      <trkpt lat="45.28619" lon="5.78748">
        <ele>2037</ele>
        <time>2013-01-06T10:39:56Z</time>
      </trkpt>
      <trkpt lat="45.28619" lon="5.78748">
        <ele>2037</ele>
        <time>2013-01-06T10:40:01Z</time>
      </trkpt>
      <trkpt lat="45.28618" lon="5.78748">
        <ele>2037</ele>
        <time>2013-01-06T10:40:06Z</time>
      </trkpt>
      <trkpt lat="45.28618" lon="5.78748">
        <ele>2036</ele>
        <time>2013-01-06T10:40:11Z</time>
      </trkpt>
      <trkpt lat="45.28618" lon="5.78748">
        <ele>2036</ele>
        <time>2013-01-06T10:40:16Z</time>
      </trkpt>
      <trkpt lat="45.28618" lon="5.78748">
        <ele>2036</ele>
        <time>2013-01-06T10:40:21Z</time>
      </trkpt>
      <trkpt lat="45.28618" lon="5.78749">
        <ele>2034</ele>
        <time>2013-01-06T10:40:26Z</time>
      </trkpt>
      <trkpt lat="45.28617" lon="5.78749">
        <ele>2034</ele>
        <time>2013-01-06T10:40:31Z</time>
      </trkpt>
      <trkpt lat="45.28616" lon="5.78749">
        <ele>2034</ele>
        <time>2013-01-06T10:40:36Z</time>
      </trkpt>
      <trkpt lat="45.28615" lon="5.7875">
        <ele>2034</ele>
        <time>2013-01-06T10:40:41Z</time>
      </trkpt>
      <trkpt lat="45.28613" lon="5.78751">
        <ele>2035</ele>
        <time>2013-01-06T10:40:46Z</time>
      </trkpt>
      <trkpt lat="45.28612" lon="5.78751">
        <ele>2037</ele>
        <time>2013-01-06T10:40:51Z</time>
      </trkpt>
      <trkpt lat="45.28611" lon="5.78752">
        <ele>2038</ele>
        <time>2013-01-06T10:40:56Z</time>
      </trkpt>
      <trkpt lat="45.28611" lon="5.78752">
        <ele>2038</ele>
        <time>2013-01-06T10:41:01Z</time>
      </trkpt>
      <trkpt lat="45.28612" lon="5.78752">
        <ele>2038</ele>
        <time>2013-01-06T10:41:06Z</time>
      </trkpt>
      <trkpt lat="45.28611" lon="5.78752">
        <ele>2038</ele>
        <time>2013-01-06T10:41:11Z</time>
      </trkpt>
      <trkpt lat="45.28611" lon="5.78751">
        <ele>2038</ele>
        <time>2013-01-06T10:41:16Z</time>
      </trkpt>
      <trkpt lat="45.28611" lon="5.78751">
        <ele>2038</ele>
        <time>2013-01-06T10:41:21Z</time>
      </trkpt>
      <trkpt lat="45.28611" lon="5.7875">
        <ele>2038</ele>
        <time>2013-01-06T10:41:26Z</time>
      </trkpt>
      <trkpt lat="45.28611" lon="5.78751">
        <ele>2039</ele>
        <time>2013-01-06T10:41:31Z</time>
      </trkpt>
      <trkpt lat="45.2861" lon="5.78749">
        <ele>2039</ele>
        <time>2013-01-06T10:41:36Z</time>
      </trkpt>
      <trkpt lat="45.28609" lon="5.7875">
        <ele>2040</ele>
        <time>2013-01-06T10:41:41Z</time>
      </trkpt>
      <trkpt lat="45.28609" lon="5.78751">
        <ele>2039</ele>
        <time>2013-01-06T10:41:46Z</time>
      </trkpt>
      <trkpt lat="45.28609" lon="5.78752">
        <ele>2040</ele>
        <time>2013-01-06T10:41:51Z</time>
      </trkpt>
      <trkpt lat="45.28608" lon="5.78752">
        <ele>2040</ele>
        <time>2013-01-06T10:41:56Z</time>
      </trkpt>
      <trkpt lat="45.28608" lon="5.78752">
        <ele>2040</ele>
        <time>2013-01-06T10:42:01Z</time>
      </trkpt>
      <trkpt lat="45.28608" lon="5.78752">
        <ele>2039</ele>
        <time>2013-01-06T10:42:06Z</time>
      </trkpt>
      <trkpt lat="45.28606" lon="5.78753">
        <ele>2040</ele>
        <time>2013-01-06T10:42:11Z</time>
      </trkpt>
      <trkpt lat="45.28604" lon="5.78754">
        <ele>2041</ele>
        <time>2013-01-06T10:42:16Z</time>
      </trkpt>
      <trkpt lat="45.28604" lon="5.78754">
        <ele>2042</ele>
        <time>2013-01-06T10:42:21Z</time>
      </trkpt>
      <trkpt lat="45.28605" lon="5.78755">
        <ele>2042</ele>
        <time>2013-01-06T10:42:26Z</time>
      </trkpt>
      <trkpt lat="45.28605" lon="5.78756">
        <ele>2042</ele>
        <time>2013-01-06T10:42:31Z</time>
      </trkpt>
      <trkpt lat="45.28605" lon="5.78756">
        <ele>2042</ele>
        <time>2013-01-06T10:42:36Z</time>
      </trkpt>
      <trkpt lat="45.28604" lon="5.78756">
        <ele>2042</ele>
        <time>2013-01-06T10:42:41Z</time>
      </trkpt>
      <trkpt lat="45.28604" lon="5.78756">
        <ele>2041</ele>
        <time>2013-01-06T10:42:46Z</time>
      </trkpt>
      <trkpt lat="45.28604" lon="5.78756">
        <ele>2041</ele>
        <time>2013-01-06T10:42:51Z</time>
      </trkpt>
      <trkpt lat="45.28603" lon="5.78757">
        <ele>2040</ele>
        <time>2013-01-06T10:42:56Z</time>
      </trkpt>
      <trkpt lat="45.28603" lon="5.78757">
        <ele>2039</ele>
        <time>2013-01-06T10:43:01Z</time>
      </trkpt>
      <trkpt lat="45.28604" lon="5.78758">
        <ele>2039</ele>
        <time>2013-01-06T10:43:06Z</time>
      </trkpt>
      <trkpt lat="45.28606" lon="5.78758">
        <ele>2040</ele>
        <time>2013-01-06T10:43:11Z</time>
      </trkpt>
      <trkpt lat="45.28608" lon="5.78759">
        <ele>2041</ele>
        <time>2013-01-06T10:43:16Z</time>
      </trkpt>
      <trkpt lat="45.28609" lon="5.78761">
        <ele>2042</ele>
        <time>2013-01-06T10:43:21Z</time>
      </trkpt>
      <trkpt lat="45.28611" lon="5.78762">
        <ele>2042</ele>
        <time>2013-01-06T10:43:26Z</time>
      </trkpt>
      <trkpt lat="45.28611" lon="5.78762">
        <ele>2043</ele>
        <time>2013-01-06T10:43:31Z</time>
      </trkpt>
      <trkpt lat="45.28611" lon="5.78762">
        <ele>2043</ele>
        <time>2013-01-06T10:43:36Z</time>
      </trkpt>
      <trkpt lat="45.28611" lon="5.78762">
        <ele>2043</ele>
        <time>2013-01-06T10:43:41Z</time>
      </trkpt>
      <trkpt lat="45.28611" lon="5.78762">
        <ele>2043</ele>
        <time>2013-01-06T10:43:46Z</time>
      </trkpt>
      <trkpt lat="45.28611" lon="5.78762">
        <ele>2044</ele>
        <time>2013-01-06T10:43:51Z</time>
      </trkpt>
      <trkpt lat="45.28611" lon="5.78762">
        <ele>2044</ele>
        <time>2013-01-06T10:43:56Z</time>
      </trkpt>
      <trkpt lat="45.2861" lon="5.78763">
        <ele>2044</ele>
        <time>2013-01-06T10:44:01Z</time>
      </trkpt>
      <trkpt lat="45.28609" lon="5.78764">
        <ele>2045</ele>
        <time>2013-01-06T10:44:06Z</time>
      </trkpt>
      <trkpt lat="45.28607" lon="5.78765">
        <ele>2046</ele>
        <time>2013-01-06T10:44:11Z</time>
      </trkpt>
      <trkpt lat="45.28606" lon="5.78766">
        <ele>2046</ele>
        <time>2013-01-06T10:44:16Z</time>
      </trkpt>
      <trkpt lat="45.28606" lon="5.78767">
        <ele>2047</ele>
        <time>2013-01-06T10:44:21Z</time>
      </trkpt>
      <trkpt lat="45.28604" lon="5.78768">
        <ele>2048</ele>
        <time>2013-01-06T10:44:26Z</time>
      </trkpt>
      <trkpt lat="45.28602" lon="5.78769">
        <ele>2048</ele>
        <time>2013-01-06T10:44:31Z</time>
      </trkpt>
      <trkpt lat="45.286" lon="5.78771">
        <ele>2049</ele>
        <time>2013-01-06T10:44:36Z</time>
      </trkpt>
      <trkpt lat="45.28598" lon="5.78771">
        <ele>2050</ele>
        <time>2013-01-06T10:44:41Z</time>
      </trkpt>
      <trkpt lat="45.28598" lon="5.78771">
        <ele>2050</ele>
        <time>2013-01-06T10:44:46Z</time>
      </trkpt>
      <trkpt lat="45.28598" lon="5.78771">
        <ele>2050</ele>
        <time>2013-01-06T10:44:51Z</time>
      </trkpt>
      <trkpt lat="45.28598" lon="5.78771">
        <ele>2051</ele>
        <time>2013-01-06T10:44:56Z</time>
      </trkpt>
      <trkpt lat="45.286" lon="5.78772">
        <ele>2050</ele>
        <time>2013-01-06T10:45:01Z</time>
      </trkpt>
      <trkpt lat="45.28601" lon="5.78772">
        <ele>2050</ele>
        <time>2013-01-06T10:45:06Z</time>
      </trkpt>
      <trkpt lat="45.28601" lon="5.78771">
        <ele>2050</ele>
        <time>2013-01-06T10:45:11Z</time>
      </trkpt>
      <trkpt lat="45.286" lon="5.78771">
        <ele>2050</ele>
        <time>2013-01-06T10:45:16Z</time>
      </trkpt>
      <trkpt lat="45.286" lon="5.78771">
        <ele>2050</ele>
        <time>2013-01-06T10:45:21Z</time>
      </trkpt>
      <trkpt lat="45.286" lon="5.7877">
        <ele>2050</ele>
        <time>2013-01-06T10:45:26Z</time>
      </trkpt>
      <trkpt lat="45.286" lon="5.7877">
        <ele>2050</ele>
        <time>2013-01-06T10:45:31Z</time>
      </trkpt>
      <trkpt lat="45.28602" lon="5.78771">
        <ele>2050</ele>
        <time>2013-01-06T10:45:36Z</time>
      </trkpt>
      <trkpt lat="45.28604" lon="5.78771">
        <ele>2051</ele>
        <time>2013-01-06T10:45:41Z</time>
      </trkpt>
      <trkpt lat="45.28605" lon="5.78772">
        <ele>2051</ele>
        <time>2013-01-06T10:45:46Z</time>
      </trkpt>
      <trkpt lat="45.28606" lon="5.78772">
        <ele>2051</ele>
        <time>2013-01-06T10:45:51Z</time>
      </trkpt>
      <trkpt lat="45.28608" lon="5.78773">
        <ele>2052</ele>
        <time>2013-01-06T10:45:56Z</time>
      </trkpt>
      <trkpt lat="45.2861" lon="5.78773">
        <ele>2052</ele>
        <time>2013-01-06T10:46:01Z</time>
      </trkpt>
      <trkpt lat="45.28611" lon="5.78774">
        <ele>2052</ele>
        <time>2013-01-06T10:46:06Z</time>
      </trkpt>
      <trkpt lat="45.28614" lon="5.78774">
        <ele>2052</ele>
        <time>2013-01-06T10:46:11Z</time>
      </trkpt>
      <trkpt lat="45.28615" lon="5.78774">
        <ele>2051</ele>
        <time>2013-01-06T10:46:16Z</time>
      </trkpt>
      <trkpt lat="45.28616" lon="5.78775">
        <ele>2052</ele>
        <time>2013-01-06T10:46:21Z</time>
      </trkpt>
      <trkpt lat="45.28618" lon="5.78777">
        <ele>2052</ele>
        <time>2013-01-06T10:46:26Z</time>
      </trkpt>
      <trkpt lat="45.2862" lon="5.78777">
        <ele>2053</ele>
        <time>2013-01-06T10:46:31Z</time>
      </trkpt>
      <trkpt lat="45.28621" lon="5.78779">
        <ele>2053</ele>
        <time>2013-01-06T10:46:36Z</time>
      </trkpt>
      <trkpt lat="45.28623" lon="5.7878">
        <ele>2053</ele>
        <time>2013-01-06T10:46:41Z</time>
      </trkpt>
      <trkpt lat="45.28625" lon="5.78781">
        <ele>2054</ele>
        <time>2013-01-06T10:46:46Z</time>
      </trkpt>
      <trkpt lat="45.28627" lon="5.78782">
        <ele>2055</ele>
        <time>2013-01-06T10:46:51Z</time>
      </trkpt>
      <trkpt lat="45.28627" lon="5.78782">
        <ele>2055</ele>
        <time>2013-01-06T10:46:56Z</time>
      </trkpt>
      <trkpt lat="45.28628" lon="5.78783">
        <ele>2056</ele>
        <time>2013-01-06T10:47:01Z</time>
      </trkpt>
      <trkpt lat="45.28631" lon="5.78784">
        <ele>2057</ele>
        <time>2013-01-06T10:47:06Z</time>
      </trkpt>
      <trkpt lat="45.28631" lon="5.78784">
        <ele>2057</ele>
        <time>2013-01-06T10:47:11Z</time>
      </trkpt>
      <trkpt lat="45.28631" lon="5.78784">
        <ele>2057</ele>
        <time>2013-01-06T10:47:16Z</time>
      </trkpt>
      <trkpt lat="45.28631" lon="5.78785">
        <ele>2057</ele>
        <time>2013-01-06T10:47:21Z</time>
      </trkpt>
      <trkpt lat="45.28631" lon="5.78785">
        <ele>2057</ele>
        <time>2013-01-06T10:47:26Z</time>
      </trkpt>
      <trkpt lat="45.28631" lon="5.78785">
        <ele>2058</ele>
        <time>2013-01-06T10:47:31Z</time>
      </trkpt>
      <trkpt lat="45.28631" lon="5.78785">
        <ele>2058</ele>
        <time>2013-01-06T10:47:36Z</time>
      </trkpt>
      <trkpt lat="45.28631" lon="5.78785">
        <ele>2058</ele>
        <time>2013-01-06T10:47:41Z</time>
      </trkpt>
      <trkpt lat="45.28632" lon="5.78785">
        <ele>2058</ele>
        <time>2013-01-06T10:47:46Z</time>
      </trkpt>
      <trkpt lat="45.28632" lon="5.78786">
        <ele>2057</ele>
        <time>2013-01-06T10:47:51Z</time>
      </trkpt>
      <trkpt lat="45.28631" lon="5.78787">
        <ele>2058</ele>
        <time>2013-01-06T10:47:56Z</time>
      </trkpt>
      <trkpt lat="45.28629" lon="5.78787">
        <ele>2059</ele>
        <time>2013-01-06T10:48:01Z</time>
      </trkpt>
      <trkpt lat="45.28628" lon="5.78789">
        <ele>2060</ele>
        <time>2013-01-06T10:48:06Z</time>
      </trkpt>
      <trkpt lat="45.28628" lon="5.78789">
        <ele>2059</ele>
        <time>2013-01-06T10:48:11Z</time>
      </trkpt>
      <trkpt lat="45.28628" lon="5.7879">
        <ele>2059</ele>
        <time>2013-01-06T10:48:16Z</time>
      </trkpt>
      <trkpt lat="45.28627" lon="5.78791">
        <ele>2060</ele>
        <time>2013-01-06T10:48:21Z</time>
      </trkpt>
      <trkpt lat="45.28627" lon="5.78791">
        <ele>2059</ele>
        <time>2013-01-06T10:48:26Z</time>
      </trkpt>
      <trkpt lat="45.28626" lon="5.78791">
        <ele>2060</ele>
        <time>2013-01-06T10:48:31Z</time>
      </trkpt>
      <trkpt lat="45.28626" lon="5.78791">
        <ele>2060</ele>
        <time>2013-01-06T10:48:36Z</time>
      </trkpt>
      <trkpt lat="45.28626" lon="5.78791">
        <ele>2061</ele>
        <time>2013-01-06T10:48:41Z</time>
      </trkpt>
      <trkpt lat="45.28627" lon="5.78791">
        <ele>2061</ele>
        <time>2013-01-06T10:48:46Z</time>
      </trkpt>
      <trkpt lat="45.28629" lon="5.78791">
        <ele>2062</ele>
        <time>2013-01-06T10:48:51Z</time>
      </trkpt>
      <trkpt lat="45.2863" lon="5.78792">
        <ele>2062</ele>
        <time>2013-01-06T10:48:56Z</time>
      </trkpt>
      <trkpt lat="45.2863" lon="5.78792">
        <ele>2062</ele>
        <time>2013-01-06T10:49:01Z</time>
      </trkpt>
      <trkpt lat="45.2863" lon="5.78791">
        <ele>2063</ele>
        <time>2013-01-06T10:49:06Z</time>
      </trkpt>
      <trkpt lat="45.2863" lon="5.78791">
        <ele>2063</ele>
        <time>2013-01-06T10:49:11Z</time>
      </trkpt>
      <trkpt lat="45.2863" lon="5.78791">
        <ele>2063</ele>
        <time>2013-01-06T10:49:16Z</time>
      </trkpt>
      <trkpt lat="45.2863" lon="5.78791">
        <ele>2063</ele>
        <time>2013-01-06T10:49:21Z</time>
      </trkpt>
      <trkpt lat="45.2863" lon="5.78791">
        <ele>2063</ele>
        <time>2013-01-06T10:49:26Z</time>
      </trkpt>
      <trkpt lat="45.2863" lon="5.78791">
        <ele>2063</ele>
        <time>2013-01-06T10:49:31Z</time>
      </trkpt>
      <trkpt lat="45.2863" lon="5.78791">
        <ele>2063</ele>
        <time>2013-01-06T10:49:36Z</time>
      </trkpt>
      <trkpt lat="45.2863" lon="5.78791">
        <ele>2064</ele>
        <time>2013-01-06T10:49:41Z</time>
      </trkpt>
      <trkpt lat="45.28631" lon="5.78791">
        <ele>2064</ele>
        <time>2013-01-06T10:49:46Z</time>
      </trkpt>
      <trkpt lat="45.28633" lon="5.78793">
        <ele>2065</ele>
        <time>2013-01-06T10:49:51Z</time>
      </trkpt>
      <trkpt lat="45.28635" lon="5.78794">
        <ele>2066</ele>
        <time>2013-01-06T10:49:56Z</time>
      </trkpt>
      <trkpt lat="45.28637" lon="5.78796">
        <ele>2067</ele>
        <time>2013-01-06T10:50:01Z</time>
      </trkpt>
      <trkpt lat="45.28637" lon="5.78798">
        <ele>2068</ele>
        <time>2013-01-06T10:50:06Z</time>
      </trkpt>
      <trkpt lat="45.28637" lon="5.78798">
        <ele>2067</ele>
        <time>2013-01-06T10:50:11Z</time>
      </trkpt>
      <trkpt lat="45.28638" lon="5.78798">
        <ele>2067</ele>
        <time>2013-01-06T10:50:16Z</time>
      </trkpt>
      <trkpt lat="45.28637" lon="5.78799">
        <ele>2068</ele>
        <time>2013-01-06T10:50:21Z</time>
      </trkpt>
      <trkpt lat="45.28637" lon="5.78799">
        <ele>2068</ele>
        <time>2013-01-06T10:50:26Z</time>
      </trkpt>
      <trkpt lat="45.28637" lon="5.78798">
        <ele>2068</ele>
        <time>2013-01-06T10:50:31Z</time>
      </trkpt>
      <trkpt lat="45.28637" lon="5.78798">
        <ele>2068</ele>
        <time>2013-01-06T10:50:36Z</time>
      </trkpt>
      <trkpt lat="45.28637" lon="5.78799">
        <ele>2068</ele>
        <time>2013-01-06T10:50:41Z</time>
      </trkpt>
      <trkpt lat="45.28637" lon="5.78799">
        <ele>2068</ele>
        <time>2013-01-06T10:50:46Z</time>
      </trkpt>
      <trkpt lat="45.28637" lon="5.78799">
        <ele>2068</ele>
        <time>2013-01-06T10:50:51Z</time>
      </trkpt>
      <trkpt lat="45.28637" lon="5.78799">
        <ele>2068</ele>
        <time>2013-01-06T10:50:56Z</time>
      </trkpt>
      <trkpt lat="45.2864" lon="5.78799">
        <ele>2068</ele>
        <time>2013-01-06T10:51:01Z</time>
      </trkpt>
      <trkpt lat="45.28644" lon="5.78799">
        <ele>2069</ele>
        <time>2013-01-06T10:51:06Z</time>
      </trkpt>
      <trkpt lat="45.28647" lon="5.788">
        <ele>2070</ele>
        <time>2013-01-06T10:51:11Z</time>
      </trkpt>
      <trkpt lat="45.28652" lon="5.788">
        <ele>2071</ele>
        <time>2013-01-06T10:51:16Z</time>
      </trkpt>
      <trkpt lat="45.28657" lon="5.788">
        <ele>2072</ele>
        <time>2013-01-06T10:51:21Z</time>
      </trkpt>
      <trkpt lat="45.28662" lon="5.788">
        <ele>2072</ele>
        <time>2013-01-06T10:51:26Z</time>
      </trkpt>
      <trkpt lat="45.28663" lon="5.78799">
        <ele>2073</ele>
        <time>2013-01-06T10:51:31Z</time>
      </trkpt>
      <trkpt lat="45.28664" lon="5.78799">
        <ele>2073</ele>
        <time>2013-01-06T10:51:36Z</time>
      </trkpt>
      <trkpt lat="45.28663" lon="5.78799">
        <ele>2072</ele>
        <time>2013-01-06T10:51:41Z</time>
      </trkpt>
      <trkpt lat="45.28663" lon="5.78799">
        <ele>2072</ele>
        <time>2013-01-06T10:51:46Z</time>
      </trkpt>
      <trkpt lat="45.28666" lon="5.78797">
        <ele>2071</ele>
        <time>2013-01-06T10:52:16Z</time>
      </trkpt>
      <trkpt lat="45.28666" lon="5.78797">
        <ele>2071</ele>
        <time>2013-01-06T10:52:21Z</time>
      </trkpt>
      <trkpt lat="45.28666" lon="5.78797">
        <ele>2070</ele>
        <time>2013-01-06T10:52:26Z</time>
      </trkpt>
      <trkpt lat="45.28667" lon="5.78798">
        <ele>2070</ele>
        <time>2013-01-06T10:52:31Z</time>
      </trkpt>
      <trkpt lat="45.28668" lon="5.78798">
        <ele>2070</ele>
        <time>2013-01-06T10:52:36Z</time>
      </trkpt>
      <trkpt lat="45.28668" lon="5.78798">
        <ele>2070</ele>
        <time>2013-01-06T10:52:41Z</time>
      </trkpt>
      <trkpt lat="45.28668" lon="5.788">
        <ele>2071</ele>
        <time>2013-01-06T10:52:46Z</time>
      </trkpt>
      <trkpt lat="45.28669" lon="5.788">
        <ele>2071</ele>
        <time>2013-01-06T10:52:51Z</time>
      </trkpt>
      <trkpt lat="45.2867" lon="5.78799">
        <ele>2073</ele>
        <time>2013-01-06T10:52:56Z</time>
      </trkpt>
      <trkpt lat="45.28671" lon="5.78797">
        <ele>2074</ele>
        <time>2013-01-06T10:53:01Z</time>
      </trkpt>
      <trkpt lat="45.28673" lon="5.78797">
        <ele>2074</ele>
        <time>2013-01-06T10:53:06Z</time>
      </trkpt>
      <trkpt lat="45.28673" lon="5.78797">
        <ele>2075</ele>
        <time>2013-01-06T10:53:11Z</time>
      </trkpt>
      <trkpt lat="45.28674" lon="5.78796">
        <ele>2075</ele>
        <time>2013-01-06T10:53:16Z</time>
      </trkpt>
      <trkpt lat="45.28677" lon="5.78797">
        <ele>2075</ele>
        <time>2013-01-06T10:53:21Z</time>
      </trkpt>
      <trkpt lat="45.28681" lon="5.78798">
        <ele>2076</ele>
        <time>2013-01-06T10:53:26Z</time>
      </trkpt>
      <trkpt lat="45.28684" lon="5.78798">
        <ele>2076</ele>
        <time>2013-01-06T10:53:31Z</time>
      </trkpt>
      <trkpt lat="45.28686" lon="5.78799">
        <ele>2077</ele>
        <time>2013-01-06T10:53:36Z</time>
      </trkpt>
      <trkpt lat="45.28689" lon="5.788">
        <ele>2077</ele>
        <time>2013-01-06T10:53:41Z</time>
      </trkpt>
      <trkpt lat="45.28692" lon="5.78798">
        <ele>2077</ele>
        <time>2013-01-06T10:53:46Z</time>
      </trkpt>
      <trkpt lat="45.28695" lon="5.78798">
        <ele>2077</ele>
        <time>2013-01-06T10:53:51Z</time>
      </trkpt>
      <trkpt lat="45.28697" lon="5.78798">
        <ele>2077</ele>
        <time>2013-01-06T10:53:56Z</time>
      </trkpt>
      <trkpt lat="45.28699" lon="5.78798">
        <ele>2077</ele>
        <time>2013-01-06T10:54:01Z</time>
      </trkpt>
      <trkpt lat="45.28699" lon="5.78798">
        <ele>2077</ele>
        <time>2013-01-06T10:54:06Z</time>
      </trkpt>
      <trkpt lat="45.28701" lon="5.78797">
        <ele>2077</ele>
        <time>2013-01-06T10:54:11Z</time>
      </trkpt>
      <trkpt lat="45.28703" lon="5.78796">
        <ele>2077</ele>
        <time>2013-01-06T10:54:16Z</time>
      </trkpt>
      <trkpt lat="45.28704" lon="5.78796">
        <ele>2077</ele>
        <time>2013-01-06T10:54:21Z</time>
      </trkpt>
      <trkpt lat="45.28708" lon="5.78794">
        <ele>2076</ele>
        <time>2013-01-06T10:54:26Z</time>
      </trkpt>
      <trkpt lat="45.28708" lon="5.78794">
        <ele>2077</ele>
        <time>2013-01-06T10:54:31Z</time>
      </trkpt>
      <trkpt lat="45.28707" lon="5.78794">
        <ele>2077</ele>
        <time>2013-01-06T10:54:36Z</time>
      </trkpt>
      <trkpt lat="45.28709" lon="5.78792">
        <ele>2077</ele>
        <time>2013-01-06T10:54:41Z</time>
      </trkpt>
      <trkpt lat="45.28709" lon="5.78791">
        <ele>2078</ele>
        <time>2013-01-06T10:54:46Z</time>
      </trkpt>
      <trkpt lat="45.2871" lon="5.78791">
        <ele>2078</ele>
        <time>2013-01-06T10:54:51Z</time>
      </trkpt>
      <trkpt lat="45.28711" lon="5.7879">
        <ele>2078</ele>
        <time>2013-01-06T10:54:56Z</time>
      </trkpt>
      <trkpt lat="45.28712" lon="5.78788">
        <ele>2078</ele>
        <time>2013-01-06T10:55:01Z</time>
      </trkpt>
      <trkpt lat="45.28711" lon="5.78784">
        <ele>2080</ele>
        <time>2013-01-06T10:55:06Z</time>
      </trkpt>
      <trkpt lat="45.28711" lon="5.78784">
        <ele>2080</ele>
        <time>2013-01-06T10:55:11Z</time>
      </trkpt>
      <trkpt lat="45.28712" lon="5.78783">
        <ele>2080</ele>
        <time>2013-01-06T10:55:16Z</time>
      </trkpt>
      <trkpt lat="45.28712" lon="5.78783">
        <ele>2080</ele>
        <time>2013-01-06T10:55:21Z</time>
      </trkpt>
      <trkpt lat="45.28712" lon="5.78782">
        <ele>2079</ele>
        <time>2013-01-06T10:55:26Z</time>
      </trkpt>
      <trkpt lat="45.28713" lon="5.78782">
        <ele>2080</ele>
        <time>2013-01-06T10:55:31Z</time>
      </trkpt>
      <trkpt lat="45.28714" lon="5.78782">
        <ele>2080</ele>
        <time>2013-01-06T10:55:36Z</time>
      </trkpt>
      <trkpt lat="45.28715" lon="5.78783">
        <ele>2080</ele>
        <time>2013-01-06T10:55:41Z</time>
      </trkpt>
      <trkpt lat="45.28717" lon="5.78784">
        <ele>2081</ele>
        <time>2013-01-06T10:55:46Z</time>
      </trkpt>
      <trkpt lat="45.28717" lon="5.78784">
        <ele>2081</ele>
        <time>2013-01-06T10:55:51Z</time>
      </trkpt>
      <trkpt lat="45.28718" lon="5.78785">
        <ele>2081</ele>
        <time>2013-01-06T10:55:56Z</time>
      </trkpt>
      <trkpt lat="45.28721" lon="5.78785">
        <ele>2081</ele>
        <time>2013-01-06T10:56:01Z</time>
      </trkpt>
      <trkpt lat="45.28721" lon="5.78784">
        <ele>2081</ele>
        <time>2013-01-06T10:56:06Z</time>
      </trkpt>
      <trkpt lat="45.28722" lon="5.78785">
        <ele>2080</ele>
        <time>2013-01-06T10:56:11Z</time>
      </trkpt>
      <trkpt lat="45.28726" lon="5.78787">
        <ele>2080</ele>
        <time>2013-01-06T10:56:16Z</time>
      </trkpt>
      <trkpt lat="45.2873" lon="5.7879">
        <ele>2081</ele>
        <time>2013-01-06T10:56:21Z</time>
      </trkpt>
      <trkpt lat="45.28733" lon="5.78793">
        <ele>2082</ele>
        <time>2013-01-06T10:56:26Z</time>
      </trkpt>
      <trkpt lat="45.28734" lon="5.78795">
        <ele>2083</ele>
        <time>2013-01-06T10:56:31Z</time>
      </trkpt>
      <trkpt lat="45.28732" lon="5.78796">
        <ele>2083</ele>
        <time>2013-01-06T10:56:36Z</time>
      </trkpt>
      <trkpt lat="45.28734" lon="5.78799">
        <ele>2084</ele>
        <time>2013-01-06T10:56:41Z</time>
      </trkpt>
      <trkpt lat="45.28734" lon="5.78799">
        <ele>2085</ele>
        <time>2013-01-06T10:56:46Z</time>
      </trkpt>
      <trkpt lat="45.28735" lon="5.78799">
        <ele>2085</ele>
        <time>2013-01-06T10:56:51Z</time>
      </trkpt>
      <trkpt lat="45.28735" lon="5.78799">
        <ele>2085</ele>
        <time>2013-01-06T10:56:56Z</time>
      </trkpt>
      <trkpt lat="45.28735" lon="5.78798">
        <ele>2085</ele>
        <time>2013-01-06T10:57:01Z</time>
      </trkpt>
      <trkpt lat="45.28735" lon="5.78798">
        <ele>2085</ele>
        <time>2013-01-06T10:57:06Z</time>
      </trkpt>
      <trkpt lat="45.28735" lon="5.78798">
        <ele>2085</ele>
        <time>2013-01-06T10:57:11Z</time>
      </trkpt>
      <trkpt lat="45.28735" lon="5.78798">
        <ele>2085</ele>
        <time>2013-01-06T10:57:16Z</time>
      </trkpt>
      <trkpt lat="45.28735" lon="5.78798">
        <ele>2084</ele>
        <time>2013-01-06T10:57:21Z</time>
      </trkpt>
      <trkpt lat="45.28735" lon="5.78798">
        <ele>2084</ele>
        <time>2013-01-06T10:57:26Z</time>
      </trkpt>
      <trkpt lat="45.28735" lon="5.78798">
        <ele>2084</ele>
        <time>2013-01-06T10:57:31Z</time>
      </trkpt>
      <trkpt lat="45.28735" lon="5.78798">
        <ele>2084</ele>
        <time>2013-01-06T10:57:36Z</time>
      </trkpt>
      <trkpt lat="45.28735" lon="5.78799">
        <ele>2083</ele>
        <time>2013-01-06T10:57:41Z</time>
      </trkpt>
      <trkpt lat="45.28735" lon="5.788">
        <ele>2083</ele>
        <time>2013-01-06T10:57:46Z</time>
      </trkpt>
      <trkpt lat="45.28735" lon="5.788">
        <ele>2083</ele>
        <time>2013-01-06T10:57:51Z</time>
      </trkpt>
      <trkpt lat="45.28735" lon="5.788">
        <ele>2083</ele>
        <time>2013-01-06T10:57:56Z</time>
      </trkpt>
      <trkpt lat="45.28736" lon="5.788">
        <ele>2083</ele>
        <time>2013-01-06T10:58:01Z</time>
      </trkpt>
      <trkpt lat="45.28735" lon="5.78801">
        <ele>2083</ele>
        <time>2013-01-06T10:58:06Z</time>
      </trkpt>
      <trkpt lat="45.28736" lon="5.78801">
        <ele>2083</ele>
        <time>2013-01-06T10:58:11Z</time>
      </trkpt>
      <trkpt lat="45.28735" lon="5.788">
        <ele>2083</ele>
        <time>2013-01-06T10:58:16Z</time>
      </trkpt>
      <trkpt lat="45.28735" lon="5.788">
        <ele>2083</ele>
        <time>2013-01-06T10:58:21Z</time>
      </trkpt>
      <trkpt lat="45.28736" lon="5.788">
        <ele>2083</ele>
        <time>2013-01-06T10:58:26Z</time>
      </trkpt>
      <trkpt lat="45.28736" lon="5.78801">
        <ele>2083</ele>
        <time>2013-01-06T10:58:31Z</time>
      </trkpt>
      <trkpt lat="45.28736" lon="5.78801">
        <ele>2084</ele>
        <time>2013-01-06T10:58:36Z</time>
      </trkpt>
      <trkpt lat="45.28735" lon="5.78801">
        <ele>2084</ele>
        <time>2013-01-06T10:58:41Z</time>
      </trkpt>
      <trkpt lat="45.28736" lon="5.78801">
        <ele>2084</ele>
        <time>2013-01-06T10:58:46Z</time>
      </trkpt>
      <trkpt lat="45.28735" lon="5.78801">
        <ele>2083</ele>
        <time>2013-01-06T10:58:51Z</time>
      </trkpt>
      <trkpt lat="45.28735" lon="5.78801">
        <ele>2083</ele>
        <time>2013-01-06T10:58:56Z</time>
      </trkpt>
      <trkpt lat="45.28735" lon="5.78801">
        <ele>2083</ele>
        <time>2013-01-06T10:59:01Z</time>
      </trkpt>
      <trkpt lat="45.28735" lon="5.78801">
        <ele>2083</ele>
        <time>2013-01-06T10:59:06Z</time>
      </trkpt>
      <trkpt lat="45.28735" lon="5.78801">
        <ele>2083</ele>
        <time>2013-01-06T10:59:11Z</time>
      </trkpt>
      <trkpt lat="45.28735" lon="5.788">
        <ele>2083</ele>
        <time>2013-01-06T10:59:16Z</time>
      </trkpt>
      <trkpt lat="45.28735" lon="5.788">
        <ele>2083</ele>
        <time>2013-01-06T10:59:21Z</time>
      </trkpt>
      <trkpt lat="45.28735" lon="5.788">
        <ele>2083</ele>
        <time>2013-01-06T10:59:26Z</time>
      </trkpt>
      <trkpt lat="45.28735" lon="5.788">
        <ele>2083</ele>
        <time>2013-01-06T10:59:31Z</time>
      </trkpt>
      <trkpt lat="45.28735" lon="5.788">
        <ele>2084</ele>
        <time>2013-01-06T10:59:36Z</time>
      </trkpt>
      <trkpt lat="45.28734" lon="5.788">
        <ele>2084</ele>
        <time>2013-01-06T10:59:41Z</time>
      </trkpt>
      <trkpt lat="45.28734" lon="5.788">
        <ele>2085</ele>
        <time>2013-01-06T10:59:46Z</time>
      </trkpt>
      <trkpt lat="45.28734" lon="5.788">
        <ele>2085</ele>
        <time>2013-01-06T10:59:51Z</time>
      </trkpt>
      <trkpt lat="45.28735" lon="5.78799">
        <ele>2084</ele>
        <time>2013-01-06T10:59:56Z</time>
      </trkpt>
      <trkpt lat="45.28735" lon="5.78798">
        <ele>2084</ele>
        <time>2013-01-06T11:00:01Z</time>
      </trkpt>
      <trkpt lat="45.28734" lon="5.78799">
        <ele>2084</ele>
        <time>2013-01-06T11:00:06Z</time>
      </trkpt>
      <trkpt lat="45.28738" lon="5.78797">
        <ele>2083</ele>
        <time>2013-01-06T11:00:11Z</time>
      </trkpt>
      <trkpt lat="45.28741" lon="5.78798">
        <ele>2083</ele>
        <time>2013-01-06T11:00:16Z</time>
      </trkpt>
      <trkpt lat="45.28744" lon="5.788">
        <ele>2082</ele>
        <time>2013-01-06T11:00:21Z</time>
      </trkpt>
      <trkpt lat="45.28747" lon="5.78802">
        <ele>2082</ele>
        <time>2013-01-06T11:00:26Z</time>
      </trkpt>
      <trkpt lat="45.2875" lon="5.78804">
        <ele>2083</ele>
        <time>2013-01-06T11:00:31Z</time>
      </trkpt>
      <trkpt lat="45.28752" lon="5.78806">
        <ele>2083</ele>
        <time>2013-01-06T11:00:36Z</time>
      </trkpt>
      <trkpt lat="45.28755" lon="5.78809">
        <ele>2084</ele>
        <time>2013-01-06T11:00:41Z</time>
      </trkpt>
      <trkpt lat="45.28758" lon="5.78812">
        <ele>2084</ele>
        <time>2013-01-06T11:00:46Z</time>
      </trkpt>
      <trkpt lat="45.28761" lon="5.78815">
        <ele>2085</ele>
        <time>2013-01-06T11:00:51Z</time>
      </trkpt>
      <trkpt lat="45.28764" lon="5.78818">
        <ele>2085</ele>
        <time>2013-01-06T11:00:56Z</time>
      </trkpt>
      <trkpt lat="45.28764" lon="5.78819">
        <ele>2085</ele>
        <time>2013-01-06T11:01:01Z</time>
      </trkpt>
      <trkpt lat="45.28766" lon="5.7882">
        <ele>2085</ele>
        <time>2013-01-06T11:01:06Z</time>
      </trkpt>
      <trkpt lat="45.28768" lon="5.78821">
        <ele>2085</ele>
        <time>2013-01-06T11:01:11Z</time>
      </trkpt>
      <trkpt lat="45.28768" lon="5.78822">
        <ele>2084</ele>
        <time>2013-01-06T11:01:16Z</time>
      </trkpt>
      <trkpt lat="45.28768" lon="5.78822">
        <ele>2084</ele>
        <time>2013-01-06T11:01:21Z</time>
      </trkpt>
      <trkpt lat="45.28767" lon="5.78822">
        <ele>2084</ele>
        <time>2013-01-06T11:01:26Z</time>
      </trkpt>
      <trkpt lat="45.28767" lon="5.78822">
        <ele>2084</ele>
        <time>2013-01-06T11:01:31Z</time>
      </trkpt>
      <trkpt lat="45.28767" lon="5.78822">
        <ele>2084</ele>
        <time>2013-01-06T11:01:36Z</time>
      </trkpt>
      <trkpt lat="45.28767" lon="5.78822">
        <ele>2084</ele>
        <time>2013-01-06T11:01:41Z</time>
      </trkpt>
      <trkpt lat="45.28767" lon="5.78822">
        <ele>2084</ele>
        <time>2013-01-06T11:01:46Z</time>
      </trkpt>
      <trkpt lat="45.28767" lon="5.78822">
        <ele>2084</ele>
        <time>2013-01-06T11:01:51Z</time>
      </trkpt>
      <trkpt lat="45.28767" lon="5.78822">
        <ele>2084</ele>
        <time>2013-01-06T11:01:56Z</time>
      </trkpt>
      <trkpt lat="45.28767" lon="5.78822">
        <ele>2084</ele>
        <time>2013-01-06T11:02:01Z</time>
      </trkpt>
      <trkpt lat="45.28767" lon="5.78822">
        <ele>2084</ele>
        <time>2013-01-06T11:02:06Z</time>
      </trkpt>
      <trkpt lat="45.28767" lon="5.78822">
        <ele>2084</ele>
        <time>2013-01-06T11:02:11Z</time>
      </trkpt>
      <trkpt lat="45.28767" lon="5.78822">
        <ele>2084</ele>
        <time>2013-01-06T11:02:16Z</time>
      </trkpt>
      <trkpt lat="45.28767" lon="5.78822">
        <ele>2084</ele>
        <time>2013-01-06T11:02:21Z</time>
      </trkpt>
      <trkpt lat="45.28767" lon="5.78822">
        <ele>2084</ele>
        <time>2013-01-06T11:02:26Z</time>
      </trkpt>
      <trkpt lat="45.28767" lon="5.78822">
        <ele>2084</ele>
        <time>2013-01-06T11:02:31Z</time>
      </trkpt>
      <trkpt lat="45.28767" lon="5.78822">
        <ele>2084</ele>
        <time>2013-01-06T11:02:36Z</time>
      </trkpt>
      <trkpt lat="45.28767" lon="5.78822">
        <ele>2084</ele>
        <time>2013-01-06T11:02:41Z</time>
      </trkpt>
      <trkpt lat="45.28767" lon="5.78822">
        <ele>2084</ele>
        <time>2013-01-06T11:02:46Z</time>
      </trkpt>
      <trkpt lat="45.28767" lon="5.78822">
        <ele>2084</ele>
        <time>2013-01-06T11:02:51Z</time>
      </trkpt>
      <trkpt lat="45.28767" lon="5.78822">
        <ele>2084</ele>
        <time>2013-01-06T11:02:56Z</time>
      </trkpt>
      <trkpt lat="45.28767" lon="5.78823">
        <ele>2085</ele>
        <time>2013-01-06T11:03:01Z</time>
      </trkpt>
      <trkpt lat="45.28767" lon="5.78823">
        <ele>2085</ele>
        <time>2013-01-06T11:03:06Z</time>
      </trkpt>
      <trkpt lat="45.28767" lon="5.78823">
        <ele>2085</ele>
        <time>2013-01-06T11:03:11Z</time>
      </trkpt>
      <trkpt lat="45.28767" lon="5.78823">
        <ele>2085</ele>
        <time>2013-01-06T11:03:16Z</time>
      </trkpt>
      <trkpt lat="45.28767" lon="5.78823">
        <ele>2085</ele>
        <time>2013-01-06T11:03:21Z</time>
      </trkpt>
      <trkpt lat="45.28767" lon="5.78823">
        <ele>2084</ele>
        <time>2013-01-06T11:03:26Z</time>
      </trkpt>
      <trkpt lat="45.28767" lon="5.78823">
        <ele>2084</ele>
        <time>2013-01-06T11:03:31Z</time>
      </trkpt>
      <trkpt lat="45.28767" lon="5.78823">
        <ele>2084</ele>
        <time>2013-01-06T11:03:36Z</time>
      </trkpt>
      <trkpt lat="45.28767" lon="5.78823">
        <ele>2084</ele>
        <time>2013-01-06T11:03:41Z</time>
      </trkpt>
      <trkpt lat="45.28768" lon="5.78823">
        <ele>2084</ele>
        <time>2013-01-06T11:03:46Z</time>
      </trkpt>
      <trkpt lat="45.28768" lon="5.78824">
        <ele>2084</ele>
        <time>2013-01-06T11:03:51Z</time>
      </trkpt>
      <trkpt lat="45.28768" lon="5.78824">
        <ele>2084</ele>
        <time>2013-01-06T11:03:56Z</time>
      </trkpt>
      <trkpt lat="45.28768" lon="5.78824">
        <ele>2084</ele>
        <time>2013-01-06T11:04:01Z</time>
      </trkpt>
      <trkpt lat="45.28768" lon="5.78824">
        <ele>2085</ele>
        <time>2013-01-06T11:04:06Z</time>
      </trkpt>
      <trkpt lat="45.28768" lon="5.78825">
        <ele>2084</ele>
        <time>2013-01-06T11:04:11Z</time>
      </trkpt>
      <trkpt lat="45.28767" lon="5.78824">
        <ele>2084</ele>
        <time>2013-01-06T11:04:16Z</time>
      </trkpt>
      <trkpt lat="45.28767" lon="5.78823">
        <ele>2085</ele>
        <time>2013-01-06T11:04:21Z</time>
      </trkpt>
      <trkpt lat="45.28766" lon="5.78821">
        <ele>2086</ele>
        <time>2013-01-06T11:04:26Z</time>
      </trkpt>
      <trkpt lat="45.28764" lon="5.78818">
        <ele>2086</ele>
        <time>2013-01-06T11:04:31Z</time>
      </trkpt>
      <trkpt lat="45.28763" lon="5.78817">
        <ele>2085</ele>
        <time>2013-01-06T11:04:36Z</time>
      </trkpt>
      <trkpt lat="45.28761" lon="5.78817">
        <ele>2085</ele>
        <time>2013-01-06T11:04:41Z</time>
      </trkpt>
      <trkpt lat="45.28761" lon="5.78817">
        <ele>2084</ele>
        <time>2013-01-06T11:04:46Z</time>
      </trkpt>
      <trkpt lat="45.2876" lon="5.78816">
        <ele>2084</ele>
        <time>2013-01-06T11:04:51Z</time>
      </trkpt>
      <trkpt lat="45.28756" lon="5.78813">
        <ele>2083</ele>
        <time>2013-01-06T11:04:56Z</time>
      </trkpt>
      <trkpt lat="45.28753" lon="5.7881">
        <ele>2083</ele>
        <time>2013-01-06T11:05:01Z</time>
      </trkpt>
      <trkpt lat="45.2875" lon="5.78807">
        <ele>2082</ele>
        <time>2013-01-06T11:05:06Z</time>
      </trkpt>
      <trkpt lat="45.2875" lon="5.78808">
        <ele>2081</ele>
        <time>2013-01-06T11:05:11Z</time>
      </trkpt>
      <trkpt lat="45.2875" lon="5.78808">
        <ele>2081</ele>
        <time>2013-01-06T11:05:16Z</time>
      </trkpt>
      <trkpt lat="45.28751" lon="5.78807">
        <ele>2081</ele>
        <time>2013-01-06T11:05:21Z</time>
      </trkpt>
      <trkpt lat="45.28751" lon="5.78807">
        <ele>2081</ele>
        <time>2013-01-06T11:05:26Z</time>
      </trkpt>
      <trkpt lat="45.28751" lon="5.78807">
        <ele>2080</ele>
        <time>2013-01-06T11:05:31Z</time>
      </trkpt>
      <trkpt lat="45.28751" lon="5.78807">
        <ele>2080</ele>
        <time>2013-01-06T11:05:36Z</time>
      </trkpt>
      <trkpt lat="45.28751" lon="5.78807">
        <ele>2080</ele>
        <time>2013-01-06T11:05:41Z</time>
      </trkpt>
      <trkpt lat="45.28748" lon="5.78805">
        <ele>2080</ele>
        <time>2013-01-06T11:05:46Z</time>
      </trkpt>
      <trkpt lat="45.28744" lon="5.78802">
        <ele>2080</ele>
        <time>2013-01-06T11:05:51Z</time>
      </trkpt>
      <trkpt lat="45.28743" lon="5.78801">
        <ele>2079</ele>
        <time>2013-01-06T11:05:56Z</time>
      </trkpt>
      <trkpt lat="45.28738" lon="5.78799">
        <ele>2079</ele>
        <time>2013-01-06T11:06:01Z</time>
      </trkpt>
      <trkpt lat="45.28735" lon="5.78797">
        <ele>2079</ele>
        <time>2013-01-06T11:06:06Z</time>
      </trkpt>
      <trkpt lat="45.28731" lon="5.78794">
        <ele>2078</ele>
        <time>2013-01-06T11:06:11Z</time>
      </trkpt>
      <trkpt lat="45.28728" lon="5.78793">
        <ele>2078</ele>
        <time>2013-01-06T11:06:16Z</time>
      </trkpt>
      <trkpt lat="45.28722" lon="5.7879">
        <ele>2078</ele>
        <time>2013-01-06T11:06:21Z</time>
      </trkpt>
      <trkpt lat="45.28718" lon="5.78788">
        <ele>2078</ele>
        <time>2013-01-06T11:06:26Z</time>
      </trkpt>
      <trkpt lat="45.28718" lon="5.78788">
        <ele>2078</ele>
        <time>2013-01-06T11:06:31Z</time>
      </trkpt>
      <trkpt lat="45.28717" lon="5.78788">
        <ele>2078</ele>
        <time>2013-01-06T11:06:36Z</time>
      </trkpt>
      <trkpt lat="45.28715" lon="5.78787">
        <ele>2079</ele>
        <time>2013-01-06T11:06:41Z</time>
      </trkpt>
      <trkpt lat="45.28715" lon="5.78786">
        <ele>2079</ele>
        <time>2013-01-06T11:06:46Z</time>
      </trkpt>
      <trkpt lat="45.28713" lon="5.78785">
        <ele>2078</ele>
        <time>2013-01-06T11:06:51Z</time>
      </trkpt>
      <trkpt lat="45.28712" lon="5.78783">
        <ele>2077</ele>
        <time>2013-01-06T11:06:56Z</time>
      </trkpt>
      <trkpt lat="45.28712" lon="5.78784">
        <ele>2077</ele>
        <time>2013-01-06T11:07:01Z</time>
      </trkpt>
      <trkpt lat="45.28711" lon="5.78786">
        <ele>2076</ele>
        <time>2013-01-06T11:07:06Z</time>
      </trkpt>
      <trkpt lat="45.28711" lon="5.78787">
        <ele>2075</ele>
        <time>2013-01-06T11:07:11Z</time>
      </trkpt>
      <trkpt lat="45.28712" lon="5.78789">
        <ele>2075</ele>
        <time>2013-01-06T11:07:16Z</time>
      </trkpt>
      <trkpt lat="45.28712" lon="5.7879">
        <ele>2075</ele>
        <time>2013-01-06T11:07:21Z</time>
      </trkpt>
      <trkpt lat="45.28711" lon="5.7879">
        <ele>2074</ele>
        <time>2013-01-06T11:07:26Z</time>
      </trkpt>
      <trkpt lat="45.28711" lon="5.78791">
        <ele>2074</ele>
        <time>2013-01-06T11:07:31Z</time>
      </trkpt>
      <trkpt lat="45.28709" lon="5.78793">
        <ele>2073</ele>
        <time>2013-01-06T11:07:36Z</time>
      </trkpt>
      <trkpt lat="45.28709" lon="5.78793">
        <ele>2074</ele>
        <time>2013-01-06T11:07:41Z</time>
      </trkpt>
      <trkpt lat="45.28709" lon="5.78793">
        <ele>2074</ele>
        <time>2013-01-06T11:07:46Z</time>
      </trkpt>
      <trkpt lat="45.28708" lon="5.78793">
        <ele>2075</ele>
        <time>2013-01-06T11:07:51Z</time>
      </trkpt>
      <trkpt lat="45.28708" lon="5.78793">
        <ele>2075</ele>
        <time>2013-01-06T11:07:56Z</time>
      </trkpt>
      <trkpt lat="45.28708" lon="5.78793">
        <ele>2075</ele>
        <time>2013-01-06T11:08:01Z</time>
      </trkpt>
      <trkpt lat="45.28708" lon="5.78794">
        <ele>2075</ele>
        <time>2013-01-06T11:08:06Z</time>
      </trkpt>
      <trkpt lat="45.28704" lon="5.78796">
        <ele>2076</ele>
        <time>2013-01-06T11:08:11Z</time>
      </trkpt>
      <trkpt lat="45.287" lon="5.78797">
        <ele>2076</ele>
        <time>2013-01-06T11:08:16Z</time>
      </trkpt>
      <trkpt lat="45.28694" lon="5.78799">
        <ele>2076</ele>
        <time>2013-01-06T11:08:21Z</time>
      </trkpt>
      <trkpt lat="45.28689" lon="5.78799">
        <ele>2076</ele>
        <time>2013-01-06T11:08:26Z</time>
      </trkpt>
      <trkpt lat="45.28683" lon="5.78799">
        <ele>2076</ele>
        <time>2013-01-06T11:08:31Z</time>
      </trkpt>
      <trkpt lat="45.28679" lon="5.78799">
        <ele>2075</ele>
        <time>2013-01-06T11:08:36Z</time>
      </trkpt>
      <trkpt lat="45.28676" lon="5.78799">
        <ele>2075</ele>
        <time>2013-01-06T11:08:41Z</time>
      </trkpt>
      <trkpt lat="45.28671" lon="5.78799">
        <ele>2074</ele>
        <time>2013-01-06T11:08:46Z</time>
      </trkpt>
      <trkpt lat="45.2867" lon="5.788">
        <ele>2074</ele>
        <time>2013-01-06T11:08:51Z</time>
      </trkpt>
      <trkpt lat="45.28669" lon="5.78799">
        <ele>2073</ele>
        <time>2013-01-06T11:08:56Z</time>
      </trkpt>
      <trkpt lat="45.28668" lon="5.788">
        <ele>2073</ele>
        <time>2013-01-06T11:09:01Z</time>
      </trkpt>
      <trkpt lat="45.28666" lon="5.78801">
        <ele>2072</ele>
        <time>2013-01-06T11:09:06Z</time>
      </trkpt>
      <trkpt lat="45.28665" lon="5.78801">
        <ele>2071</ele>
        <time>2013-01-06T11:09:11Z</time>
      </trkpt>
      <trkpt lat="45.28665" lon="5.78801">
        <ele>2071</ele>
        <time>2013-01-06T11:09:16Z</time>
      </trkpt>
      <trkpt lat="45.28666" lon="5.78801">
        <ele>2070</ele>
        <time>2013-01-06T11:09:21Z</time>
      </trkpt>
      <trkpt lat="45.28663" lon="5.78799">
        <ele>2070</ele>
        <time>2013-01-06T11:37:51Z</time>
      </trkpt>
      <trkpt lat="45.28663" lon="5.78799">
        <ele>2070</ele>
        <time>2013-01-06T11:37:56Z</time>
      </trkpt>
      <trkpt lat="45.28663" lon="5.78798">
        <ele>2070</ele>
        <time>2013-01-06T11:38:01Z</time>
      </trkpt>
      <trkpt lat="45.28663" lon="5.78798">
        <ele>2070</ele>
        <time>2013-01-06T11:38:06Z</time>
      </trkpt>
      <trkpt lat="45.28663" lon="5.78798">
        <ele>2070</ele>
        <time>2013-01-06T11:38:11Z</time>
      </trkpt>
      <trkpt lat="45.28661" lon="5.78798">
        <ele>2070</ele>
        <time>2013-01-06T11:38:16Z</time>
      </trkpt>
      <trkpt lat="45.28658" lon="5.78794">
        <ele>2067</ele>
        <time>2013-01-06T11:38:21Z</time>
      </trkpt>
      <trkpt lat="45.28659" lon="5.78793">
        <ele>2066</ele>
        <time>2013-01-06T11:38:26Z</time>
      </trkpt>
      <trkpt lat="45.28659" lon="5.78793">
        <ele>2065</ele>
        <time>2013-01-06T11:38:31Z</time>
      </trkpt>
      <trkpt lat="45.28661" lon="5.78785">
        <ele>2061</ele>
        <time>2013-01-06T11:38:36Z</time>
      </trkpt>
      <trkpt lat="45.28661" lon="5.78774">
        <ele>2056</ele>
        <time>2013-01-06T11:38:41Z</time>
      </trkpt>
      <trkpt lat="45.28662" lon="5.78772">
        <ele>2054</ele>
        <time>2013-01-06T11:38:46Z</time>
      </trkpt>
      <trkpt lat="45.28666" lon="5.78758">
        <ele>2048</ele>
        <time>2013-01-06T11:38:51Z</time>
      </trkpt>
      <trkpt lat="45.2867" lon="5.78749">
        <ele>2042</ele>
        <time>2013-01-06T11:38:56Z</time>
      </trkpt>
      <trkpt lat="45.2867" lon="5.78743">
        <ele>2038</ele>
        <time>2013-01-06T11:39:01Z</time>
      </trkpt>
      <trkpt lat="45.28668" lon="5.78741">
        <ele>2036</ele>
        <time>2013-01-06T11:39:06Z</time>
      </trkpt>
      <trkpt lat="45.28662" lon="5.78733">
        <ele>2031</ele>
        <time>2013-01-06T11:39:11Z</time>
      </trkpt>
      <trkpt lat="45.28671" lon="5.78723">
        <ele>2025</ele>
        <time>2013-01-06T11:39:16Z</time>
      </trkpt>
      <trkpt lat="45.28672" lon="5.78715">
        <ele>2020</ele>
        <time>2013-01-06T11:39:21Z</time>
      </trkpt>
      <trkpt lat="45.28673" lon="5.78715">
        <ele>2019</ele>
        <time>2013-01-06T11:39:26Z</time>
      </trkpt>
      <trkpt lat="45.28673" lon="5.78715">
        <ele>2019</ele>
        <time>2013-01-06T11:39:31Z</time>
      </trkpt>
      <trkpt lat="45.28673" lon="5.78715">
        <ele>2019</ele>
        <time>2013-01-06T11:39:36Z</time>
      </trkpt>
      <trkpt lat="45.28673" lon="5.78715">
        <ele>2019</ele>
        <time>2013-01-06T11:39:41Z</time>
      </trkpt>
      <trkpt lat="45.28671" lon="5.78712">
        <ele>2018</ele>
        <time>2013-01-06T11:39:46Z</time>
      </trkpt>
      <trkpt lat="45.28679" lon="5.78699">
        <ele>2011</ele>
        <time>2013-01-06T11:39:51Z</time>
      </trkpt>
      <trkpt lat="45.28678" lon="5.78684">
        <ele>2004</ele>
        <time>2013-01-06T11:39:56Z</time>
      </trkpt>
      <trkpt lat="45.28675" lon="5.78675">
        <ele>1999</ele>
        <time>2013-01-06T11:40:01Z</time>
      </trkpt>
      <trkpt lat="45.28673" lon="5.78673">
        <ele>1997</ele>
        <time>2013-01-06T11:40:06Z</time>
      </trkpt>
      <trkpt lat="45.28673" lon="5.78673">
        <ele>1997</ele>
        <time>2013-01-06T11:40:11Z</time>
      </trkpt>
      <trkpt lat="45.28673" lon="5.78673">
        <ele>1997</ele>
        <time>2013-01-06T11:40:16Z</time>
      </trkpt>
      <trkpt lat="45.28673" lon="5.78673">
        <ele>1997</ele>
        <time>2013-01-06T11:40:21Z</time>
      </trkpt>
      <trkpt lat="45.28673" lon="5.78674">
        <ele>1997</ele>
        <time>2013-01-06T11:40:26Z</time>
      </trkpt>
      <trkpt lat="45.28673" lon="5.78673">
        <ele>1997</ele>
        <time>2013-01-06T11:40:31Z</time>
      </trkpt>
      <trkpt lat="45.28669" lon="5.78671">
        <ele>1995</ele>
        <time>2013-01-06T11:40:36Z</time>
      </trkpt>
      <trkpt lat="45.28656" lon="5.78665">
        <ele>1993</ele>
        <time>2013-01-06T11:40:41Z</time>
      </trkpt>
      <trkpt lat="45.28644" lon="5.78661">
        <ele>1989</ele>
        <time>2013-01-06T11:40:46Z</time>
      </trkpt>
      <trkpt lat="45.28637" lon="5.78652">
        <ele>1984</ele>
        <time>2013-01-06T11:40:51Z</time>
      </trkpt>
      <trkpt lat="45.28632" lon="5.78643">
        <ele>1979</ele>
        <time>2013-01-06T11:40:56Z</time>
      </trkpt>
      <trkpt lat="45.28622" lon="5.78642">
        <ele>1977</ele>
        <time>2013-01-06T11:41:01Z</time>
      </trkpt>
      <trkpt lat="45.28621" lon="5.7863">
        <ele>1973</ele>
        <time>2013-01-06T11:41:06Z</time>
      </trkpt>
      <trkpt lat="45.28636" lon="5.78619">
        <ele>1966</ele>
        <time>2013-01-06T11:41:11Z</time>
      </trkpt>
      <trkpt lat="45.28624" lon="5.78609">
        <ele>1960</ele>
        <time>2013-01-06T11:41:16Z</time>
      </trkpt>
      <trkpt lat="45.28616" lon="5.78597">
        <ele>1954</ele>
        <time>2013-01-06T11:41:21Z</time>
      </trkpt>
      <trkpt lat="45.28617" lon="5.78579">
        <ele>1942</ele>
        <time>2013-01-06T11:41:26Z</time>
      </trkpt>
      <trkpt lat="45.28623" lon="5.78569">
        <ele>1935</ele>
        <time>2013-01-06T11:41:31Z</time>
      </trkpt>
      <trkpt lat="45.28613" lon="5.78566">
        <ele>1934</ele>
        <time>2013-01-06T11:41:36Z</time>
      </trkpt>
      <trkpt lat="45.28598" lon="5.7856">
        <ele>1931</ele>
        <time>2013-01-06T11:41:41Z</time>
      </trkpt>
      <trkpt lat="45.28595" lon="5.78559">
        <ele>1931</ele>
        <time>2013-01-06T11:41:46Z</time>
      </trkpt>
      <trkpt lat="45.28596" lon="5.78559">
        <ele>1931</ele>
        <time>2013-01-06T11:41:51Z</time>
      </trkpt>
      <trkpt lat="45.28596" lon="5.78559">
        <ele>1931</ele>
        <time>2013-01-06T11:41:56Z</time>
      </trkpt>
      <trkpt lat="45.28596" lon="5.78559">
        <ele>1932</ele>
        <time>2013-01-06T11:42:01Z</time>
      </trkpt>
      <trkpt lat="45.28596" lon="5.78559">
        <ele>1932</ele>
        <time>2013-01-06T11:42:06Z</time>
      </trkpt>
      <trkpt lat="45.28596" lon="5.78559">
        <ele>1932</ele>
        <time>2013-01-06T11:42:11Z</time>
      </trkpt>
      <trkpt lat="45.28597" lon="5.78559">
        <ele>1932</ele>
        <time>2013-01-06T11:42:16Z</time>
      </trkpt>
      <trkpt lat="45.28597" lon="5.78559">
        <ele>1932</ele>
        <time>2013-01-06T11:42:21Z</time>
      </trkpt>
      <trkpt lat="45.28597" lon="5.78559">
        <ele>1932</ele>
        <time>2013-01-06T11:42:26Z</time>
      </trkpt>
      <trkpt lat="45.28597" lon="5.78559">
        <ele>1932</ele>
        <time>2013-01-06T11:42:31Z</time>
      </trkpt>
      <trkpt lat="45.28597" lon="5.78558">
        <ele>1932</ele>
        <time>2013-01-06T11:42:36Z</time>
      </trkpt>
      <trkpt lat="45.28594" lon="5.78557">
        <ele>1932</ele>
        <time>2013-01-06T11:42:41Z</time>
      </trkpt>
      <trkpt lat="45.28592" lon="5.78542">
        <ele>1926</ele>
        <time>2013-01-06T11:42:46Z</time>
      </trkpt>
      <trkpt lat="45.28599" lon="5.78521">
        <ele>1916</ele>
        <time>2013-01-06T11:42:51Z</time>
      </trkpt>
      <trkpt lat="45.28588" lon="5.78501">
        <ele>1908</ele>
        <time>2013-01-06T11:42:56Z</time>
      </trkpt>
      <trkpt lat="45.28587" lon="5.78483">
        <ele>1900</ele>
        <time>2013-01-06T11:43:01Z</time>
      </trkpt>
      <trkpt lat="45.28585" lon="5.78474">
        <ele>1896</ele>
        <time>2013-01-06T11:43:06Z</time>
      </trkpt>
      <trkpt lat="45.28585" lon="5.78474">
        <ele>1895</ele>
        <time>2013-01-06T11:43:11Z</time>
      </trkpt>
      <trkpt lat="45.28586" lon="5.78474">
        <ele>1895</ele>
        <time>2013-01-06T11:43:16Z</time>
      </trkpt>
      <trkpt lat="45.28585" lon="5.78456">
        <ele>1887</ele>
        <time>2013-01-06T11:43:21Z</time>
      </trkpt>
      <trkpt lat="45.28586" lon="5.78442">
        <ele>1879</ele>
        <time>2013-01-06T11:43:26Z</time>
      </trkpt>
      <trkpt lat="45.28604" lon="5.78437">
        <ele>1873</ele>
        <time>2013-01-06T11:43:31Z</time>
      </trkpt>
      <trkpt lat="45.28605" lon="5.78424">
        <ele>1865</ele>
        <time>2013-01-06T11:43:36Z</time>
      </trkpt>
      <trkpt lat="45.28615" lon="5.78424">
        <ele>1862</ele>
        <time>2013-01-06T11:43:41Z</time>
      </trkpt>
      <trkpt lat="45.28624" lon="5.78425">
        <ele>1862</ele>
        <time>2013-01-06T11:43:46Z</time>
      </trkpt>
      <trkpt lat="45.28624" lon="5.78425">
        <ele>1862</ele>
        <time>2013-01-06T11:43:51Z</time>
      </trkpt>
      <trkpt lat="45.28624" lon="5.78425">
        <ele>1862</ele>
        <time>2013-01-06T11:43:56Z</time>
      </trkpt>
      <trkpt lat="45.28623" lon="5.78425">
        <ele>1861</ele>
        <time>2013-01-06T11:44:01Z</time>
      </trkpt>
      <trkpt lat="45.28623" lon="5.78425">
        <ele>1861</ele>
        <time>2013-01-06T11:44:06Z</time>
      </trkpt>
      <trkpt lat="45.28623" lon="5.78425">
        <ele>1861</ele>
        <time>2013-01-06T11:44:11Z</time>
      </trkpt>
      <trkpt lat="45.28624" lon="5.78425">
        <ele>1861</ele>
        <time>2013-01-06T11:44:16Z</time>
      </trkpt>
      <trkpt lat="45.28623" lon="5.78425">
        <ele>1861</ele>
        <time>2013-01-06T11:44:21Z</time>
      </trkpt>
      <trkpt lat="45.28624" lon="5.78425">
        <ele>1861</ele>
        <time>2013-01-06T11:44:26Z</time>
      </trkpt>
      <trkpt lat="45.28624" lon="5.78424">
        <ele>1861</ele>
        <time>2013-01-06T11:44:31Z</time>
      </trkpt>
      <trkpt lat="45.28624" lon="5.78425">
        <ele>1861</ele>
        <time>2013-01-06T11:44:36Z</time>
      </trkpt>
      <trkpt lat="45.28624" lon="5.78425">
        <ele>1861</ele>
        <time>2013-01-06T11:44:41Z</time>
      </trkpt>
      <trkpt lat="45.28624" lon="5.78425">
        <ele>1861</ele>
        <time>2013-01-06T11:44:46Z</time>
      </trkpt>
      <trkpt lat="45.28623" lon="5.78425">
        <ele>1861</ele>
        <time>2013-01-06T11:44:51Z</time>
      </trkpt>
      <trkpt lat="45.28623" lon="5.78425">
        <ele>1862</ele>
        <time>2013-01-06T11:44:56Z</time>
      </trkpt>
      <trkpt lat="45.28623" lon="5.78424">
        <ele>1862</ele>
        <time>2013-01-06T11:45:01Z</time>
      </trkpt>
      <trkpt lat="45.28623" lon="5.78424">
        <ele>1863</ele>
        <time>2013-01-06T11:45:06Z</time>
      </trkpt>
      <trkpt lat="45.28624" lon="5.78424">
        <ele>1864</ele>
        <time>2013-01-06T11:45:11Z</time>
      </trkpt>
      <trkpt lat="45.28634" lon="5.78422">
        <ele>1861</ele>
        <time>2013-01-06T11:45:16Z</time>
      </trkpt>
      <trkpt lat="45.28634" lon="5.78409">
        <ele>1857</ele>
        <time>2013-01-06T11:45:21Z</time>
      </trkpt>
      <trkpt lat="45.2864" lon="5.78402">
        <ele>1854</ele>
        <time>2013-01-06T11:45:26Z</time>
      </trkpt>
      <trkpt lat="45.28654" lon="5.78403">
        <ele>1850</ele>
        <time>2013-01-06T11:45:31Z</time>
      </trkpt>
      <trkpt lat="45.28657" lon="5.78404">
        <ele>1848</ele>
        <time>2013-01-06T11:45:36Z</time>
      </trkpt>
      <trkpt lat="45.28658" lon="5.78405">
        <ele>1847</ele>
        <time>2013-01-06T11:45:41Z</time>
      </trkpt>
      <trkpt lat="45.28657" lon="5.78405">
        <ele>1846</ele>
        <time>2013-01-06T11:45:46Z</time>
      </trkpt>
      <trkpt lat="45.28655" lon="5.78404">
        <ele>1845</ele>
        <time>2013-01-06T11:45:51Z</time>
      </trkpt>
      <trkpt lat="45.28655" lon="5.78404">
        <ele>1844</ele>
        <time>2013-01-06T11:45:56Z</time>
      </trkpt>
      <trkpt lat="45.28655" lon="5.78405">
        <ele>1844</ele>
        <time>2013-01-06T11:46:01Z</time>
      </trkpt>
      <trkpt lat="45.28657" lon="5.78403">
        <ele>1843</ele>
        <time>2013-01-06T11:46:06Z</time>
      </trkpt>
      <trkpt lat="45.28662" lon="5.7839">
        <ele>1838</ele>
        <time>2013-01-06T11:46:11Z</time>
      </trkpt>
      <trkpt lat="45.28674" lon="5.78379">
        <ele>1830</ele>
        <time>2013-01-06T11:46:16Z</time>
      </trkpt>
      <trkpt lat="45.28697" lon="5.78375">
        <ele>1823</ele>
        <time>2013-01-06T11:46:21Z</time>
      </trkpt>
      <trkpt lat="45.287" lon="5.7837">
        <ele>1823</ele>
        <time>2013-01-06T11:46:26Z</time>
      </trkpt>
      <trkpt lat="45.28699" lon="5.78368">
        <ele>1823</ele>
        <time>2013-01-06T11:46:31Z</time>
      </trkpt>
      <trkpt lat="45.28699" lon="5.78367">
        <ele>1824</ele>
        <time>2013-01-06T11:46:36Z</time>
      </trkpt>
      <trkpt lat="45.28698" lon="5.78365">
        <ele>1824</ele>
        <time>2013-01-06T11:46:41Z</time>
      </trkpt>
      <trkpt lat="45.28698" lon="5.78364">
        <ele>1825</ele>
        <time>2013-01-06T11:46:46Z</time>
      </trkpt>
      <trkpt lat="45.28698" lon="5.78364">
        <ele>1825</ele>
        <time>2013-01-06T11:46:51Z</time>
      </trkpt>
      <trkpt lat="45.28698" lon="5.78363">
        <ele>1825</ele>
        <time>2013-01-06T11:46:56Z</time>
      </trkpt>
      <trkpt lat="45.28698" lon="5.78362">
        <ele>1825</ele>
        <time>2013-01-06T11:47:01Z</time>
      </trkpt>
      <trkpt lat="45.28698" lon="5.78362">
        <ele>1826</ele>
        <time>2013-01-06T11:47:06Z</time>
      </trkpt>
      <trkpt lat="45.28698" lon="5.78361">
        <ele>1825</ele>
        <time>2013-01-06T11:47:11Z</time>
      </trkpt>
      <trkpt lat="45.28697" lon="5.78348">
        <ele>1821</ele>
        <time>2013-01-06T11:47:16Z</time>
      </trkpt>
      <trkpt lat="45.28707" lon="5.78339">
        <ele>1818</ele>
        <time>2013-01-06T11:47:21Z</time>
      </trkpt>
      <trkpt lat="45.28692" lon="5.78329">
        <ele>1814</ele>
        <time>2013-01-06T11:47:26Z</time>
      </trkpt>
      <trkpt lat="45.2871" lon="5.78323">
        <ele>1809</ele>
        <time>2013-01-06T11:47:31Z</time>
      </trkpt>
      <trkpt lat="45.28726" lon="5.78322">
        <ele>1804</ele>
        <time>2013-01-06T11:47:36Z</time>
      </trkpt>
      <trkpt lat="45.28721" lon="5.78312">
        <ele>1796</ele>
        <time>2013-01-06T11:47:41Z</time>
      </trkpt>
      <trkpt lat="45.28721" lon="5.78303">
        <ele>1790</ele>
        <time>2013-01-06T11:47:46Z</time>
      </trkpt>
      <trkpt lat="45.28727" lon="5.78303">
        <ele>1786</ele>
        <time>2013-01-06T11:47:51Z</time>
      </trkpt>
      <trkpt lat="45.28727" lon="5.78303">
        <ele>1785</ele>
        <time>2013-01-06T11:47:56Z</time>
      </trkpt>
      <trkpt lat="45.28738" lon="5.78299">
        <ele>1782</ele>
        <time>2013-01-06T11:48:01Z</time>
      </trkpt>
      <trkpt lat="45.28745" lon="5.78292">
        <ele>1777</ele>
        <time>2013-01-06T11:48:06Z</time>
      </trkpt>
      <trkpt lat="45.28745" lon="5.78283">
        <ele>1773</ele>
        <time>2013-01-06T11:48:11Z</time>
      </trkpt>
      <trkpt lat="45.28749" lon="5.78276">
        <ele>1770</ele>
        <time>2013-01-06T11:48:16Z</time>
      </trkpt>
      <trkpt lat="45.28749" lon="5.78276">
        <ele>1771</ele>
        <time>2013-01-06T11:48:21Z</time>
      </trkpt>
      <trkpt lat="45.28748" lon="5.78275">
        <ele>1771</ele>
        <time>2013-01-06T11:48:26Z</time>
      </trkpt>
      <trkpt lat="45.28748" lon="5.78274">
        <ele>1771</ele>
        <time>2013-01-06T11:48:31Z</time>
      </trkpt>
      <trkpt lat="45.28748" lon="5.78273">
        <ele>1770</ele>
        <time>2013-01-06T11:48:36Z</time>
      </trkpt>
      <trkpt lat="45.28745" lon="5.78271">
        <ele>1769</ele>
        <time>2013-01-06T11:48:41Z</time>
      </trkpt>
      <trkpt lat="45.28745" lon="5.7827">
        <ele>1769</ele>
        <time>2013-01-06T11:48:46Z</time>
      </trkpt>
      <trkpt lat="45.28744" lon="5.7827">
        <ele>1769</ele>
        <time>2013-01-06T11:48:51Z</time>
      </trkpt>
      <trkpt lat="45.28744" lon="5.78269">
        <ele>1768</ele>
        <time>2013-01-06T11:48:56Z</time>
      </trkpt>
      <trkpt lat="45.28744" lon="5.78269">
        <ele>1768</ele>
        <time>2013-01-06T11:49:01Z</time>
      </trkpt>
      <trkpt lat="45.28743" lon="5.78267">
        <ele>1768</ele>
        <time>2013-01-06T11:49:06Z</time>
      </trkpt>
      <trkpt lat="45.28746" lon="5.78254">
        <ele>1767</ele>
        <time>2013-01-06T11:49:11Z</time>
      </trkpt>
      <trkpt lat="45.28747" lon="5.78245">
        <ele>1764</ele>
        <time>2013-01-06T11:49:16Z</time>
      </trkpt>
      <trkpt lat="45.28748" lon="5.7823">
        <ele>1761</ele>
        <time>2013-01-06T11:49:21Z</time>
      </trkpt>
      <trkpt lat="45.2875" lon="5.7822">
        <ele>1756</ele>
        <time>2013-01-06T11:49:26Z</time>
      </trkpt>
      <trkpt lat="45.28735" lon="5.7821">
        <ele>1750</ele>
        <time>2013-01-06T11:49:31Z</time>
      </trkpt>
      <trkpt lat="45.28726" lon="5.78208">
        <ele>1748</ele>
        <time>2013-01-06T11:49:36Z</time>
      </trkpt>
      <trkpt lat="45.2872" lon="5.78205">
        <ele>1746</ele>
        <time>2013-01-06T11:49:41Z</time>
      </trkpt>
      <trkpt lat="45.2872" lon="5.78205">
        <ele>1744</ele>
        <time>2013-01-06T11:49:46Z</time>
      </trkpt>
      <trkpt lat="45.28719" lon="5.78205">
        <ele>1743</ele>
        <time>2013-01-06T11:49:51Z</time>
      </trkpt>
      <trkpt lat="45.28719" lon="5.78205">
        <ele>1743</ele>
        <time>2013-01-06T11:49:56Z</time>
      </trkpt>
      <trkpt lat="45.28719" lon="5.78205">
        <ele>1742</ele>
        <time>2013-01-06T11:50:01Z</time>
      </trkpt>
      <trkpt lat="45.28719" lon="5.78205">
        <ele>1741</ele>
        <time>2013-01-06T11:50:06Z</time>
      </trkpt>
      <trkpt lat="45.28719" lon="5.78205">
        <ele>1740</ele>
        <time>2013-01-06T11:50:11Z</time>
      </trkpt>
      <trkpt lat="45.28719" lon="5.78206">
        <ele>1739</ele>
        <time>2013-01-06T11:50:16Z</time>
      </trkpt>
      <trkpt lat="45.28719" lon="5.78206">
        <ele>1739</ele>
        <time>2013-01-06T11:50:21Z</time>
      </trkpt>
      <trkpt lat="45.28718" lon="5.78206">
        <ele>1738</ele>
        <time>2013-01-06T11:50:26Z</time>
      </trkpt>
      <trkpt lat="45.28717" lon="5.782">
        <ele>1736</ele>
        <time>2013-01-06T11:50:31Z</time>
      </trkpt>
      <trkpt lat="45.28723" lon="5.78191">
        <ele>1734</ele>
        <time>2013-01-06T11:50:36Z</time>
      </trkpt>
      <trkpt lat="45.28721" lon="5.78172">
        <ele>1730</ele>
        <time>2013-01-06T11:50:41Z</time>
      </trkpt>
      <trkpt lat="45.28721" lon="5.78154">
        <ele>1724</ele>
        <time>2013-01-06T11:50:46Z</time>
      </trkpt>
      <trkpt lat="45.28722" lon="5.78133">
        <ele>1715</ele>
        <time>2013-01-06T11:50:51Z</time>
      </trkpt>
      <trkpt lat="45.28719" lon="5.78119">
        <ele>1707</ele>
        <time>2013-01-06T11:50:56Z</time>
      </trkpt>
      <trkpt lat="45.28715" lon="5.7811">
        <ele>1701</ele>
        <time>2013-01-06T11:51:01Z</time>
      </trkpt>
      <trkpt lat="45.28725" lon="5.78102">
        <ele>1696</ele>
        <time>2013-01-06T11:51:06Z</time>
      </trkpt>
      <trkpt lat="45.28739" lon="5.78099">
        <ele>1692</ele>
        <time>2013-01-06T11:51:11Z</time>
      </trkpt>
      <trkpt lat="45.28744" lon="5.7809">
        <ele>1688</ele>
        <time>2013-01-06T11:51:16Z</time>
      </trkpt>
      <trkpt lat="45.28757" lon="5.78087">
        <ele>1683</ele>
        <time>2013-01-06T11:51:21Z</time>
      </trkpt>
      <trkpt lat="45.28742" lon="5.78075">
        <ele>1679</ele>
        <time>2013-01-06T11:51:26Z</time>
      </trkpt>
      <trkpt lat="45.28753" lon="5.78061">
        <ele>1673</ele>
        <time>2013-01-06T11:51:31Z</time>
      </trkpt>
      <trkpt lat="45.28737" lon="5.7805">
        <ele>1669</ele>
        <time>2013-01-06T11:51:36Z</time>
      </trkpt>
      <trkpt lat="45.28726" lon="5.78045">
        <ele>1668</ele>
        <time>2013-01-06T11:51:41Z</time>
      </trkpt>
      <trkpt lat="45.28711" lon="5.78038">
        <ele>1665</ele>
        <time>2013-01-06T11:51:46Z</time>
      </trkpt>
      <trkpt lat="45.28709" lon="5.78017">
        <ele>1661</ele>
        <time>2013-01-06T11:51:51Z</time>
      </trkpt>
      <trkpt lat="45.28703" lon="5.78013">
        <ele>1659</ele>
        <time>2013-01-06T11:51:56Z</time>
      </trkpt>
      <trkpt lat="45.28702" lon="5.78011">
        <ele>1659</ele>
        <time>2013-01-06T11:52:01Z</time>
      </trkpt>
      <trkpt lat="45.28701" lon="5.7801">
        <ele>1658</ele>
        <time>2013-01-06T11:52:06Z</time>
      </trkpt>
      <trkpt lat="45.28701" lon="5.7801">
        <ele>1658</ele>
        <time>2013-01-06T11:52:11Z</time>
      </trkpt>
      <trkpt lat="45.28701" lon="5.7801">
        <ele>1657</ele>
        <time>2013-01-06T11:52:16Z</time>
      </trkpt>
      <trkpt lat="45.287" lon="5.7801">
        <ele>1656</ele>
        <time>2013-01-06T11:52:21Z</time>
      </trkpt>
      <trkpt lat="45.287" lon="5.7801">
        <ele>1656</ele>
        <time>2013-01-06T11:52:26Z</time>
      </trkpt>
      <trkpt lat="45.28701" lon="5.7801">
        <ele>1656</ele>
        <time>2013-01-06T11:52:31Z</time>
      </trkpt>
      <trkpt lat="45.28701" lon="5.7801">
        <ele>1655</ele>
        <time>2013-01-06T11:52:36Z</time>
      </trkpt>
      <trkpt lat="45.287" lon="5.7801">
        <ele>1655</ele>
        <time>2013-01-06T11:52:41Z</time>
      </trkpt>
      <trkpt lat="45.287" lon="5.7801">
        <ele>1654</ele>
        <time>2013-01-06T11:52:46Z</time>
      </trkpt>
      <trkpt lat="45.287" lon="5.7801">
        <ele>1654</ele>
        <time>2013-01-06T11:52:51Z</time>
      </trkpt>
      <trkpt lat="45.287" lon="5.7801">
        <ele>1654</ele>
        <time>2013-01-06T11:52:56Z</time>
      </trkpt>
      <trkpt lat="45.287" lon="5.7801">
        <ele>1653</ele>
        <time>2013-01-06T11:53:01Z</time>
      </trkpt>
      <trkpt lat="45.287" lon="5.7801">
        <ele>1653</ele>
        <time>2013-01-06T11:53:06Z</time>
      </trkpt>
      <trkpt lat="45.287" lon="5.7801">
        <ele>1653</ele>
        <time>2013-01-06T11:53:11Z</time>
      </trkpt>
      <trkpt lat="45.28701" lon="5.7801">
        <ele>1653</ele>
        <time>2013-01-06T11:53:16Z</time>
      </trkpt>
      <trkpt lat="45.28701" lon="5.7801">
        <ele>1653</ele>
        <time>2013-01-06T11:53:21Z</time>
      </trkpt>
      <trkpt lat="45.28701" lon="5.78008">
        <ele>1652</ele>
        <time>2013-01-06T11:53:26Z</time>
      </trkpt>
      <trkpt lat="45.28701" lon="5.77998">
        <ele>1650</ele>
        <time>2013-01-06T11:53:31Z</time>
      </trkpt>
      <trkpt lat="45.28689" lon="5.77996">
        <ele>1646</ele>
        <time>2013-01-06T11:53:36Z</time>
      </trkpt>
      <trkpt lat="45.28683" lon="5.77985">
        <ele>1640</ele>
        <time>2013-01-06T11:53:41Z</time>
      </trkpt>
      <trkpt lat="45.28676" lon="5.77973">
        <ele>1634</ele>
        <time>2013-01-06T11:53:46Z</time>
      </trkpt>
      <trkpt lat="45.2867" lon="5.77956">
        <ele>1625</ele>
        <time>2013-01-06T11:53:51Z</time>
      </trkpt>
      <trkpt lat="45.28666" lon="5.77944">
        <ele>1618</ele>
        <time>2013-01-06T11:53:56Z</time>
      </trkpt>
      <trkpt lat="45.28672" lon="5.77926">
        <ele>1613</ele>
        <time>2013-01-06T11:54:01Z</time>
      </trkpt>
      <trkpt lat="45.28672" lon="5.77919">
        <ele>1613</ele>
        <time>2013-01-06T11:54:06Z</time>
      </trkpt>
      <trkpt lat="45.28666" lon="5.7792">
        <ele>1612</ele>
        <time>2013-01-06T11:54:11Z</time>
      </trkpt>
      <trkpt lat="45.28663" lon="5.7792">
        <ele>1610</ele>
        <time>2013-01-06T11:54:16Z</time>
      </trkpt>
      <trkpt lat="45.28654" lon="5.77922">
        <ele>1609</ele>
        <time>2013-01-06T11:54:21Z</time>
      </trkpt>
      <trkpt lat="45.2865" lon="5.77919">
        <ele>1608</ele>
        <time>2013-01-06T11:54:26Z</time>
      </trkpt>
      <trkpt lat="45.28651" lon="5.77912">
        <ele>1604</ele>
        <time>2013-01-06T11:54:31Z</time>
      </trkpt>
      <trkpt lat="45.28643" lon="5.77906">
        <ele>1600</ele>
        <time>2013-01-06T11:54:36Z</time>
      </trkpt>
      <trkpt lat="45.28647" lon="5.77905">
        <ele>1596</ele>
        <time>2013-01-06T11:54:41Z</time>
      </trkpt>
      <trkpt lat="45.28649" lon="5.77905">
        <ele>1594</ele>
        <time>2013-01-06T11:54:46Z</time>
      </trkpt>
      <trkpt lat="45.28648" lon="5.77904">
        <ele>1593</ele>
        <time>2013-01-06T11:54:51Z</time>
      </trkpt>
      <trkpt lat="45.28647" lon="5.77905">
        <ele>1592</ele>
        <time>2013-01-06T11:54:56Z</time>
      </trkpt>
      <trkpt lat="45.28642" lon="5.779">
        <ele>1590</ele>
        <time>2013-01-06T11:55:01Z</time>
      </trkpt>
      <trkpt lat="45.28639" lon="5.77896">
        <ele>1589</ele>
        <time>2013-01-06T11:55:06Z</time>
      </trkpt>
      <trkpt lat="45.28634" lon="5.7789">
        <ele>1589</ele>
        <time>2013-01-06T11:55:11Z</time>
      </trkpt>
      <trkpt lat="45.28627" lon="5.77887">
        <ele>1585</ele>
        <time>2013-01-06T11:55:16Z</time>
      </trkpt>
      <trkpt lat="45.28627" lon="5.77888">
        <ele>1584</ele>
        <time>2013-01-06T11:55:21Z</time>
      </trkpt>
      <trkpt lat="45.28624" lon="5.77885">
        <ele>1583</ele>
        <time>2013-01-06T11:55:26Z</time>
      </trkpt>
      <trkpt lat="45.28619" lon="5.77878">
        <ele>1583</ele>
        <time>2013-01-06T11:55:31Z</time>
      </trkpt>
      <trkpt lat="45.28618" lon="5.77873">
        <ele>1586</ele>
        <time>2013-01-06T11:55:36Z</time>
      </trkpt>
      <trkpt lat="45.28616" lon="5.77866">
        <ele>1585</ele>
        <time>2013-01-06T11:55:41Z</time>
      </trkpt>
      <trkpt lat="45.28612" lon="5.77855">
        <ele>1584</ele>
        <time>2013-01-06T11:55:46Z</time>
      </trkpt>
      <trkpt lat="45.28608" lon="5.77846">
        <ele>1583</ele>
        <time>2013-01-06T11:55:51Z</time>
      </trkpt>
      <trkpt lat="45.28603" lon="5.77843">
        <ele>1576</ele>
        <time>2013-01-06T11:55:56Z</time>
      </trkpt>
      <trkpt lat="45.28603" lon="5.77846">
        <ele>1575</ele>
        <time>2013-01-06T11:56:01Z</time>
      </trkpt>
      <trkpt lat="45.28602" lon="5.77849">
        <ele>1570</ele>
        <time>2013-01-06T11:56:06Z</time>
      </trkpt>
      <trkpt lat="45.28601" lon="5.77848">
        <ele>1571</ele>
        <time>2013-01-06T11:56:11Z</time>
      </trkpt>
      <trkpt lat="45.28601" lon="5.77847">
        <ele>1568</ele>
        <time>2013-01-06T11:56:16Z</time>
      </trkpt>
      <trkpt lat="45.28599" lon="5.77845">
        <ele>1567</ele>
        <time>2013-01-06T11:56:21Z</time>
      </trkpt>
      <trkpt lat="45.28599" lon="5.77841">
        <ele>1564</ele>
        <time>2013-01-06T11:56:26Z</time>
      </trkpt>
      <trkpt lat="45.28599" lon="5.77826">
        <ele>1566</ele>
        <time>2013-01-06T11:56:31Z</time>
      </trkpt>
      <trkpt lat="45.28595" lon="5.77816">
        <ele>1562</ele>
        <time>2013-01-06T11:56:36Z</time>
      </trkpt>
      <trkpt lat="45.28591" lon="5.77796">
        <ele>1559</ele>
        <time>2013-01-06T11:56:41Z</time>
      </trkpt>
      <trkpt lat="45.2859" lon="5.77791">
        <ele>1558</ele>
        <time>2013-01-06T11:56:46Z</time>
      </trkpt>
      <trkpt lat="45.28587" lon="5.77786">
        <ele>1563</ele>
        <time>2013-01-06T11:56:51Z</time>
      </trkpt>
      <trkpt lat="45.28587" lon="5.77784">
        <ele>1563</ele>
        <time>2013-01-06T11:56:56Z</time>
      </trkpt>
      <trkpt lat="45.28587" lon="5.7778">
        <ele>1562</ele>
        <time>2013-01-06T11:57:01Z</time>
      </trkpt>
      <trkpt lat="45.28584" lon="5.77778">
        <ele>1559</ele>
        <time>2013-01-06T11:57:06Z</time>
      </trkpt>
      <trkpt lat="45.28582" lon="5.77773">
        <ele>1556</ele>
        <time>2013-01-06T11:57:11Z</time>
      </trkpt>
      <trkpt lat="45.28582" lon="5.77772">
        <ele>1556</ele>
        <time>2013-01-06T11:57:16Z</time>
      </trkpt>
      <trkpt lat="45.28579" lon="5.77766">
        <ele>1557</ele>
        <time>2013-01-06T11:57:21Z</time>
      </trkpt>
      <trkpt lat="45.28575" lon="5.77762">
        <ele>1555</ele>
        <time>2013-01-06T11:57:26Z</time>
      </trkpt>
      <trkpt lat="45.28573" lon="5.77761">
        <ele>1554</ele>
        <time>2013-01-06T11:57:31Z</time>
      </trkpt>
      <trkpt lat="45.28569" lon="5.77749">
        <ele>1550</ele>
        <time>2013-01-06T11:57:36Z</time>
      </trkpt>
      <trkpt lat="45.28568" lon="5.7774">
        <ele>1547</ele>
        <time>2013-01-06T11:57:41Z</time>
      </trkpt>
      <trkpt lat="45.28548" lon="5.77718">
        <ele>1542</ele>
        <time>2013-01-06T11:57:46Z</time>
      </trkpt>
      <trkpt lat="45.28536" lon="5.77707">
        <ele>1539</ele>
        <time>2013-01-06T11:57:51Z</time>
      </trkpt>
      <trkpt lat="45.28535" lon="5.77706">
        <ele>1537</ele>
        <time>2013-01-06T11:57:56Z</time>
      </trkpt>
      <trkpt lat="45.28535" lon="5.77707">
        <ele>1535</ele>
        <time>2013-01-06T11:58:01Z</time>
      </trkpt>
      <trkpt lat="45.28534" lon="5.77707">
        <ele>1534</ele>
        <time>2013-01-06T11:58:06Z</time>
      </trkpt>
      <trkpt lat="45.28535" lon="5.7771">
        <ele>1530</ele>
        <time>2013-01-06T11:58:11Z</time>
      </trkpt>
      <trkpt lat="45.28536" lon="5.77713">
        <ele>1526</ele>
        <time>2013-01-06T11:58:16Z</time>
      </trkpt>
      <trkpt lat="45.28534" lon="5.77713">
        <ele>1529</ele>
        <time>2013-01-06T11:58:21Z</time>
      </trkpt>
      <trkpt lat="45.28544" lon="5.77717">
        <ele>1528</ele>
        <time>2013-01-06T11:58:26Z</time>
      </trkpt>
      <trkpt lat="45.28566" lon="5.77715">
        <ele>1525</ele>
        <time>2013-01-06T11:58:31Z</time>
      </trkpt>
      <trkpt lat="45.28584" lon="5.77723">
        <ele>1519</ele>
        <time>2013-01-06T11:58:36Z</time>
      </trkpt>
      <trkpt lat="45.28608" lon="5.7774">
        <ele>1514</ele>
        <time>2013-01-06T11:58:41Z</time>
      </trkpt>
      <trkpt lat="45.28627" lon="5.77735">
        <ele>1512</ele>
        <time>2013-01-06T11:58:46Z</time>
      </trkpt>
      <trkpt lat="45.28619" lon="5.77717">
        <ele>1508</ele>
        <time>2013-01-06T11:58:51Z</time>
      </trkpt>
      <trkpt lat="45.28617" lon="5.77709">
        <ele>1508</ele>
        <time>2013-01-06T11:58:56Z</time>
      </trkpt>
      <trkpt lat="45.28617" lon="5.77708">
        <ele>1508</ele>
        <time>2013-01-06T11:59:01Z</time>
      </trkpt>
      <trkpt lat="45.28616" lon="5.77705">
        <ele>1509</ele>
        <time>2013-01-06T11:59:06Z</time>
      </trkpt>
      <trkpt lat="45.28614" lon="5.77701">
        <ele>1511</ele>
        <time>2013-01-06T11:59:11Z</time>
      </trkpt>
      <trkpt lat="45.28612" lon="5.77697">
        <ele>1512</ele>
        <time>2013-01-06T11:59:16Z</time>
      </trkpt>
      <trkpt lat="45.2861" lon="5.77694">
        <ele>1513</ele>
        <time>2013-01-06T11:59:21Z</time>
      </trkpt>
      <trkpt lat="45.28609" lon="5.77692">
        <ele>1514</ele>
        <time>2013-01-06T11:59:26Z</time>
      </trkpt>
      <trkpt lat="45.28608" lon="5.7769">
        <ele>1514</ele>
        <time>2013-01-06T11:59:31Z</time>
      </trkpt>
      <trkpt lat="45.28608" lon="5.7769">
        <ele>1513</ele>
        <time>2013-01-06T11:59:36Z</time>
      </trkpt>
      <trkpt lat="45.28609" lon="5.77692">
        <ele>1512</ele>
        <time>2013-01-06T11:59:41Z</time>
      </trkpt>
      <trkpt lat="45.2861" lon="5.77693">
        <ele>1512</ele>
        <time>2013-01-06T11:59:46Z</time>
      </trkpt>
      <trkpt lat="45.28612" lon="5.7769">
        <ele>1511</ele>
        <time>2013-01-06T11:59:51Z</time>
      </trkpt>
      <trkpt lat="45.28619" lon="5.77679">
        <ele>1507</ele>
        <time>2013-01-06T11:59:56Z</time>
      </trkpt>
      <trkpt lat="45.28629" lon="5.77664">
        <ele>1502</ele>
        <time>2013-01-06T12:00:01Z</time>
      </trkpt>
      <trkpt lat="45.28639" lon="5.7765">
        <ele>1494</ele>
        <time>2013-01-06T12:00:06Z</time>
      </trkpt>
      <trkpt lat="45.28644" lon="5.77641">
        <ele>1488</ele>
        <time>2013-01-06T12:00:11Z</time>
      </trkpt>
      <trkpt lat="45.28631" lon="5.77618">
        <ele>1481</ele>
        <time>2013-01-06T12:00:16Z</time>
      </trkpt>
      <trkpt lat="45.28631" lon="5.77591">
        <ele>1474</ele>
        <time>2013-01-06T12:00:21Z</time>
      </trkpt>
      <trkpt lat="45.28645" lon="5.77575">
        <ele>1464</ele>
        <time>2013-01-06T12:00:26Z</time>
      </trkpt>
      <trkpt lat="45.28645" lon="5.77548">
        <ele>1454</ele>
        <time>2013-01-06T12:00:31Z</time>
      </trkpt>
      <trkpt lat="45.28634" lon="5.77523">
        <ele>1449</ele>
        <time>2013-01-06T12:00:36Z</time>
      </trkpt>
      <trkpt lat="45.28627" lon="5.77487">
        <ele>1440</ele>
        <time>2013-01-06T12:00:41Z</time>
      </trkpt>
      <trkpt lat="45.28637" lon="5.77463">
        <ele>1430</ele>
        <time>2013-01-06T12:00:46Z</time>
      </trkpt>
      <trkpt lat="45.28639" lon="5.77434">
        <ele>1421</ele>
        <time>2013-01-06T12:00:51Z</time>
      </trkpt>
      <trkpt lat="45.28644" lon="5.77411">
        <ele>1412</ele>
        <time>2013-01-06T12:00:56Z</time>
      </trkpt>
      <trkpt lat="45.28658" lon="5.77398">
        <ele>1405</ele>
        <time>2013-01-06T12:01:01Z</time>
      </trkpt>
      <trkpt lat="45.28673" lon="5.77374">
        <ele>1397</ele>
        <time>2013-01-06T12:01:06Z</time>
      </trkpt>
      <trkpt lat="45.28688" lon="5.77351">
        <ele>1390</ele>
        <time>2013-01-06T12:01:11Z</time>
      </trkpt>
      <trkpt lat="45.28709" lon="5.77336">
        <ele>1384</ele>
        <time>2013-01-06T12:01:16Z</time>
      </trkpt>
      <trkpt lat="45.28732" lon="5.77304">
        <ele>1375</ele>
        <time>2013-01-06T12:01:21Z</time>
      </trkpt>
      <trkpt lat="45.28752" lon="5.77272">
        <ele>1368</ele>
        <time>2013-01-06T12:01:26Z</time>
      </trkpt>
      <trkpt lat="45.28761" lon="5.77233">
        <ele>1361</ele>
        <time>2013-01-06T12:01:31Z</time>
      </trkpt>
      <trkpt lat="45.2877" lon="5.77205">
        <ele>1356</ele>
        <time>2013-01-06T12:01:36Z</time>
      </trkpt>
      <trkpt lat="45.2878" lon="5.77169">
        <ele>1352</ele>
        <time>2013-01-06T12:01:41Z</time>
      </trkpt>
      <trkpt lat="45.28788" lon="5.77138">
        <ele>1348</ele>
        <time>2013-01-06T12:01:46Z</time>
      </trkpt>
      <trkpt lat="45.28798" lon="5.77107">
        <ele>1347</ele>
        <time>2013-01-06T12:01:51Z</time>
      </trkpt>
      <trkpt lat="45.28805" lon="5.77078">
        <ele>1343</ele>
        <time>2013-01-06T12:01:56Z</time>
      </trkpt>
      <trkpt lat="45.28819" lon="5.7705">
        <ele>1338</ele>
        <time>2013-01-06T12:02:01Z</time>
      </trkpt>
      <trkpt lat="45.28823" lon="5.77018">
        <ele>1335</ele>
        <time>2013-01-06T12:02:06Z</time>
      </trkpt>
      <trkpt lat="45.28835" lon="5.76989">
        <ele>1329</ele>
        <time>2013-01-06T12:02:11Z</time>
      </trkpt>
      <trkpt lat="45.28847" lon="5.76962">
        <ele>1324</ele>
        <time>2013-01-06T12:02:16Z</time>
      </trkpt>
      <trkpt lat="45.28863" lon="5.76936">
        <ele>1321</ele>
        <time>2013-01-06T12:02:21Z</time>
      </trkpt>
      <trkpt lat="45.28882" lon="5.76907">
        <ele>1317</ele>
        <time>2013-01-06T12:02:26Z</time>
      </trkpt>
      <trkpt lat="45.28886" lon="5.76869">
        <ele>1312</ele>
        <time>2013-01-06T12:02:31Z</time>
      </trkpt>
      <trkpt lat="45.28887" lon="5.76833">
        <ele>1311</ele>
        <time>2013-01-06T12:02:36Z</time>
      </trkpt>
      <trkpt lat="45.28896" lon="5.76816">
        <ele>1315</ele>
        <time>2013-01-06T12:02:41Z</time>
      </trkpt>
      <trkpt lat="45.28906" lon="5.76809">
        <ele>1318</ele>
        <time>2013-01-06T12:02:46Z</time>
      </trkpt>
      <trkpt lat="45.28912" lon="5.76803">
        <ele>1318</ele>
        <time>2013-01-06T12:02:51Z</time>
      </trkpt>
      <trkpt lat="45.28917" lon="5.76797">
        <ele>1318</ele>
        <time>2013-01-06T12:02:56Z</time>
      </trkpt>
      <trkpt lat="45.28923" lon="5.76792">
        <ele>1319</ele>
        <time>2013-01-06T12:03:01Z</time>
      </trkpt>
      <trkpt lat="45.28927" lon="5.76788">
        <ele>1318</ele>
        <time>2013-01-06T12:03:06Z</time>
      </trkpt>
      <trkpt lat="45.28932" lon="5.76781">
        <ele>1318</ele>
        <time>2013-01-06T12:03:11Z</time>
      </trkpt>
      <trkpt lat="45.28936" lon="5.76774">
        <ele>1318</ele>
        <time>2013-01-06T12:03:16Z</time>
      </trkpt>
      <trkpt lat="45.28941" lon="5.76769">
        <ele>1317</ele>
        <time>2013-01-06T12:03:21Z</time>
      </trkpt>
      <trkpt lat="45.28944" lon="5.76766">
        <ele>1318</ele>
        <time>2013-01-06T12:03:26Z</time>
      </trkpt>
      <trkpt lat="45.28948" lon="5.76764">
        <ele>1317</ele>
        <time>2013-01-06T12:03:31Z</time>
      </trkpt>
      <trkpt lat="45.28949" lon="5.76763">
        <ele>1317</ele>
        <time>2013-01-06T12:03:36Z</time>
      </trkpt>
      <trkpt lat="45.2895" lon="5.76763">
        <ele>1316</ele>
        <time>2013-01-06T12:03:41Z</time>
      </trkpt>
      <trkpt lat="45.28951" lon="5.76763">
        <ele>1315</ele>
        <time>2013-01-06T12:03:46Z</time>
      </trkpt>
      <trkpt lat="45.28951" lon="5.76763">
        <ele>1315</ele>
        <time>2013-01-06T12:03:51Z</time>
      </trkpt>
      <trkpt lat="45.28951" lon="5.76761">
        <ele>1316</ele>
        <time>2013-01-06T12:03:56Z</time>
      </trkpt>
      <trkpt lat="45.2895" lon="5.76762">
        <ele>1315</ele>
        <time>2013-01-06T12:04:01Z</time>
      </trkpt>
      <trkpt lat="45.2895" lon="5.76761">
        <ele>1316</ele>
        <time>2013-01-06T12:04:06Z</time>
      </trkpt>
      <trkpt lat="45.2895" lon="5.76761">
        <ele>1317</ele>
        <time>2013-01-06T12:04:11Z</time>
      </trkpt>
      <trkpt lat="45.2895" lon="5.76761">
        <ele>1318</ele>
        <time>2013-01-06T12:04:16Z</time>
      </trkpt>
      <trkpt lat="45.28951" lon="5.76761">
        <ele>1319</ele>
        <time>2013-01-06T12:04:21Z</time>
      </trkpt>
      <trkpt lat="45.28951" lon="5.76761">
        <ele>1320</ele>
        <time>2013-01-06T12:04:26Z</time>
      </trkpt>
      <trkpt lat="45.28953" lon="5.76759">
        <ele>1321</ele>
        <time>2013-01-06T12:04:31Z</time>
      </trkpt>
      <trkpt lat="45.28957" lon="5.76755">
        <ele>1321</ele>
        <time>2013-01-06T12:04:36Z</time>
      </trkpt>
      <trkpt lat="45.28961" lon="5.7675">
        <ele>1321</ele>
        <time>2013-01-06T12:04:41Z</time>
      </trkpt>
      <trkpt lat="45.28965" lon="5.76745">
        <ele>1320</ele>
        <time>2013-01-06T12:04:46Z</time>
      </trkpt>
      <trkpt lat="45.28969" lon="5.76741">
        <ele>1320</ele>
        <time>2013-01-06T12:04:51Z</time>
      </trkpt>
      <trkpt lat="45.28973" lon="5.76742">
        <ele>1320</ele>
        <time>2013-01-06T12:04:56Z</time>
      </trkpt>
      <trkpt lat="45.28975" lon="5.76742">
        <ele>1321</ele>
        <time>2013-01-06T12:05:01Z</time>
      </trkpt>
      <trkpt lat="45.28975" lon="5.76742">
        <ele>1320</ele>
        <time>2013-01-06T12:05:06Z</time>
      </trkpt>
      <trkpt lat="45.28974" lon="5.76741">
        <ele>1319</ele>
        <time>2013-01-06T12:05:11Z</time>
      </trkpt>
      <trkpt lat="45.28975" lon="5.76741">
        <ele>1319</ele>
        <time>2013-01-06T12:05:16Z</time>
      </trkpt>
      <trkpt lat="45.28975" lon="5.7674">
        <ele>1319</ele>
        <time>2013-01-06T12:05:21Z</time>
      </trkpt>
      <trkpt lat="45.28975" lon="5.7674">
        <ele>1319</ele>
        <time>2013-01-06T12:05:26Z</time>
      </trkpt>
      <trkpt lat="45.28975" lon="5.7674">
        <ele>1319</ele>
        <time>2013-01-06T12:05:31Z</time>
      </trkpt>
      <trkpt lat="45.28973" lon="5.76739">
        <ele>1318</ele>
        <time>2013-01-06T12:05:36Z</time>
      </trkpt>
      <trkpt lat="45.28973" lon="5.76739">
        <ele>1316</ele>
        <time>2013-01-06T12:05:41Z</time>
      </trkpt>
      <trkpt lat="45.28974" lon="5.76738">
        <ele>1317</ele>
        <time>2013-01-06T12:05:46Z</time>
      </trkpt>
      <trkpt lat="45.28973" lon="5.76736">
        <ele>1318</ele>
        <time>2013-01-06T12:05:51Z</time>
      </trkpt>
      <trkpt lat="45.28972" lon="5.76736">
        <ele>1316</ele>
        <time>2013-01-06T12:05:56Z</time>
      </trkpt>
      <trkpt lat="45.28972" lon="5.76736">
        <ele>1314</ele>
        <time>2013-01-06T12:06:01Z</time>
      </trkpt>
      <trkpt lat="45.28972" lon="5.76736">
        <ele>1313</ele>
        <time>2013-01-06T12:06:06Z</time>
      </trkpt>
      <trkpt lat="45.28972" lon="5.76737">
        <ele>1312</ele>
        <time>2013-01-06T12:06:11Z</time>
      </trkpt>
    </trkseg>
  </trk>
</gpx>